<?xml version="1.0" encoding="UTF-8" standalone="no" ?>
<gpx xmlns="http://www.topografix.com/GPX/1/1" xmlns:xsi="http://www.w3.org/2001/XMLSchema-instance" xsi:schemaLocation="http://www.topografix.com/GPX/1/1 http://www.topografix.com/GPX/1/1/gpx.xsd" version="1.1" creator="VisuGPX - https://www.visugpx.com">
  <metadata>
    <name>lundi 2015 06</name>
    <desc><![CDATA[cumul juin 2015]]></desc>
  </metadata>
  <trk>
    <name><![CDATA[Paris]]></name>
    <extensions>
      <line xmlns="http://www.topografix.com/GPX/gpx_style/0/2">
        <color>000000</color>
      </line>
    </extensions>
    <trkseg>
      <trkpt lat="48.83645" lon="2.33449">
        <ele>89.400001525879</ele>
        <time>2015-06-01T18:33:00Z</time>
      </trkpt>
      <trkpt lat="48.83629" lon="2.33433">
        <ele>88.599998474121</ele>
        <time>2015-06-01T18:33:04Z</time>
      </trkpt>
      <trkpt lat="48.83625" lon="2.33429">
        <ele>88.400001525879</ele>
        <time>2015-06-01T18:33:05Z</time>
      </trkpt>
      <trkpt lat="48.83605" lon="2.33408">
        <ele>88</ele>
        <time>2015-06-01T18:33:10Z</time>
      </trkpt>
      <trkpt lat="48.83588" lon="2.33392">
        <ele>87.599998474121</ele>
        <time>2015-06-01T18:33:14Z</time>
      </trkpt>
      <trkpt lat="48.83585" lon="2.33388">
        <ele>87.599998474121</ele>
        <time>2015-06-01T18:33:15Z</time>
      </trkpt>
      <trkpt lat="48.83563" lon="2.33369">
        <ele>87.400001525879</ele>
        <time>2015-06-01T18:33:20Z</time>
      </trkpt>
      <trkpt lat="48.83547" lon="2.33353">
        <ele>87.199996948242</ele>
        <time>2015-06-01T18:33:24Z</time>
      </trkpt>
      <trkpt lat="48.83531" lon="2.33338">
        <ele>87.199996948242</ele>
        <time>2015-06-01T18:33:28Z</time>
      </trkpt>
      <trkpt lat="48.83515" lon="2.33325">
        <ele>87.199996948242</ele>
        <time>2015-06-01T18:33:32Z</time>
      </trkpt>
      <trkpt lat="48.83496" lon="2.33309">
        <ele>87.599998474121</ele>
        <time>2015-06-01T18:33:37Z</time>
      </trkpt>
      <trkpt lat="48.83493" lon="2.33306">
        <ele>87.599998474121</ele>
        <time>2015-06-01T18:33:38Z</time>
      </trkpt>
      <trkpt lat="48.83466" lon="2.33283">
        <ele>88.599998474121</ele>
        <time>2015-06-01T18:33:48Z</time>
      </trkpt>
      <trkpt lat="48.83465" lon="2.33286">
        <ele>88.800003051758</ele>
        <time>2015-06-01T18:33:52Z</time>
      </trkpt>
      <trkpt lat="48.83467" lon="2.33285">
        <ele>89</ele>
        <time>2015-06-01T18:34:00Z</time>
      </trkpt>
      <trkpt lat="48.83467" lon="2.33284">
        <ele>89</ele>
        <time>2015-06-01T18:34:03Z</time>
      </trkpt>
      <trkpt lat="48.83464" lon="2.33294">
        <ele>88.199996948242</ele>
        <time>2015-06-01T18:34:08Z</time>
      </trkpt>
      <trkpt lat="48.83456" lon="2.33302">
        <ele>87.599998474121</ele>
        <time>2015-06-01T18:34:12Z</time>
      </trkpt>
      <trkpt lat="48.83452" lon="2.33304">
        <ele>87</ele>
        <time>2015-06-01T18:34:14Z</time>
      </trkpt>
      <trkpt lat="48.83448" lon="2.33301">
        <ele>86.400001525879</ele>
        <time>2015-06-01T18:34:17Z</time>
      </trkpt>
      <trkpt lat="48.83448" lon="2.33299">
        <ele>86.199996948242</ele>
        <time>2015-06-01T18:34:19Z</time>
      </trkpt>
      <trkpt lat="48.83444" lon="2.33298">
        <ele>84.599998474121</ele>
        <time>2015-06-01T18:34:25Z</time>
      </trkpt>
      <trkpt lat="48.83443" lon="2.33299">
        <ele>84.400001525879</ele>
        <time>2015-06-01T18:34:26Z</time>
      </trkpt>
      <trkpt lat="48.83437" lon="2.33303">
        <ele>83.400001525879</ele>
        <time>2015-06-01T18:34:29Z</time>
      </trkpt>
      <trkpt lat="48.83433" lon="2.33304">
        <ele>82.400001525879</ele>
        <time>2015-06-01T18:34:34Z</time>
      </trkpt>
      <trkpt lat="48.83433" lon="2.33307">
        <ele>78.599998474121</ele>
        <time>2015-06-01T18:34:50Z</time>
      </trkpt>
      <trkpt lat="48.8344" lon="2.3331">
        <ele>76.599998474121</ele>
        <time>2015-06-01T18:35:40Z</time>
      </trkpt>
      <trkpt lat="48.83439" lon="2.33313">
        <ele>72.599998474121</ele>
        <time>2015-06-01T18:36:36Z</time>
      </trkpt>
      <trkpt lat="48.83452" lon="2.33308">
        <ele>74.400001525879</ele>
        <time>2015-06-01T18:37:29Z</time>
      </trkpt>
      <trkpt lat="48.83459" lon="2.33304">
        <ele>74.400001525879</ele>
        <time>2015-06-01T18:37:34Z</time>
      </trkpt>
      <trkpt lat="48.83461" lon="2.33303">
        <ele>74.400001525879</ele>
        <time>2015-06-01T18:37:36Z</time>
      </trkpt>
      <trkpt lat="48.83465" lon="2.33304">
        <ele>74.400001525879</ele>
        <time>2015-06-01T18:37:43Z</time>
      </trkpt>
      <trkpt lat="48.83464" lon="2.33304">
        <ele>74.400001525879</ele>
        <time>2015-06-01T18:37:44Z</time>
      </trkpt>
      <trkpt lat="48.83461" lon="2.33302">
        <ele>74.400001525879</ele>
        <time>2015-06-01T18:37:53Z</time>
      </trkpt>
      <trkpt lat="48.83456" lon="2.33299">
        <ele>74.400001525879</ele>
        <time>2015-06-01T18:38:10Z</time>
      </trkpt>
      <trkpt lat="48.83455" lon="2.33298">
        <ele>74.400001525879</ele>
        <time>2015-06-01T18:38:15Z</time>
      </trkpt>
      <trkpt lat="48.83456" lon="2.33297">
        <ele>74.400001525879</ele>
        <time>2015-06-01T18:38:18Z</time>
      </trkpt>
      <trkpt lat="48.8346" lon="2.33293">
        <ele>74.400001525879</ele>
        <time>2015-06-01T18:38:23Z</time>
      </trkpt>
      <trkpt lat="48.83459" lon="2.3329">
        <ele>74.400001525879</ele>
        <time>2015-06-01T18:38:26Z</time>
      </trkpt>
      <trkpt lat="48.83457" lon="2.33285">
        <ele>74.400001525879</ele>
        <time>2015-06-01T18:38:29Z</time>
      </trkpt>
      <trkpt lat="48.83457" lon="2.33288">
        <ele>74.400001525879</ele>
        <time>2015-06-01T18:38:34Z</time>
      </trkpt>
      <trkpt lat="48.83455" lon="2.33283">
        <ele>74.400001525879</ele>
        <time>2015-06-01T18:38:38Z</time>
      </trkpt>
      <trkpt lat="48.83455" lon="2.3328">
        <ele>74.400001525879</ele>
        <time>2015-06-01T18:38:42Z</time>
      </trkpt>
      <trkpt lat="48.83458" lon="2.33291">
        <ele>74.400001525879</ele>
        <time>2015-06-01T18:39:20Z</time>
      </trkpt>
      <trkpt lat="48.83454" lon="2.33289">
        <ele>74.400001525879</ele>
        <time>2015-06-01T18:39:25Z</time>
      </trkpt>
      <trkpt lat="48.83453" lon="2.33288">
        <ele>74.400001525879</ele>
        <time>2015-06-01T18:39:33Z</time>
      </trkpt>
      <trkpt lat="48.83453" lon="2.33287">
        <ele>74.400001525879</ele>
        <time>2015-06-01T18:39:48Z</time>
      </trkpt>
      <trkpt lat="48.83452" lon="2.33284">
        <ele>74.400001525879</ele>
        <time>2015-06-01T18:40:18Z</time>
      </trkpt>
      <trkpt lat="48.83451" lon="2.33283">
        <ele>74.400001525879</ele>
        <time>2015-06-01T18:40:37Z</time>
      </trkpt>
      <trkpt lat="48.83456" lon="2.33286">
        <ele>74.400001525879</ele>
        <time>2015-06-01T18:40:43Z</time>
      </trkpt>
      <trkpt lat="48.83454" lon="2.33285">
        <ele>74.400001525879</ele>
        <time>2015-06-01T18:40:53Z</time>
      </trkpt>
      <trkpt lat="48.83455" lon="2.33286">
        <ele>74.400001525879</ele>
        <time>2015-06-01T18:41:31Z</time>
      </trkpt>
      <trkpt lat="48.83457" lon="2.33283">
        <ele>74.400001525879</ele>
        <time>2015-06-01T18:41:37Z</time>
      </trkpt>
      <trkpt lat="48.83458" lon="2.33282">
        <ele>74.400001525879</ele>
        <time>2015-06-01T18:41:38Z</time>
      </trkpt>
      <trkpt lat="48.83466" lon="2.33285">
        <ele>74.400001525879</ele>
        <time>2015-06-01T18:41:43Z</time>
      </trkpt>
      <trkpt lat="48.83477" lon="2.33292">
        <ele>74.400001525879</ele>
        <time>2015-06-01T18:41:49Z</time>
      </trkpt>
      <trkpt lat="48.83493" lon="2.33306">
        <ele>74.400001525879</ele>
        <time>2015-06-01T18:41:56Z</time>
      </trkpt>
      <trkpt lat="48.83499" lon="2.3331">
        <ele>74.400001525879</ele>
        <time>2015-06-01T18:41:58Z</time>
      </trkpt>
      <trkpt lat="48.8351" lon="2.33319">
        <ele>74.400001525879</ele>
        <time>2015-06-01T18:42:02Z</time>
      </trkpt>
      <trkpt lat="48.83528" lon="2.33335">
        <ele>75.199996948242</ele>
        <time>2015-06-01T18:42:08Z</time>
      </trkpt>
      <trkpt lat="48.83544" lon="2.33347">
        <ele>76</ele>
        <time>2015-06-01T18:42:13Z</time>
      </trkpt>
      <trkpt lat="48.83563" lon="2.33365">
        <ele>77.199996948242</ele>
        <time>2015-06-01T18:42:18Z</time>
      </trkpt>
      <trkpt lat="48.83582" lon="2.33384">
        <ele>77.599998474121</ele>
        <time>2015-06-01T18:42:22Z</time>
      </trkpt>
      <trkpt lat="48.83588" lon="2.33389">
        <ele>77.800003051758</ele>
        <time>2015-06-01T18:42:23Z</time>
      </trkpt>
      <trkpt lat="48.83604" lon="2.33405">
        <ele>78</ele>
        <time>2015-06-01T18:42:26Z</time>
      </trkpt>
      <trkpt lat="48.8361" lon="2.3341">
        <ele>78.199996948242</ele>
        <time>2015-06-01T18:42:27Z</time>
      </trkpt>
      <trkpt lat="48.83636" lon="2.33437">
        <ele>78.400001525879</ele>
        <time>2015-06-01T18:42:31Z</time>
      </trkpt>
      <trkpt lat="48.83656" lon="2.33458">
        <ele>78.400001525879</ele>
        <time>2015-06-01T18:42:34Z</time>
      </trkpt>
      <trkpt lat="48.83676" lon="2.33477">
        <ele>78.599998474121</ele>
        <time>2015-06-01T18:42:37Z</time>
      </trkpt>
      <trkpt lat="48.83696" lon="2.33499">
        <ele>78.599998474121</ele>
        <time>2015-06-01T18:42:40Z</time>
      </trkpt>
      <trkpt lat="48.83716" lon="2.33517">
        <ele>78.599998474121</ele>
        <time>2015-06-01T18:42:43Z</time>
      </trkpt>
      <trkpt lat="48.83735" lon="2.33535">
        <ele>78.400001525879</ele>
        <time>2015-06-01T18:42:46Z</time>
      </trkpt>
      <trkpt lat="48.83744" lon="2.3354">
        <ele>78.400001525879</ele>
        <time>2015-06-01T18:42:47Z</time>
      </trkpt>
      <trkpt lat="48.83763" lon="2.33559">
        <ele>77.800003051758</ele>
        <time>2015-06-01T18:42:50Z</time>
      </trkpt>
      <trkpt lat="48.83782" lon="2.33579">
        <ele>77.199996948242</ele>
        <time>2015-06-01T18:42:53Z</time>
      </trkpt>
      <trkpt lat="48.83801" lon="2.33599">
        <ele>76.400001525879</ele>
        <time>2015-06-01T18:42:56Z</time>
      </trkpt>
      <trkpt lat="48.83819" lon="2.33618">
        <ele>75.400001525879</ele>
        <time>2015-06-01T18:42:59Z</time>
      </trkpt>
      <trkpt lat="48.83836" lon="2.33638">
        <ele>74.599998474121</ele>
        <time>2015-06-01T18:43:02Z</time>
      </trkpt>
      <trkpt lat="48.83841" lon="2.33645">
        <ele>74.400001525879</ele>
        <time>2015-06-01T18:43:03Z</time>
      </trkpt>
      <trkpt lat="48.83865" lon="2.33664">
        <ele>73.199996948242</ele>
        <time>2015-06-01T18:43:07Z</time>
      </trkpt>
      <trkpt lat="48.83872" lon="2.33667">
        <ele>72.800003051758</ele>
        <time>2015-06-01T18:43:08Z</time>
      </trkpt>
      <trkpt lat="48.83886" lon="2.33673">
        <ele>72.199996948242</ele>
        <time>2015-06-01T18:43:10Z</time>
      </trkpt>
      <trkpt lat="48.83912" lon="2.33675">
        <ele>71.400001525879</ele>
        <time>2015-06-01T18:43:14Z</time>
      </trkpt>
      <trkpt lat="48.83917" lon="2.33676">
        <ele>71.400001525879</ele>
        <time>2015-06-01T18:43:15Z</time>
      </trkpt>
      <trkpt lat="48.83932" lon="2.33679">
        <ele>71</ele>
        <time>2015-06-01T18:43:18Z</time>
      </trkpt>
      <trkpt lat="48.83939" lon="2.33681">
        <ele>70.800003051758</ele>
        <time>2015-06-01T18:43:20Z</time>
      </trkpt>
      <trkpt lat="48.83952" lon="2.33684">
        <ele>70.400001525879</ele>
        <time>2015-06-01T18:43:24Z</time>
      </trkpt>
      <trkpt lat="48.83962" lon="2.3369">
        <ele>70.199996948242</ele>
        <time>2015-06-01T18:43:29Z</time>
      </trkpt>
      <trkpt lat="48.83963" lon="2.33692">
        <ele>70.199996948242</ele>
        <time>2015-06-01T18:43:30Z</time>
      </trkpt>
      <trkpt lat="48.83964" lon="2.33692">
        <ele>70.199996948242</ele>
        <time>2015-06-01T18:43:31Z</time>
      </trkpt>
      <trkpt lat="48.83967" lon="2.3369">
        <ele>70.199996948242</ele>
        <time>2015-06-01T18:43:34Z</time>
      </trkpt>
      <trkpt lat="48.83965" lon="2.33682">
        <ele>70</ele>
        <time>2015-06-01T18:44:07Z</time>
      </trkpt>
      <trkpt lat="48.8397" lon="2.33681">
        <ele>70</ele>
        <time>2015-06-01T18:44:28Z</time>
      </trkpt>
      <trkpt lat="48.83972" lon="2.33679">
        <ele>70</ele>
        <time>2015-06-01T18:44:29Z</time>
      </trkpt>
      <trkpt lat="48.83982" lon="2.33671">
        <ele>70</ele>
        <time>2015-06-01T18:44:33Z</time>
      </trkpt>
      <trkpt lat="48.83985" lon="2.33663">
        <ele>70</ele>
        <time>2015-06-01T18:44:36Z</time>
      </trkpt>
      <trkpt lat="48.83986" lon="2.33663">
        <ele>70</ele>
        <time>2015-06-01T18:44:37Z</time>
      </trkpt>
      <trkpt lat="48.83994" lon="2.33668">
        <ele>68.599998474121</ele>
        <time>2015-06-01T18:45:04Z</time>
      </trkpt>
      <trkpt lat="48.83996" lon="2.33669">
        <ele>68.400001525879</ele>
        <time>2015-06-01T18:45:05Z</time>
      </trkpt>
      <trkpt lat="48.84006" lon="2.33674">
        <ele>68.199996948242</ele>
        <time>2015-06-01T18:45:09Z</time>
      </trkpt>
      <trkpt lat="48.84008" lon="2.33678">
        <ele>68.199996948242</ele>
        <time>2015-06-01T18:45:10Z</time>
      </trkpt>
      <trkpt lat="48.84025" lon="2.33696">
        <ele>68</ele>
        <time>2015-06-01T18:45:15Z</time>
      </trkpt>
      <trkpt lat="48.84039" lon="2.33704">
        <ele>68</ele>
        <time>2015-06-01T18:45:18Z</time>
      </trkpt>
      <trkpt lat="48.84055" lon="2.3372">
        <ele>68</ele>
        <time>2015-06-01T18:45:22Z</time>
      </trkpt>
      <trkpt lat="48.84079" lon="2.33732">
        <ele>68</ele>
        <time>2015-06-01T18:45:27Z</time>
      </trkpt>
      <trkpt lat="48.84102" lon="2.33742">
        <ele>68</ele>
        <time>2015-06-01T18:45:31Z</time>
      </trkpt>
      <trkpt lat="48.8412" lon="2.33749">
        <ele>68</ele>
        <time>2015-06-01T18:45:34Z</time>
      </trkpt>
      <trkpt lat="48.84141" lon="2.33756">
        <ele>68</ele>
        <time>2015-06-01T18:45:37Z</time>
      </trkpt>
      <trkpt lat="48.84149" lon="2.33758">
        <ele>68</ele>
        <time>2015-06-01T18:45:38Z</time>
      </trkpt>
      <trkpt lat="48.84172" lon="2.33771">
        <ele>68</ele>
        <time>2015-06-01T18:45:41Z</time>
      </trkpt>
      <trkpt lat="48.8418" lon="2.33776">
        <ele>68</ele>
        <time>2015-06-01T18:45:42Z</time>
      </trkpt>
      <trkpt lat="48.84186" lon="2.33782">
        <ele>68</ele>
        <time>2015-06-01T18:45:43Z</time>
      </trkpt>
      <trkpt lat="48.84215" lon="2.33798">
        <ele>68</ele>
        <time>2015-06-01T18:45:47Z</time>
      </trkpt>
      <trkpt lat="48.84223" lon="2.33803">
        <ele>68</ele>
        <time>2015-06-01T18:45:48Z</time>
      </trkpt>
      <trkpt lat="48.8424" lon="2.33813">
        <ele>68</ele>
        <time>2015-06-01T18:45:50Z</time>
      </trkpt>
      <trkpt lat="48.84248" lon="2.33817">
        <ele>68</ele>
        <time>2015-06-01T18:45:51Z</time>
      </trkpt>
      <trkpt lat="48.84272" lon="2.3383">
        <ele>67.800003051758</ele>
        <time>2015-06-01T18:45:54Z</time>
      </trkpt>
      <trkpt lat="48.84293" lon="2.33841">
        <ele>67.599998474121</ele>
        <time>2015-06-01T18:45:57Z</time>
      </trkpt>
      <trkpt lat="48.84315" lon="2.33854">
        <ele>67.199996948242</ele>
        <time>2015-06-01T18:46:00Z</time>
      </trkpt>
      <trkpt lat="48.84332" lon="2.33868">
        <ele>66.800003051758</ele>
        <time>2015-06-01T18:46:03Z</time>
      </trkpt>
      <trkpt lat="48.84349" lon="2.3388">
        <ele>66.599998474121</ele>
        <time>2015-06-01T18:46:05Z</time>
      </trkpt>
      <trkpt lat="48.84365" lon="2.33894">
        <ele>66.400001525879</ele>
        <time>2015-06-01T18:46:07Z</time>
      </trkpt>
      <trkpt lat="48.84386" lon="2.33907">
        <ele>66.400001525879</ele>
        <time>2015-06-01T18:46:10Z</time>
      </trkpt>
      <trkpt lat="48.84393" lon="2.33909">
        <ele>66.199996948242</ele>
        <time>2015-06-01T18:46:11Z</time>
      </trkpt>
      <trkpt lat="48.84412" lon="2.33916">
        <ele>66.199996948242</ele>
        <time>2015-06-01T18:46:14Z</time>
      </trkpt>
      <trkpt lat="48.84423" lon="2.3392">
        <ele>66.199996948242</ele>
        <time>2015-06-01T18:46:16Z</time>
      </trkpt>
      <trkpt lat="48.84448" lon="2.33934">
        <ele>65.400001525879</ele>
        <time>2015-06-01T18:46:20Z</time>
      </trkpt>
      <trkpt lat="48.84469" lon="2.3395">
        <ele>65</ele>
        <time>2015-06-01T18:46:23Z</time>
      </trkpt>
      <trkpt lat="48.8449" lon="2.33965">
        <ele>64.599998474121</ele>
        <time>2015-06-01T18:46:26Z</time>
      </trkpt>
      <trkpt lat="48.84495" lon="2.33964">
        <ele>64.599998474121</ele>
        <time>2015-06-01T18:46:27Z</time>
      </trkpt>
      <trkpt lat="48.84516" lon="2.33966">
        <ele>64.199996948242</ele>
        <time>2015-06-01T18:46:31Z</time>
      </trkpt>
      <trkpt lat="48.84537" lon="2.33973">
        <ele>64.199996948242</ele>
        <time>2015-06-01T18:46:35Z</time>
      </trkpt>
      <trkpt lat="48.8455" lon="2.33977">
        <ele>64</ele>
        <time>2015-06-01T18:46:37Z</time>
      </trkpt>
      <trkpt lat="48.84573" lon="2.33996">
        <ele>64</ele>
        <time>2015-06-01T18:46:41Z</time>
      </trkpt>
      <trkpt lat="48.84579" lon="2.34001">
        <ele>64</ele>
        <time>2015-06-01T18:46:42Z</time>
      </trkpt>
      <trkpt lat="48.84596" lon="2.34009">
        <ele>64</ele>
        <time>2015-06-01T18:46:45Z</time>
      </trkpt>
      <trkpt lat="48.84617" lon="2.34021">
        <ele>64.400001525879</ele>
        <time>2015-06-01T18:46:49Z</time>
      </trkpt>
      <trkpt lat="48.84622" lon="2.34026">
        <ele>64.599998474121</ele>
        <time>2015-06-01T18:46:50Z</time>
      </trkpt>
      <trkpt lat="48.84626" lon="2.3403">
        <ele>64.800003051758</ele>
        <time>2015-06-01T18:46:51Z</time>
      </trkpt>
      <trkpt lat="48.84649" lon="2.34046">
        <ele>65.199996948242</ele>
        <time>2015-06-01T18:46:56Z</time>
      </trkpt>
      <trkpt lat="48.84652" lon="2.34047">
        <ele>65.199996948242</ele>
        <time>2015-06-01T18:46:57Z</time>
      </trkpt>
      <trkpt lat="48.84664" lon="2.34055">
        <ele>65.400001525879</ele>
        <time>2015-06-01T18:47:01Z</time>
      </trkpt>
      <trkpt lat="48.84672" lon="2.3406">
        <ele>65.599998474121</ele>
        <time>2015-06-01T18:47:05Z</time>
      </trkpt>
      <trkpt lat="48.84675" lon="2.34058">
        <ele>65.800003051758</ele>
        <time>2015-06-01T18:47:10Z</time>
      </trkpt>
      <trkpt lat="48.84678" lon="2.34057">
        <ele>65.800003051758</ele>
        <time>2015-06-01T18:47:22Z</time>
      </trkpt>
      <trkpt lat="48.84682" lon="2.3406">
        <ele>65.800003051758</ele>
        <time>2015-06-01T18:47:29Z</time>
      </trkpt>
      <trkpt lat="48.84685" lon="2.34061">
        <ele>65.800003051758</ele>
        <time>2015-06-01T18:47:41Z</time>
      </trkpt>
      <trkpt lat="48.84692" lon="2.34069">
        <ele>65.800003051758</ele>
        <time>2015-06-01T18:47:45Z</time>
      </trkpt>
      <trkpt lat="48.84704" lon="2.34075">
        <ele>65.800003051758</ele>
        <time>2015-06-01T18:47:49Z</time>
      </trkpt>
      <trkpt lat="48.84718" lon="2.34084">
        <ele>65.800003051758</ele>
        <time>2015-06-01T18:47:54Z</time>
      </trkpt>
      <trkpt lat="48.84722" lon="2.34086">
        <ele>65.800003051758</ele>
        <time>2015-06-01T18:47:59Z</time>
      </trkpt>
      <trkpt lat="48.84729" lon="2.34083">
        <ele>65.800003051758</ele>
        <time>2015-06-01T18:48:11Z</time>
      </trkpt>
      <trkpt lat="48.84739" lon="2.34079">
        <ele>65.800003051758</ele>
        <time>2015-06-01T18:48:32Z</time>
      </trkpt>
      <trkpt lat="48.84745" lon="2.34078">
        <ele>66.199996948242</ele>
        <time>2015-06-01T18:48:41Z</time>
      </trkpt>
      <trkpt lat="48.84757" lon="2.34087">
        <ele>66.800003051758</ele>
        <time>2015-06-01T18:48:45Z</time>
      </trkpt>
      <trkpt lat="48.84777" lon="2.34104">
        <ele>67.199996948242</ele>
        <time>2015-06-01T18:48:49Z</time>
      </trkpt>
      <trkpt lat="48.84798" lon="2.34119">
        <ele>67.400001525879</ele>
        <time>2015-06-01T18:48:52Z</time>
      </trkpt>
      <trkpt lat="48.8482" lon="2.34133">
        <ele>67.599998474121</ele>
        <time>2015-06-01T18:48:55Z</time>
      </trkpt>
      <trkpt lat="48.84838" lon="2.34144">
        <ele>67.599998474121</ele>
        <time>2015-06-01T18:48:57Z</time>
      </trkpt>
      <trkpt lat="48.84853" lon="2.34155">
        <ele>67.599998474121</ele>
        <time>2015-06-01T18:48:59Z</time>
      </trkpt>
      <trkpt lat="48.84878" lon="2.3417">
        <ele>67.800003051758</ele>
        <time>2015-06-01T18:49:02Z</time>
      </trkpt>
      <trkpt lat="48.84895" lon="2.34181">
        <ele>67.800003051758</ele>
        <time>2015-06-01T18:49:04Z</time>
      </trkpt>
      <trkpt lat="48.84918" lon="2.34192">
        <ele>67.800003051758</ele>
        <time>2015-06-01T18:49:07Z</time>
      </trkpt>
      <trkpt lat="48.84941" lon="2.342">
        <ele>67.800003051758</ele>
        <time>2015-06-01T18:49:10Z</time>
      </trkpt>
      <trkpt lat="48.84966" lon="2.34206">
        <ele>67.800003051758</ele>
        <time>2015-06-01T18:49:13Z</time>
      </trkpt>
      <trkpt lat="48.84974" lon="2.34211">
        <ele>67.800003051758</ele>
        <time>2015-06-01T18:49:14Z</time>
      </trkpt>
      <trkpt lat="48.84997" lon="2.34229">
        <ele>67.800003051758</ele>
        <time>2015-06-01T18:49:17Z</time>
      </trkpt>
      <trkpt lat="48.85006" lon="2.34238">
        <ele>68</ele>
        <time>2015-06-01T18:49:18Z</time>
      </trkpt>
      <trkpt lat="48.85039" lon="2.34257">
        <ele>68</ele>
        <time>2015-06-01T18:49:22Z</time>
      </trkpt>
      <trkpt lat="48.85046" lon="2.34262">
        <ele>68</ele>
        <time>2015-06-01T18:49:23Z</time>
      </trkpt>
      <trkpt lat="48.8506" lon="2.34271">
        <ele>68</ele>
        <time>2015-06-01T18:49:25Z</time>
      </trkpt>
      <trkpt lat="48.85089" lon="2.34283">
        <ele>68</ele>
        <time>2015-06-01T18:49:29Z</time>
      </trkpt>
      <trkpt lat="48.85097" lon="2.34287">
        <ele>68</ele>
        <time>2015-06-01T18:49:30Z</time>
      </trkpt>
      <trkpt lat="48.85104" lon="2.34293">
        <ele>68</ele>
        <time>2015-06-01T18:49:31Z</time>
      </trkpt>
      <trkpt lat="48.85129" lon="2.3431">
        <ele>67.199996948242</ele>
        <time>2015-06-01T18:49:35Z</time>
      </trkpt>
      <trkpt lat="48.85136" lon="2.34323">
        <ele>67</ele>
        <time>2015-06-01T18:49:37Z</time>
      </trkpt>
      <trkpt lat="48.85136" lon="2.34332">
        <ele>66.800003051758</ele>
        <time>2015-06-01T18:49:38Z</time>
      </trkpt>
      <trkpt lat="48.85134" lon="2.3434">
        <ele>66.800003051758</ele>
        <time>2015-06-01T18:49:39Z</time>
      </trkpt>
      <trkpt lat="48.85131" lon="2.34353">
        <ele>66.199996948242</ele>
        <time>2015-06-01T18:49:41Z</time>
      </trkpt>
      <trkpt lat="48.85122" lon="2.34371">
        <ele>65</ele>
        <time>2015-06-01T18:49:45Z</time>
      </trkpt>
      <trkpt lat="48.85129" lon="2.34357">
        <ele>63.599998474121</ele>
        <time>2015-06-01T18:49:49Z</time>
      </trkpt>
      <trkpt lat="48.85137" lon="2.34336">
        <ele>62.400001525879</ele>
        <time>2015-06-01T18:49:52Z</time>
      </trkpt>
      <trkpt lat="48.85155" lon="2.34328">
        <ele>60.599998474121</ele>
        <time>2015-06-01T18:49:56Z</time>
      </trkpt>
      <trkpt lat="48.85168" lon="2.34334">
        <ele>59.79999923706</ele>
        <time>2015-06-01T18:49:58Z</time>
      </trkpt>
      <trkpt lat="48.85181" lon="2.34342">
        <ele>59.400001525879</ele>
        <time>2015-06-01T18:50:00Z</time>
      </trkpt>
      <trkpt lat="48.85187" lon="2.34346">
        <ele>59</ele>
        <time>2015-06-01T18:50:01Z</time>
      </trkpt>
      <trkpt lat="48.85213" lon="2.34359">
        <ele>57.400001525879</ele>
        <time>2015-06-01T18:50:06Z</time>
      </trkpt>
      <trkpt lat="48.8523" lon="2.34371">
        <ele>56.79999923706</ele>
        <time>2015-06-01T18:50:09Z</time>
      </trkpt>
      <trkpt lat="48.85236" lon="2.34377">
        <ele>56.599998474121</ele>
        <time>2015-06-01T18:50:10Z</time>
      </trkpt>
      <trkpt lat="48.8526" lon="2.34388">
        <ele>56</ele>
        <time>2015-06-01T18:50:15Z</time>
      </trkpt>
      <trkpt lat="48.85265" lon="2.34389">
        <ele>55.79999923706</ele>
        <time>2015-06-01T18:50:16Z</time>
      </trkpt>
      <trkpt lat="48.85284" lon="2.34397">
        <ele>56.20000076294</ele>
        <time>2015-06-01T18:50:20Z</time>
      </trkpt>
      <trkpt lat="48.85296" lon="2.34402">
        <ele>56.400001525879</ele>
        <time>2015-06-01T18:50:23Z</time>
      </trkpt>
      <trkpt lat="48.85321" lon="2.34413">
        <ele>56.79999923706</ele>
        <time>2015-06-01T18:50:29Z</time>
      </trkpt>
      <trkpt lat="48.85325" lon="2.34415">
        <ele>56.79999923706</ele>
        <time>2015-06-01T18:50:30Z</time>
      </trkpt>
      <trkpt lat="48.85329" lon="2.34417">
        <ele>57</ele>
        <time>2015-06-01T18:50:33Z</time>
      </trkpt>
      <trkpt lat="48.85331" lon="2.34415">
        <ele>57.20000076294</ele>
        <time>2015-06-01T18:50:39Z</time>
      </trkpt>
      <trkpt lat="48.8533" lon="2.34412">
        <ele>57.20000076294</ele>
        <time>2015-06-01T18:50:41Z</time>
      </trkpt>
      <trkpt lat="48.85335" lon="2.34414">
        <ele>57.20000076294</ele>
        <time>2015-06-01T18:50:45Z</time>
      </trkpt>
      <trkpt lat="48.85346" lon="2.34421">
        <ele>57.20000076294</ele>
        <time>2015-06-01T18:50:49Z</time>
      </trkpt>
      <trkpt lat="48.85363" lon="2.34434">
        <ele>57.20000076294</ele>
        <time>2015-06-01T18:50:54Z</time>
      </trkpt>
      <trkpt lat="48.8537" lon="2.34439">
        <ele>57.20000076294</ele>
        <time>2015-06-01T18:50:57Z</time>
      </trkpt>
      <trkpt lat="48.85378" lon="2.34441">
        <ele>56</ele>
        <time>2015-06-01T18:51:19Z</time>
      </trkpt>
      <trkpt lat="48.8539" lon="2.34449">
        <ele>55.79999923706</ele>
        <time>2015-06-01T18:51:23Z</time>
      </trkpt>
      <trkpt lat="48.85406" lon="2.34465">
        <ele>55.400001525879</ele>
        <time>2015-06-01T18:51:28Z</time>
      </trkpt>
      <trkpt lat="48.85418" lon="2.34478">
        <ele>54.599998474121</ele>
        <time>2015-06-01T18:51:32Z</time>
      </trkpt>
      <trkpt lat="48.85435" lon="2.34496">
        <ele>54</ele>
        <time>2015-06-01T18:51:37Z</time>
      </trkpt>
      <trkpt lat="48.85439" lon="2.345">
        <ele>53.79999923706</ele>
        <time>2015-06-01T18:51:38Z</time>
      </trkpt>
      <trkpt lat="48.85452" lon="2.34518">
        <ele>52.599998474121</ele>
        <time>2015-06-01T18:51:43Z</time>
      </trkpt>
      <trkpt lat="48.85464" lon="2.34536">
        <ele>52</ele>
        <time>2015-06-01T18:51:47Z</time>
      </trkpt>
      <trkpt lat="48.8547" lon="2.34545">
        <ele>51.79999923706</ele>
        <time>2015-06-01T18:51:49Z</time>
      </trkpt>
      <trkpt lat="48.85476" lon="2.34553">
        <ele>51.599998474121</ele>
        <time>2015-06-01T18:51:51Z</time>
      </trkpt>
      <trkpt lat="48.85487" lon="2.34575">
        <ele>51.20000076294</ele>
        <time>2015-06-01T18:51:56Z</time>
      </trkpt>
      <trkpt lat="48.85505" lon="2.34591">
        <ele>51.20000076294</ele>
        <time>2015-06-01T18:52:00Z</time>
      </trkpt>
      <trkpt lat="48.85523" lon="2.34602">
        <ele>51</ele>
        <time>2015-06-01T18:52:03Z</time>
      </trkpt>
      <trkpt lat="48.85544" lon="2.34614">
        <ele>51</ele>
        <time>2015-06-01T18:52:07Z</time>
      </trkpt>
      <trkpt lat="48.85548" lon="2.34617">
        <ele>51</ele>
        <time>2015-06-01T18:52:08Z</time>
      </trkpt>
      <trkpt lat="48.85559" lon="2.3462">
        <ele>50.79999923706</ele>
        <time>2015-06-01T18:52:12Z</time>
      </trkpt>
      <trkpt lat="48.85571" lon="2.34626">
        <ele>50.79999923706</ele>
        <time>2015-06-01T18:52:16Z</time>
      </trkpt>
      <trkpt lat="48.85592" lon="2.34645">
        <ele>50.79999923706</ele>
        <time>2015-06-01T18:52:20Z</time>
      </trkpt>
      <trkpt lat="48.85599" lon="2.34651">
        <ele>50.79999923706</ele>
        <time>2015-06-01T18:52:21Z</time>
      </trkpt>
      <trkpt lat="48.85614" lon="2.34662">
        <ele>50.79999923706</ele>
        <time>2015-06-01T18:52:23Z</time>
      </trkpt>
      <trkpt lat="48.85627" lon="2.34672">
        <ele>50.400001525879</ele>
        <time>2015-06-01T18:52:25Z</time>
      </trkpt>
      <trkpt lat="48.85653" lon="2.34686">
        <ele>49.599998474121</ele>
        <time>2015-06-01T18:52:30Z</time>
      </trkpt>
      <trkpt lat="48.85657" lon="2.34688">
        <ele>49.400001525879</ele>
        <time>2015-06-01T18:52:31Z</time>
      </trkpt>
      <trkpt lat="48.8568" lon="2.34703">
        <ele>48</ele>
        <time>2015-06-01T18:52:37Z</time>
      </trkpt>
      <trkpt lat="48.85689" lon="2.34708">
        <ele>47.400001525879</ele>
        <time>2015-06-01T18:52:40Z</time>
      </trkpt>
      <trkpt lat="48.85702" lon="2.34717">
        <ele>46</ele>
        <time>2015-06-01T18:52:45Z</time>
      </trkpt>
      <trkpt lat="48.85703" lon="2.34718">
        <ele>46</ele>
        <time>2015-06-01T18:52:46Z</time>
      </trkpt>
      <trkpt lat="48.85704" lon="2.34725">
        <ele>45.400001525879</ele>
        <time>2015-06-01T18:52:50Z</time>
      </trkpt>
      <trkpt lat="48.85705" lon="2.34726">
        <ele>44.599998474121</ele>
        <time>2015-06-01T18:52:54Z</time>
      </trkpt>
      <trkpt lat="48.85711" lon="2.34734">
        <ele>43.79999923706</ele>
        <time>2015-06-01T18:52:58Z</time>
      </trkpt>
      <trkpt lat="48.85719" lon="2.34747">
        <ele>43.20000076294</ele>
        <time>2015-06-01T18:53:02Z</time>
      </trkpt>
      <trkpt lat="48.85735" lon="2.34764">
        <ele>42.79999923706</ele>
        <time>2015-06-01T18:53:08Z</time>
      </trkpt>
      <trkpt lat="48.85754" lon="2.34775">
        <ele>42.599998474121</ele>
        <time>2015-06-01T18:53:13Z</time>
      </trkpt>
      <trkpt lat="48.85767" lon="2.34787">
        <ele>42.400001525879</ele>
        <time>2015-06-01T18:53:17Z</time>
      </trkpt>
      <trkpt lat="48.85791" lon="2.34793">
        <ele>42.400001525879</ele>
        <time>2015-06-01T18:53:23Z</time>
      </trkpt>
      <trkpt lat="48.85807" lon="2.34803">
        <ele>42.20000076294</ele>
        <time>2015-06-01T18:53:27Z</time>
      </trkpt>
      <trkpt lat="48.85811" lon="2.34806">
        <ele>42.20000076294</ele>
        <time>2015-06-01T18:53:28Z</time>
      </trkpt>
      <trkpt lat="48.85815" lon="2.34809">
        <ele>42.20000076294</ele>
        <time>2015-06-01T18:53:29Z</time>
      </trkpt>
      <trkpt lat="48.8583" lon="2.34814">
        <ele>42.20000076294</ele>
        <time>2015-06-01T18:53:33Z</time>
      </trkpt>
      <trkpt lat="48.85834" lon="2.34815">
        <ele>42.20000076294</ele>
        <time>2015-06-01T18:53:34Z</time>
      </trkpt>
      <trkpt lat="48.85846" lon="2.34821">
        <ele>42.20000076294</ele>
        <time>2015-06-01T18:53:38Z</time>
      </trkpt>
      <trkpt lat="48.85847" lon="2.34825">
        <ele>42.20000076294</ele>
        <time>2015-06-01T18:53:43Z</time>
      </trkpt>
      <trkpt lat="48.85847" lon="2.34824">
        <ele>42.20000076294</ele>
        <time>2015-06-01T18:53:58Z</time>
      </trkpt>
      <trkpt lat="48.85857" lon="2.3483">
        <ele>42.20000076294</ele>
        <time>2015-06-01T18:54:03Z</time>
      </trkpt>
      <trkpt lat="48.8586" lon="2.34832">
        <ele>42.20000076294</ele>
        <time>2015-06-01T18:54:04Z</time>
      </trkpt>
      <trkpt lat="48.85872" lon="2.34841">
        <ele>42.20000076294</ele>
        <time>2015-06-01T18:54:08Z</time>
      </trkpt>
      <trkpt lat="48.85875" lon="2.34843">
        <ele>42.20000076294</ele>
        <time>2015-06-01T18:54:09Z</time>
      </trkpt>
      <trkpt lat="48.85885" lon="2.34848">
        <ele>42.20000076294</ele>
        <time>2015-06-01T18:54:12Z</time>
      </trkpt>
      <trkpt lat="48.85903" lon="2.3486">
        <ele>43</ele>
        <time>2015-06-01T18:54:17Z</time>
      </trkpt>
      <trkpt lat="48.85912" lon="2.34865">
        <ele>43.400001525879</ele>
        <time>2015-06-01T18:54:21Z</time>
      </trkpt>
      <trkpt lat="48.85916" lon="2.34867">
        <ele>43.599998474121</ele>
        <time>2015-06-01T18:54:22Z</time>
      </trkpt>
      <trkpt lat="48.85932" lon="2.34874">
        <ele>44.599998474121</ele>
        <time>2015-06-01T18:54:26Z</time>
      </trkpt>
      <trkpt lat="48.85936" lon="2.34876">
        <ele>44.599998474121</ele>
        <time>2015-06-01T18:54:27Z</time>
      </trkpt>
      <trkpt lat="48.85949" lon="2.34882">
        <ele>45.20000076294</ele>
        <time>2015-06-01T18:54:31Z</time>
      </trkpt>
      <trkpt lat="48.8597" lon="2.34895">
        <ele>46.400001525879</ele>
        <time>2015-06-01T18:54:36Z</time>
      </trkpt>
      <trkpt lat="48.85989" lon="2.34909">
        <ele>47.20000076294</ele>
        <time>2015-06-01T18:54:40Z</time>
      </trkpt>
      <trkpt lat="48.86006" lon="2.34917">
        <ele>47.79999923706</ele>
        <time>2015-06-01T18:54:44Z</time>
      </trkpt>
      <trkpt lat="48.8601" lon="2.3492">
        <ele>48.20000076294</ele>
        <time>2015-06-01T18:54:45Z</time>
      </trkpt>
      <trkpt lat="48.86013" lon="2.34922">
        <ele>48.400001525879</ele>
        <time>2015-06-01T18:54:46Z</time>
      </trkpt>
      <trkpt lat="48.86031" lon="2.34929">
        <ele>49.400001525879</ele>
        <time>2015-06-01T18:54:51Z</time>
      </trkpt>
      <trkpt lat="48.8604" lon="2.34934">
        <ele>50</ele>
        <time>2015-06-01T18:54:53Z</time>
      </trkpt>
      <trkpt lat="48.86057" lon="2.34939">
        <ele>51</ele>
        <time>2015-06-01T18:54:57Z</time>
      </trkpt>
      <trkpt lat="48.86066" lon="2.34942">
        <ele>51.20000076294</ele>
        <time>2015-06-01T18:54:59Z</time>
      </trkpt>
      <trkpt lat="48.86089" lon="2.34956">
        <ele>52.20000076294</ele>
        <time>2015-06-01T18:55:04Z</time>
      </trkpt>
      <trkpt lat="48.86096" lon="2.34961">
        <ele>52.79999923706</ele>
        <time>2015-06-01T18:55:05Z</time>
      </trkpt>
      <trkpt lat="48.86124" lon="2.34973">
        <ele>53.599998474121</ele>
        <time>2015-06-01T18:55:10Z</time>
      </trkpt>
      <trkpt lat="48.86129" lon="2.34977">
        <ele>53.79999923706</ele>
        <time>2015-06-01T18:55:11Z</time>
      </trkpt>
      <trkpt lat="48.86146" lon="2.3499">
        <ele>54.400001525879</ele>
        <time>2015-06-01T18:55:14Z</time>
      </trkpt>
      <trkpt lat="48.8615" lon="2.34995">
        <ele>54.599998474121</ele>
        <time>2015-06-01T18:55:15Z</time>
      </trkpt>
      <trkpt lat="48.86164" lon="2.35003">
        <ele>55.20000076294</ele>
        <time>2015-06-01T18:55:18Z</time>
      </trkpt>
      <trkpt lat="48.8618" lon="2.35016">
        <ele>55.79999923706</ele>
        <time>2015-06-01T18:55:21Z</time>
      </trkpt>
      <trkpt lat="48.86197" lon="2.35024">
        <ele>56.20000076294</ele>
        <time>2015-06-01T18:55:25Z</time>
      </trkpt>
      <trkpt lat="48.86204" lon="2.35024">
        <ele>56.599998474121</ele>
        <time>2015-06-01T18:55:27Z</time>
      </trkpt>
      <trkpt lat="48.86213" lon="2.35031">
        <ele>57.400001525879</ele>
        <time>2015-06-01T18:55:31Z</time>
      </trkpt>
      <trkpt lat="48.86226" lon="2.3504">
        <ele>58</ele>
        <time>2015-06-01T18:55:35Z</time>
      </trkpt>
      <trkpt lat="48.8624" lon="2.35046">
        <ele>58.20000076294</ele>
        <time>2015-06-01T18:55:38Z</time>
      </trkpt>
      <trkpt lat="48.86249" lon="2.3505">
        <ele>58.599998474121</ele>
        <time>2015-06-01T18:55:40Z</time>
      </trkpt>
      <trkpt lat="48.86268" lon="2.35067">
        <ele>59.599998474121</ele>
        <time>2015-06-01T18:55:45Z</time>
      </trkpt>
      <trkpt lat="48.86303" lon="2.35085">
        <ele>60.400001525879</ele>
        <time>2015-06-01T18:55:52Z</time>
      </trkpt>
      <trkpt lat="48.86314" lon="2.35096">
        <ele>60.79999923706</ele>
        <time>2015-06-01T18:55:56Z</time>
      </trkpt>
      <trkpt lat="48.86331" lon="2.35101">
        <ele>61</ele>
        <time>2015-06-01T18:56:02Z</time>
      </trkpt>
      <trkpt lat="48.86332" lon="2.351">
        <ele>61</ele>
        <time>2015-06-01T18:56:03Z</time>
      </trkpt>
      <trkpt lat="48.86332" lon="2.35097">
        <ele>61</ele>
        <time>2015-06-01T18:56:05Z</time>
      </trkpt>
      <trkpt lat="48.86339" lon="2.35098">
        <ele>61</ele>
        <time>2015-06-01T18:56:09Z</time>
      </trkpt>
      <trkpt lat="48.8636" lon="2.35109">
        <ele>61.20000076294</ele>
        <time>2015-06-01T18:56:14Z</time>
      </trkpt>
      <trkpt lat="48.86377" lon="2.35123">
        <ele>61.599998474121</ele>
        <time>2015-06-01T18:56:18Z</time>
      </trkpt>
      <trkpt lat="48.86397" lon="2.35133">
        <ele>62</ele>
        <time>2015-06-01T18:56:22Z</time>
      </trkpt>
      <trkpt lat="48.86416" lon="2.35144">
        <ele>62.400001525879</ele>
        <time>2015-06-01T18:56:26Z</time>
      </trkpt>
      <trkpt lat="48.8642" lon="2.35146">
        <ele>62.599998474121</ele>
        <time>2015-06-01T18:56:27Z</time>
      </trkpt>
      <trkpt lat="48.86437" lon="2.35155">
        <ele>63.400001525879</ele>
        <time>2015-06-01T18:56:31Z</time>
      </trkpt>
      <trkpt lat="48.86448" lon="2.35168">
        <ele>63.79999923706</ele>
        <time>2015-06-01T18:56:34Z</time>
      </trkpt>
      <trkpt lat="48.86453" lon="2.35172">
        <ele>64.199996948242</ele>
        <time>2015-06-01T18:56:36Z</time>
      </trkpt>
      <trkpt lat="48.86455" lon="2.35174">
        <ele>64.599998474121</ele>
        <time>2015-06-01T18:56:40Z</time>
      </trkpt>
      <trkpt lat="48.86456" lon="2.35173">
        <ele>65.199996948242</ele>
        <time>2015-06-01T18:56:44Z</time>
      </trkpt>
      <trkpt lat="48.86457" lon="2.35173">
        <ele>65.400001525879</ele>
        <time>2015-06-01T18:56:45Z</time>
      </trkpt>
      <trkpt lat="48.865" lon="2.35189">
        <ele>68.199996948242</ele>
        <time>2015-06-01T18:56:56Z</time>
      </trkpt>
      <trkpt lat="48.86506" lon="2.35194">
        <ele>68.599998474121</ele>
        <time>2015-06-01T18:56:57Z</time>
      </trkpt>
      <trkpt lat="48.86519" lon="2.35202">
        <ele>69.199996948242</ele>
        <time>2015-06-01T18:56:59Z</time>
      </trkpt>
      <trkpt lat="48.86531" lon="2.35208">
        <ele>69.800003051758</ele>
        <time>2015-06-01T18:57:01Z</time>
      </trkpt>
      <trkpt lat="48.86549" lon="2.35214">
        <ele>70.400001525879</ele>
        <time>2015-06-01T18:57:04Z</time>
      </trkpt>
      <trkpt lat="48.86576" lon="2.3523">
        <ele>71</ele>
        <time>2015-06-01T18:57:09Z</time>
      </trkpt>
      <trkpt lat="48.86595" lon="2.35245">
        <ele>71.599998474121</ele>
        <time>2015-06-01T18:57:13Z</time>
      </trkpt>
      <trkpt lat="48.86607" lon="2.35254">
        <ele>72.199996948242</ele>
        <time>2015-06-01T18:57:16Z</time>
      </trkpt>
      <trkpt lat="48.86618" lon="2.35262">
        <ele>72.800003051758</ele>
        <time>2015-06-01T18:57:20Z</time>
      </trkpt>
      <trkpt lat="48.8662" lon="2.35264">
        <ele>73</ele>
        <time>2015-06-01T18:57:21Z</time>
      </trkpt>
      <trkpt lat="48.86621" lon="2.35267">
        <ele>73</ele>
        <time>2015-06-01T18:57:22Z</time>
      </trkpt>
      <trkpt lat="48.8662" lon="2.35265">
        <ele>73.400001525879</ele>
        <time>2015-06-01T18:57:27Z</time>
      </trkpt>
      <trkpt lat="48.8662" lon="2.35262">
        <ele>73.599998474121</ele>
        <time>2015-06-01T18:57:31Z</time>
      </trkpt>
      <trkpt lat="48.8663" lon="2.35264">
        <ele>73.800003051758</ele>
        <time>2015-06-01T18:57:36Z</time>
      </trkpt>
      <trkpt lat="48.86641" lon="2.35272">
        <ele>73.599998474121</ele>
        <time>2015-06-01T18:57:40Z</time>
      </trkpt>
      <trkpt lat="48.86656" lon="2.35278">
        <ele>73</ele>
        <time>2015-06-01T18:57:44Z</time>
      </trkpt>
      <trkpt lat="48.86674" lon="2.35288">
        <ele>72.599998474121</ele>
        <time>2015-06-01T18:57:48Z</time>
      </trkpt>
      <trkpt lat="48.86688" lon="2.35297">
        <ele>72.400001525879</ele>
        <time>2015-06-01T18:57:52Z</time>
      </trkpt>
      <trkpt lat="48.86703" lon="2.35305">
        <ele>72.400001525879</ele>
        <time>2015-06-01T18:57:54Z</time>
      </trkpt>
      <trkpt lat="48.86738" lon="2.35328">
        <ele>72.199996948242</ele>
        <time>2015-06-01T18:58:01Z</time>
      </trkpt>
      <trkpt lat="48.86757" lon="2.35341">
        <ele>72.199996948242</ele>
        <time>2015-06-01T18:58:05Z</time>
      </trkpt>
      <trkpt lat="48.86761" lon="2.35344">
        <ele>72.199996948242</ele>
        <time>2015-06-01T18:58:06Z</time>
      </trkpt>
      <trkpt lat="48.86779" lon="2.35356">
        <ele>72</ele>
        <time>2015-06-01T18:58:11Z</time>
      </trkpt>
      <trkpt lat="48.86786" lon="2.35361">
        <ele>72.400001525879</ele>
        <time>2015-06-01T18:58:13Z</time>
      </trkpt>
      <trkpt lat="48.86793" lon="2.35363">
        <ele>72.800003051758</ele>
        <time>2015-06-01T18:58:15Z</time>
      </trkpt>
      <trkpt lat="48.86806" lon="2.35368">
        <ele>73.199996948242</ele>
        <time>2015-06-01T18:58:18Z</time>
      </trkpt>
      <trkpt lat="48.86816" lon="2.35376">
        <ele>73.199996948242</ele>
        <time>2015-06-01T18:58:20Z</time>
      </trkpt>
      <trkpt lat="48.86835" lon="2.35387">
        <ele>73.599998474121</ele>
        <time>2015-06-01T18:58:24Z</time>
      </trkpt>
      <trkpt lat="48.86855" lon="2.35392">
        <ele>73.800003051758</ele>
        <time>2015-06-01T18:58:29Z</time>
      </trkpt>
      <trkpt lat="48.86868" lon="2.35396">
        <ele>73.800003051758</ele>
        <time>2015-06-01T18:58:33Z</time>
      </trkpt>
      <trkpt lat="48.86871" lon="2.35397">
        <ele>73.800003051758</ele>
        <time>2015-06-01T18:58:34Z</time>
      </trkpt>
      <trkpt lat="48.86895" lon="2.35404">
        <ele>74</ele>
        <time>2015-06-01T18:58:41Z</time>
      </trkpt>
      <trkpt lat="48.86911" lon="2.35417">
        <ele>74</ele>
        <time>2015-06-01T18:58:47Z</time>
      </trkpt>
      <trkpt lat="48.86914" lon="2.35418">
        <ele>74</ele>
        <time>2015-06-01T18:58:51Z</time>
      </trkpt>
      <trkpt lat="48.86911" lon="2.35416">
        <ele>74</ele>
        <time>2015-06-01T18:58:54Z</time>
      </trkpt>
      <trkpt lat="48.86905" lon="2.35412">
        <ele>74</ele>
        <time>2015-06-01T18:59:00Z</time>
      </trkpt>
      <trkpt lat="48.86904" lon="2.3541">
        <ele>73.800003051758</ele>
        <time>2015-06-01T18:59:02Z</time>
      </trkpt>
      <trkpt lat="48.86901" lon="2.35397">
        <ele>73.400001525879</ele>
        <time>2015-06-01T18:59:05Z</time>
      </trkpt>
      <trkpt lat="48.86904" lon="2.35364">
        <ele>72.599998474121</ele>
        <time>2015-06-01T18:59:12Z</time>
      </trkpt>
      <trkpt lat="48.86907" lon="2.35337">
        <ele>72</ele>
        <time>2015-06-01T18:59:17Z</time>
      </trkpt>
      <trkpt lat="48.86912" lon="2.35323">
        <ele>71.400001525879</ele>
        <time>2015-06-01T18:59:20Z</time>
      </trkpt>
      <trkpt lat="48.8691" lon="2.35296">
        <ele>70.599998474121</ele>
        <time>2015-06-01T18:59:25Z</time>
      </trkpt>
      <trkpt lat="48.86911" lon="2.35274">
        <ele>69.599998474121</ele>
        <time>2015-06-01T18:59:29Z</time>
      </trkpt>
      <trkpt lat="48.86916" lon="2.35247">
        <ele>68</ele>
        <time>2015-06-01T18:59:35Z</time>
      </trkpt>
      <trkpt lat="48.86927" lon="2.3524">
        <ele>67.199996948242</ele>
        <time>2015-06-01T18:59:39Z</time>
      </trkpt>
      <trkpt lat="48.86929" lon="2.35241">
        <ele>67</ele>
        <time>2015-06-01T18:59:40Z</time>
      </trkpt>
      <trkpt lat="48.86929" lon="2.35231">
        <ele>66.599998474121</ele>
        <time>2015-06-01T18:59:44Z</time>
      </trkpt>
      <trkpt lat="48.86928" lon="2.35228">
        <ele>66.400001525879</ele>
        <time>2015-06-01T18:59:45Z</time>
      </trkpt>
      <trkpt lat="48.86922" lon="2.35213">
        <ele>66</ele>
        <time>2015-06-01T18:59:51Z</time>
      </trkpt>
      <trkpt lat="48.86918" lon="2.35201">
        <ele>66.199996948242</ele>
        <time>2015-06-01T18:59:55Z</time>
      </trkpt>
      <trkpt lat="48.86912" lon="2.3518">
        <ele>67</ele>
        <time>2015-06-01T19:00:01Z</time>
      </trkpt>
      <trkpt lat="48.86909" lon="2.35174">
        <ele>67.400001525879</ele>
        <time>2015-06-01T19:00:03Z</time>
      </trkpt>
      <trkpt lat="48.8691" lon="2.35172">
        <ele>68.400001525879</ele>
        <time>2015-06-01T19:00:08Z</time>
      </trkpt>
      <trkpt lat="48.86919" lon="2.35161">
        <ele>69</ele>
        <time>2015-06-01T19:00:15Z</time>
      </trkpt>
      <trkpt lat="48.86926" lon="2.35154">
        <ele>69.199996948242</ele>
        <time>2015-06-01T19:00:19Z</time>
      </trkpt>
      <trkpt lat="48.86927" lon="2.35152">
        <ele>69.400001525879</ele>
        <time>2015-06-01T19:00:20Z</time>
      </trkpt>
      <trkpt lat="48.86935" lon="2.35148">
        <ele>69.599998474121</ele>
        <time>2015-06-01T19:00:26Z</time>
      </trkpt>
      <trkpt lat="48.86947" lon="2.35143">
        <ele>69.599998474121</ele>
        <time>2015-06-01T19:00:31Z</time>
      </trkpt>
      <trkpt lat="48.86949" lon="2.35141">
        <ele>69.599998474121</ele>
        <time>2015-06-01T19:00:32Z</time>
      </trkpt>
      <trkpt lat="48.86949" lon="2.35137">
        <ele>69.599998474121</ele>
        <time>2015-06-01T19:00:33Z</time>
      </trkpt>
      <trkpt lat="48.86951" lon="2.35134">
        <ele>69.599998474121</ele>
        <time>2015-06-01T19:00:34Z</time>
      </trkpt>
      <trkpt lat="48.86951" lon="2.35116">
        <ele>69.599998474121</ele>
        <time>2015-06-01T19:00:40Z</time>
      </trkpt>
      <trkpt lat="48.86951" lon="2.35105">
        <ele>69.800003051758</ele>
        <time>2015-06-01T19:00:44Z</time>
      </trkpt>
      <trkpt lat="48.86951" lon="2.35098">
        <ele>69.800003051758</ele>
        <time>2015-06-01T19:00:47Z</time>
      </trkpt>
      <trkpt lat="48.8695" lon="2.35095">
        <ele>69.800003051758</ele>
        <time>2015-06-01T19:00:49Z</time>
      </trkpt>
      <trkpt lat="48.86948" lon="2.35075">
        <ele>69.800003051758</ele>
        <time>2015-06-01T19:00:54Z</time>
      </trkpt>
      <trkpt lat="48.86946" lon="2.35071">
        <ele>69.800003051758</ele>
        <time>2015-06-01T19:00:55Z</time>
      </trkpt>
      <trkpt lat="48.86941" lon="2.35046">
        <ele>69.599998474121</ele>
        <time>2015-06-01T19:01:00Z</time>
      </trkpt>
      <trkpt lat="48.86941" lon="2.35044">
        <ele>69.400001525879</ele>
        <time>2015-06-01T19:01:01Z</time>
      </trkpt>
      <trkpt lat="48.86938" lon="2.35028">
        <ele>68.599998474121</ele>
        <time>2015-06-01T19:01:07Z</time>
      </trkpt>
      <trkpt lat="48.86936" lon="2.35021">
        <ele>68.400001525879</ele>
        <time>2015-06-01T19:01:09Z</time>
      </trkpt>
      <trkpt lat="48.86934" lon="2.35007">
        <ele>68.199996948242</ele>
        <time>2015-06-01T19:01:12Z</time>
      </trkpt>
      <trkpt lat="48.86932" lon="2.35">
        <ele>67.800003051758</ele>
        <time>2015-06-01T19:01:14Z</time>
      </trkpt>
      <trkpt lat="48.86936" lon="2.34997">
        <ele>67</ele>
        <time>2015-06-01T19:01:18Z</time>
      </trkpt>
      <trkpt lat="48.86937" lon="2.34997">
        <ele>66.800003051758</ele>
        <time>2015-06-01T19:01:19Z</time>
      </trkpt>
      <trkpt lat="48.86939" lon="2.34997">
        <ele>66.599998474121</ele>
        <time>2015-06-01T19:01:20Z</time>
      </trkpt>
      <trkpt lat="48.86949" lon="2.34999">
        <ele>66</ele>
        <time>2015-06-01T19:01:26Z</time>
      </trkpt>
      <trkpt lat="48.86957" lon="2.34998">
        <ele>65.800003051758</ele>
        <time>2015-06-01T19:01:29Z</time>
      </trkpt>
      <trkpt lat="48.86964" lon="2.34997">
        <ele>65.800003051758</ele>
        <time>2015-06-01T19:01:31Z</time>
      </trkpt>
      <trkpt lat="48.86972" lon="2.35004">
        <ele>65.599998474121</ele>
        <time>2015-06-01T19:01:35Z</time>
      </trkpt>
      <trkpt lat="48.86973" lon="2.35005">
        <ele>65.599998474121</ele>
        <time>2015-06-01T19:01:36Z</time>
      </trkpt>
      <trkpt lat="48.86974" lon="2.35008">
        <ele>65.400001525879</ele>
        <time>2015-06-01T19:01:42Z</time>
      </trkpt>
      <trkpt lat="48.86975" lon="2.35008">
        <ele>65.400001525879</ele>
        <time>2015-06-01T19:01:43Z</time>
      </trkpt>
      <trkpt lat="48.86978" lon="2.35008">
        <ele>65.400001525879</ele>
        <time>2015-06-01T19:01:48Z</time>
      </trkpt>
      <trkpt lat="48.86979" lon="2.35002">
        <ele>65.400001525879</ele>
        <time>2015-06-01T19:01:58Z</time>
      </trkpt>
      <trkpt lat="48.86979" lon="2.34998">
        <ele>65.400001525879</ele>
        <time>2015-06-01T19:02:07Z</time>
      </trkpt>
      <trkpt lat="48.86981" lon="2.34997">
        <ele>65.400001525879</ele>
        <time>2015-06-01T19:02:17Z</time>
      </trkpt>
      <trkpt lat="48.8698" lon="2.34995">
        <ele>65.400001525879</ele>
        <time>2015-06-01T19:02:30Z</time>
      </trkpt>
      <trkpt lat="48.8698" lon="2.34995">
        <ele>65.400001525879</ele>
        <time>2015-06-01T19:02:32Z</time>
      </trkpt>
      <trkpt lat="48.86982" lon="2.34995">
        <ele>65.400001525879</ele>
        <time>2015-06-01T19:02:38Z</time>
      </trkpt>
      <trkpt lat="48.86987" lon="2.35">
        <ele>67.400001525879</ele>
        <time>2015-06-01T19:03:33Z</time>
      </trkpt>
      <trkpt lat="48.86984" lon="2.34998">
        <ele>67.400001525879</ele>
        <time>2015-06-01T19:03:40Z</time>
      </trkpt>
      <trkpt lat="48.86981" lon="2.34998">
        <ele>67.400001525879</ele>
        <time>2015-06-01T19:04:01Z</time>
      </trkpt>
      <trkpt lat="48.86981" lon="2.34996">
        <ele>65.599998474121</ele>
        <time>2015-06-01T19:04:39Z</time>
      </trkpt>
      <trkpt lat="48.86979" lon="2.34995">
        <ele>65.400001525879</ele>
        <time>2015-06-01T19:04:52Z</time>
      </trkpt>
      <trkpt lat="48.86979" lon="2.34998">
        <ele>65.199996948242</ele>
        <time>2015-06-01T19:05:13Z</time>
      </trkpt>
      <trkpt lat="48.86976" lon="2.34993">
        <ele>65.199996948242</ele>
        <time>2015-06-01T19:05:22Z</time>
      </trkpt>
      <trkpt lat="48.86975" lon="2.34994">
        <ele>65.199996948242</ele>
        <time>2015-06-01T19:05:29Z</time>
      </trkpt>
      <trkpt lat="48.86978" lon="2.34997">
        <ele>65.199996948242</ele>
        <time>2015-06-01T19:05:47Z</time>
      </trkpt>
      <trkpt lat="48.86976" lon="2.34999">
        <ele>65.199996948242</ele>
        <time>2015-06-01T19:06:04Z</time>
      </trkpt>
      <trkpt lat="48.86976" lon="2.34994">
        <ele>65.199996948242</ele>
        <time>2015-06-01T19:06:12Z</time>
      </trkpt>
      <trkpt lat="48.86978" lon="2.34998">
        <ele>65.199996948242</ele>
        <time>2015-06-01T19:06:35Z</time>
      </trkpt>
      <trkpt lat="48.86977" lon="2.34998">
        <ele>66</ele>
        <time>2015-06-01T19:06:53Z</time>
      </trkpt>
      <trkpt lat="48.86974" lon="2.34996">
        <ele>71.400001525879</ele>
        <time>2015-06-01T19:08:04Z</time>
      </trkpt>
      <trkpt lat="48.86978" lon="2.34997">
        <ele>69.599998474121</ele>
        <time>2015-06-01T19:09:04Z</time>
      </trkpt>
      <trkpt lat="48.86979" lon="2.34997">
        <ele>69.599998474121</ele>
        <time>2015-06-01T19:09:14Z</time>
      </trkpt>
      <trkpt lat="48.86979" lon="2.34996">
        <ele>69.400001525879</ele>
        <time>2015-06-01T19:09:30Z</time>
      </trkpt>
      <trkpt lat="48.86976" lon="2.34997">
        <ele>71.199996948242</ele>
        <time>2015-06-01T19:09:54Z</time>
      </trkpt>
      <trkpt lat="48.86977" lon="2.34997">
        <ele>71.400001525879</ele>
        <time>2015-06-01T19:10:02Z</time>
      </trkpt>
      <trkpt lat="48.86975" lon="2.34997">
        <ele>73.199996948242</ele>
        <time>2015-06-01T19:10:26Z</time>
      </trkpt>
      <trkpt lat="48.86975" lon="2.34999">
        <ele>73.400001525879</ele>
        <time>2015-06-01T19:10:34Z</time>
      </trkpt>
      <trkpt lat="48.86977" lon="2.35002">
        <ele>75.199996948242</ele>
        <time>2015-06-01T19:10:52Z</time>
      </trkpt>
      <trkpt lat="48.86973" lon="2.35002">
        <ele>75.400001525879</ele>
        <time>2015-06-01T19:11:02Z</time>
      </trkpt>
      <trkpt lat="48.86975" lon="2.35004">
        <ele>75.400001525879</ele>
        <time>2015-06-01T19:11:08Z</time>
      </trkpt>
      <trkpt lat="48.8698" lon="2.35011">
        <ele>75.400001525879</ele>
        <time>2015-06-01T19:11:13Z</time>
      </trkpt>
      <trkpt lat="48.86983" lon="2.35009">
        <ele>75.400001525879</ele>
        <time>2015-06-01T19:11:19Z</time>
      </trkpt>
      <trkpt lat="48.86984" lon="2.35009">
        <ele>75.400001525879</ele>
        <time>2015-06-01T19:11:20Z</time>
      </trkpt>
      <trkpt lat="48.86989" lon="2.35008">
        <ele>75.400001525879</ele>
        <time>2015-06-01T19:11:25Z</time>
      </trkpt>
      <trkpt lat="48.86991" lon="2.35008">
        <ele>75.400001525879</ele>
        <time>2015-06-01T19:11:26Z</time>
      </trkpt>
      <trkpt lat="48.86998" lon="2.35001">
        <ele>75.400001525879</ele>
        <time>2015-06-01T19:11:32Z</time>
      </trkpt>
      <trkpt lat="48.86998" lon="2.34998">
        <ele>75.400001525879</ele>
        <time>2015-06-01T19:11:34Z</time>
      </trkpt>
      <trkpt lat="48.87" lon="2.34997">
        <ele>75.400001525879</ele>
        <time>2015-06-01T19:11:35Z</time>
      </trkpt>
      <trkpt lat="48.87003" lon="2.34994">
        <ele>75.400001525879</ele>
        <time>2015-06-01T19:11:37Z</time>
      </trkpt>
      <trkpt lat="48.87008" lon="2.34993">
        <ele>75.599998474121</ele>
        <time>2015-06-01T19:11:44Z</time>
      </trkpt>
      <trkpt lat="48.87005" lon="2.34991">
        <ele>76.599998474121</ele>
        <time>2015-06-01T19:11:50Z</time>
      </trkpt>
      <trkpt lat="48.87004" lon="2.34992">
        <ele>77.199996948242</ele>
        <time>2015-06-01T19:12:03Z</time>
      </trkpt>
      <trkpt lat="48.87009" lon="2.34994">
        <ele>77.400001525879</ele>
        <time>2015-06-01T19:12:08Z</time>
      </trkpt>
      <trkpt lat="48.87007" lon="2.34992">
        <ele>77.400001525879</ele>
        <time>2015-06-01T19:12:09Z</time>
      </trkpt>
      <trkpt lat="48.87004" lon="2.3499">
        <ele>77.400001525879</ele>
        <time>2015-06-01T19:12:13Z</time>
      </trkpt>
      <trkpt lat="48.87002" lon="2.34982">
        <ele>77.400001525879</ele>
        <time>2015-06-01T19:12:28Z</time>
      </trkpt>
      <trkpt lat="48.86998" lon="2.34975">
        <ele>77.400001525879</ele>
        <time>2015-06-01T19:12:32Z</time>
      </trkpt>
      <trkpt lat="48.86996" lon="2.34973">
        <ele>77.400001525879</ele>
        <time>2015-06-01T19:12:34Z</time>
      </trkpt>
      <trkpt lat="48.86993" lon="2.34977">
        <ele>76.400001525879</ele>
        <time>2015-06-01T19:12:43Z</time>
      </trkpt>
      <trkpt lat="48.86993" lon="2.34979">
        <ele>76</ele>
        <time>2015-06-01T19:12:49Z</time>
      </trkpt>
      <trkpt lat="48.86995" lon="2.34981">
        <ele>75.800003051758</ele>
        <time>2015-06-01T19:12:52Z</time>
      </trkpt>
      <trkpt lat="48.86996" lon="2.34985">
        <ele>74.800003051758</ele>
        <time>2015-06-01T19:12:59Z</time>
      </trkpt>
      <trkpt lat="48.87006" lon="2.34986">
        <ele>73.800003051758</ele>
        <time>2015-06-01T19:13:11Z</time>
      </trkpt>
      <trkpt lat="48.87007" lon="2.34986">
        <ele>73.800003051758</ele>
        <time>2015-06-01T19:13:12Z</time>
      </trkpt>
      <trkpt lat="48.87008" lon="2.34985">
        <ele>73.599998474121</ele>
        <time>2015-06-01T19:13:17Z</time>
      </trkpt>
      <trkpt lat="48.86998" lon="2.34982">
        <ele>73.599998474121</ele>
        <time>2015-06-01T19:13:26Z</time>
      </trkpt>
      <trkpt lat="48.86993" lon="2.34979">
        <ele>73.599998474121</ele>
        <time>2015-06-01T19:13:29Z</time>
      </trkpt>
      <trkpt lat="48.86987" lon="2.34977">
        <ele>73.599998474121</ele>
        <time>2015-06-01T19:13:35Z</time>
      </trkpt>
      <trkpt lat="48.86986" lon="2.34978">
        <ele>73.599998474121</ele>
        <time>2015-06-01T19:13:36Z</time>
      </trkpt>
      <trkpt lat="48.86983" lon="2.3498">
        <ele>73.400001525879</ele>
        <time>2015-06-01T19:13:40Z</time>
      </trkpt>
      <trkpt lat="48.8698" lon="2.34978">
        <ele>74.400001525879</ele>
        <time>2015-06-01T19:13:46Z</time>
      </trkpt>
      <trkpt lat="48.86982" lon="2.34977">
        <ele>74.800003051758</ele>
        <time>2015-06-01T19:13:50Z</time>
      </trkpt>
      <trkpt lat="48.86986" lon="2.34975">
        <ele>75</ele>
        <time>2015-06-01T19:13:54Z</time>
      </trkpt>
      <trkpt lat="48.86987" lon="2.34977">
        <ele>75</ele>
        <time>2015-06-01T19:13:55Z</time>
      </trkpt>
      <trkpt lat="48.86988" lon="2.34977">
        <ele>75</ele>
        <time>2015-06-01T19:13:56Z</time>
      </trkpt>
      <trkpt lat="48.86986" lon="2.34979">
        <ele>75.199996948242</ele>
        <time>2015-06-01T19:13:59Z</time>
      </trkpt>
      <trkpt lat="48.86986" lon="2.34998">
        <ele>75.400001525879</ele>
        <time>2015-06-01T19:14:13Z</time>
      </trkpt>
      <trkpt lat="48.86986" lon="2.35004">
        <ele>75.400001525879</ele>
        <time>2015-06-01T19:14:18Z</time>
      </trkpt>
      <trkpt lat="48.86982" lon="2.35005">
        <ele>76.800003051758</ele>
        <time>2015-06-01T19:14:27Z</time>
      </trkpt>
      <trkpt lat="48.86979" lon="2.35004">
        <ele>77</ele>
        <time>2015-06-01T19:14:31Z</time>
      </trkpt>
      <trkpt lat="48.86978" lon="2.35005">
        <ele>77.199996948242</ele>
        <time>2015-06-01T19:14:36Z</time>
      </trkpt>
      <trkpt lat="48.86978" lon="2.35008">
        <ele>77.400001525879</ele>
        <time>2015-06-01T19:14:37Z</time>
      </trkpt>
      <trkpt lat="48.86976" lon="2.35024">
        <ele>77.400001525879</ele>
        <time>2015-06-01T19:14:43Z</time>
      </trkpt>
      <trkpt lat="48.86977" lon="2.35048">
        <ele>77.599998474121</ele>
        <time>2015-06-01T19:14:50Z</time>
      </trkpt>
      <trkpt lat="48.86979" lon="2.35077">
        <ele>77.599998474121</ele>
        <time>2015-06-01T19:14:56Z</time>
      </trkpt>
      <trkpt lat="48.86981" lon="2.35107">
        <ele>76.800003051758</ele>
        <time>2015-06-01T19:15:01Z</time>
      </trkpt>
      <trkpt lat="48.86982" lon="2.35119">
        <ele>76.400001525879</ele>
        <time>2015-06-01T19:15:04Z</time>
      </trkpt>
      <trkpt lat="48.86982" lon="2.35125">
        <ele>76.199996948242</ele>
        <time>2015-06-01T19:15:06Z</time>
      </trkpt>
      <trkpt lat="48.8699" lon="2.35148">
        <ele>76</ele>
        <time>2015-06-01T19:15:11Z</time>
      </trkpt>
      <trkpt lat="48.86999" lon="2.35161">
        <ele>75.199996948242</ele>
        <time>2015-06-01T19:15:15Z</time>
      </trkpt>
      <trkpt lat="48.87" lon="2.35165">
        <ele>75</ele>
        <time>2015-06-01T19:15:16Z</time>
      </trkpt>
      <trkpt lat="48.87" lon="2.35189">
        <ele>74</ele>
        <time>2015-06-01T19:15:21Z</time>
      </trkpt>
      <trkpt lat="48.86994" lon="2.35217">
        <ele>72.599998474121</ele>
        <time>2015-06-01T19:15:27Z</time>
      </trkpt>
      <trkpt lat="48.86992" lon="2.35239">
        <ele>71.199996948242</ele>
        <time>2015-06-01T19:15:32Z</time>
      </trkpt>
      <trkpt lat="48.86991" lon="2.35243">
        <ele>69.199996948242</ele>
        <time>2015-06-01T19:15:38Z</time>
      </trkpt>
      <trkpt lat="48.86987" lon="2.35248">
        <ele>68.199996948242</ele>
        <time>2015-06-01T19:15:41Z</time>
      </trkpt>
      <trkpt lat="48.8697" lon="2.35253">
        <ele>65.800003051758</ele>
        <time>2015-06-01T19:15:47Z</time>
      </trkpt>
      <trkpt lat="48.86952" lon="2.35244">
        <ele>63.79999923706</ele>
        <time>2015-06-01T19:15:52Z</time>
      </trkpt>
      <trkpt lat="48.86934" lon="2.35265">
        <ele>59.20000076294</ele>
        <time>2015-06-01T19:16:03Z</time>
      </trkpt>
      <trkpt lat="48.86929" lon="2.35285">
        <ele>58.20000076294</ele>
        <time>2015-06-01T19:16:07Z</time>
      </trkpt>
      <trkpt lat="48.86924" lon="2.35303">
        <ele>57.20000076294</ele>
        <time>2015-06-01T19:16:11Z</time>
      </trkpt>
      <trkpt lat="48.8692" lon="2.35326">
        <ele>56</ele>
        <time>2015-06-01T19:16:16Z</time>
      </trkpt>
      <trkpt lat="48.86916" lon="2.35349">
        <ele>55.20000076294</ele>
        <time>2015-06-01T19:16:21Z</time>
      </trkpt>
      <trkpt lat="48.86908" lon="2.35375">
        <ele>54.599998474121</ele>
        <time>2015-06-01T19:16:27Z</time>
      </trkpt>
      <trkpt lat="48.86902" lon="2.35392">
        <ele>53.599998474121</ele>
        <time>2015-06-01T19:16:33Z</time>
      </trkpt>
      <trkpt lat="48.86899" lon="2.35397">
        <ele>53.20000076294</ele>
        <time>2015-06-01T19:16:36Z</time>
      </trkpt>
      <trkpt lat="48.86896" lon="2.35404">
        <ele>52.79999923706</ele>
        <time>2015-06-01T19:16:39Z</time>
      </trkpt>
      <trkpt lat="48.86887" lon="2.35415">
        <ele>52.400001525879</ele>
        <time>2015-06-01T19:16:45Z</time>
      </trkpt>
      <trkpt lat="48.86888" lon="2.35417">
        <ele>52.400001525879</ele>
        <time>2015-06-01T19:16:46Z</time>
      </trkpt>
      <trkpt lat="48.8689" lon="2.35438">
        <ele>52.20000076294</ele>
        <time>2015-06-01T19:16:53Z</time>
      </trkpt>
      <trkpt lat="48.8689" lon="2.35442">
        <ele>52</ele>
        <time>2015-06-01T19:16:54Z</time>
      </trkpt>
      <trkpt lat="48.86889" lon="2.3545">
        <ele>52</ele>
        <time>2015-06-01T19:16:57Z</time>
      </trkpt>
      <trkpt lat="48.86889" lon="2.35474">
        <ele>52</ele>
        <time>2015-06-01T19:17:03Z</time>
      </trkpt>
      <trkpt lat="48.86887" lon="2.35486">
        <ele>52</ele>
        <time>2015-06-01T19:17:06Z</time>
      </trkpt>
      <trkpt lat="48.8688" lon="2.35512">
        <ele>52</ele>
        <time>2015-06-01T19:17:12Z</time>
      </trkpt>
      <trkpt lat="48.86875" lon="2.35529">
        <ele>52</ele>
        <time>2015-06-01T19:17:17Z</time>
      </trkpt>
      <trkpt lat="48.86875" lon="2.35532">
        <ele>52</ele>
        <time>2015-06-01T19:17:18Z</time>
      </trkpt>
      <trkpt lat="48.86872" lon="2.3554">
        <ele>52</ele>
        <time>2015-06-01T19:17:23Z</time>
      </trkpt>
      <trkpt lat="48.86872" lon="2.3554">
        <ele>52</ele>
        <time>2015-06-01T19:17:24Z</time>
      </trkpt>
      <trkpt lat="48.86864" lon="2.35541">
        <ele>53.400001525879</ele>
        <time>2015-06-01T19:17:37Z</time>
      </trkpt>
      <trkpt lat="48.86851" lon="2.35534">
        <ele>54.20000076294</ele>
        <time>2015-06-01T19:17:44Z</time>
      </trkpt>
      <trkpt lat="48.86822" lon="2.35518">
        <ele>56</ele>
        <time>2015-06-01T19:17:54Z</time>
      </trkpt>
      <trkpt lat="48.86802" lon="2.35509">
        <ele>57</ele>
        <time>2015-06-01T19:18:00Z</time>
      </trkpt>
      <trkpt lat="48.86784" lon="2.355">
        <ele>58</ele>
        <time>2015-06-01T19:18:05Z</time>
      </trkpt>
      <trkpt lat="48.86765" lon="2.35488">
        <ele>58.79999923706</ele>
        <time>2015-06-01T19:18:10Z</time>
      </trkpt>
      <trkpt lat="48.86746" lon="2.35475">
        <ele>59.400001525879</ele>
        <time>2015-06-01T19:18:15Z</time>
      </trkpt>
      <trkpt lat="48.86728" lon="2.35462">
        <ele>59.599998474121</ele>
        <time>2015-06-01T19:18:20Z</time>
      </trkpt>
      <trkpt lat="48.86709" lon="2.35448">
        <ele>59.79999923706</ele>
        <time>2015-06-01T19:18:25Z</time>
      </trkpt>
      <trkpt lat="48.86691" lon="2.35436">
        <ele>60</ele>
        <time>2015-06-01T19:18:30Z</time>
      </trkpt>
      <trkpt lat="48.8667" lon="2.35424">
        <ele>59</ele>
        <time>2015-06-01T19:18:36Z</time>
      </trkpt>
      <trkpt lat="48.86653" lon="2.35413">
        <ele>58.20000076294</ele>
        <time>2015-06-01T19:18:40Z</time>
      </trkpt>
      <trkpt lat="48.86635" lon="2.35402">
        <ele>57.20000076294</ele>
        <time>2015-06-01T19:18:46Z</time>
      </trkpt>
      <trkpt lat="48.86618" lon="2.35393">
        <ele>56</ele>
        <time>2015-06-01T19:18:51Z</time>
      </trkpt>
      <trkpt lat="48.86614" lon="2.35391">
        <ele>55.400001525879</ele>
        <time>2015-06-01T19:18:54Z</time>
      </trkpt>
      <trkpt lat="48.86608" lon="2.35391">
        <ele>54.400001525879</ele>
        <time>2015-06-01T19:19:01Z</time>
      </trkpt>
      <trkpt lat="48.86605" lon="2.35391">
        <ele>54.400001525879</ele>
        <time>2015-06-01T19:19:05Z</time>
      </trkpt>
      <trkpt lat="48.86599" lon="2.35394">
        <ele>55</ele>
        <time>2015-06-01T19:19:11Z</time>
      </trkpt>
      <trkpt lat="48.86591" lon="2.35397">
        <ele>55.79999923706</ele>
        <time>2015-06-01T19:19:15Z</time>
      </trkpt>
      <trkpt lat="48.86588" lon="2.35405">
        <ele>56.20000076294</ele>
        <time>2015-06-01T19:19:17Z</time>
      </trkpt>
      <trkpt lat="48.86591" lon="2.35418">
        <ele>56.79999923706</ele>
        <time>2015-06-01T19:19:20Z</time>
      </trkpt>
      <trkpt lat="48.86589" lon="2.35436">
        <ele>57.20000076294</ele>
        <time>2015-06-01T19:19:24Z</time>
      </trkpt>
      <trkpt lat="48.86584" lon="2.35459">
        <ele>58.20000076294</ele>
        <time>2015-06-01T19:19:29Z</time>
      </trkpt>
      <trkpt lat="48.86584" lon="2.35466">
        <ele>58.599998474121</ele>
        <time>2015-06-01T19:19:31Z</time>
      </trkpt>
      <trkpt lat="48.86587" lon="2.35488">
        <ele>59.20000076294</ele>
        <time>2015-06-01T19:19:36Z</time>
      </trkpt>
      <trkpt lat="48.86585" lon="2.3551">
        <ele>59.400001525879</ele>
        <time>2015-06-01T19:19:41Z</time>
      </trkpt>
      <trkpt lat="48.86585" lon="2.35534">
        <ele>59.599998474121</ele>
        <time>2015-06-01T19:19:46Z</time>
      </trkpt>
      <trkpt lat="48.86576" lon="2.35561">
        <ele>59.599998474121</ele>
        <time>2015-06-01T19:19:52Z</time>
      </trkpt>
      <trkpt lat="48.86566" lon="2.35583">
        <ele>58.79999923706</ele>
        <time>2015-06-01T19:19:58Z</time>
      </trkpt>
      <trkpt lat="48.86559" lon="2.35607">
        <ele>57.400001525879</ele>
        <time>2015-06-01T19:20:04Z</time>
      </trkpt>
      <trkpt lat="48.86554" lon="2.3563">
        <ele>56.400001525879</ele>
        <time>2015-06-01T19:20:09Z</time>
      </trkpt>
      <trkpt lat="48.86552" lon="2.35651">
        <ele>55.400001525879</ele>
        <time>2015-06-01T19:20:13Z</time>
      </trkpt>
      <trkpt lat="48.86548" lon="2.35672">
        <ele>54.79999923706</ele>
        <time>2015-06-01T19:20:17Z</time>
      </trkpt>
      <trkpt lat="48.86548" lon="2.35693">
        <ele>54.400001525879</ele>
        <time>2015-06-01T19:20:21Z</time>
      </trkpt>
      <trkpt lat="48.86543" lon="2.35716">
        <ele>54.20000076294</ele>
        <time>2015-06-01T19:20:25Z</time>
      </trkpt>
      <trkpt lat="48.86535" lon="2.35744">
        <ele>53.79999923706</ele>
        <time>2015-06-01T19:20:30Z</time>
      </trkpt>
      <trkpt lat="48.86531" lon="2.35772">
        <ele>52.79999923706</ele>
        <time>2015-06-01T19:20:35Z</time>
      </trkpt>
      <trkpt lat="48.86527" lon="2.358">
        <ele>52.400001525879</ele>
        <time>2015-06-01T19:20:40Z</time>
      </trkpt>
      <trkpt lat="48.8652" lon="2.35826">
        <ele>52</ele>
        <time>2015-06-01T19:20:45Z</time>
      </trkpt>
      <trkpt lat="48.86515" lon="2.35855">
        <ele>51.79999923706</ele>
        <time>2015-06-01T19:20:51Z</time>
      </trkpt>
      <trkpt lat="48.86509" lon="2.35882">
        <ele>51.79999923706</ele>
        <time>2015-06-01T19:20:56Z</time>
      </trkpt>
      <trkpt lat="48.86499" lon="2.35911">
        <ele>51.599998474121</ele>
        <time>2015-06-01T19:21:01Z</time>
      </trkpt>
      <trkpt lat="48.86491" lon="2.35936">
        <ele>51.599998474121</ele>
        <time>2015-06-01T19:21:05Z</time>
      </trkpt>
      <trkpt lat="48.86488" lon="2.35943">
        <ele>51.599998474121</ele>
        <time>2015-06-01T19:21:06Z</time>
      </trkpt>
      <trkpt lat="48.86494" lon="2.35981">
        <ele>51.599998474121</ele>
        <time>2015-06-01T19:21:11Z</time>
      </trkpt>
      <trkpt lat="48.86502" lon="2.35992">
        <ele>51.599998474121</ele>
        <time>2015-06-01T19:21:13Z</time>
      </trkpt>
      <trkpt lat="48.86515" lon="2.36005">
        <ele>51.20000076294</ele>
        <time>2015-06-01T19:21:16Z</time>
      </trkpt>
      <trkpt lat="48.86537" lon="2.36029">
        <ele>50.599998474121</ele>
        <time>2015-06-01T19:21:20Z</time>
      </trkpt>
      <trkpt lat="48.86557" lon="2.36048">
        <ele>50.400001525879</ele>
        <time>2015-06-01T19:21:23Z</time>
      </trkpt>
      <trkpt lat="48.8657" lon="2.36062">
        <ele>50</ele>
        <time>2015-06-01T19:21:25Z</time>
      </trkpt>
      <trkpt lat="48.86589" lon="2.36086">
        <ele>49.20000076294</ele>
        <time>2015-06-01T19:21:28Z</time>
      </trkpt>
      <trkpt lat="48.86618" lon="2.36116">
        <ele>48.599998474121</ele>
        <time>2015-06-01T19:21:32Z</time>
      </trkpt>
      <trkpt lat="48.86638" lon="2.36138">
        <ele>47.79999923706</ele>
        <time>2015-06-01T19:21:35Z</time>
      </trkpt>
      <trkpt lat="48.86644" lon="2.36145">
        <ele>47.400001525879</ele>
        <time>2015-06-01T19:21:36Z</time>
      </trkpt>
      <trkpt lat="48.86664" lon="2.3617">
        <ele>46.79999923706</ele>
        <time>2015-06-01T19:21:39Z</time>
      </trkpt>
      <trkpt lat="48.8667" lon="2.36179">
        <ele>46.79999923706</ele>
        <time>2015-06-01T19:21:40Z</time>
      </trkpt>
      <trkpt lat="48.86686" lon="2.36215">
        <ele>46.20000076294</ele>
        <time>2015-06-01T19:21:44Z</time>
      </trkpt>
      <trkpt lat="48.86696" lon="2.36239">
        <ele>46</ele>
        <time>2015-06-01T19:21:47Z</time>
      </trkpt>
      <trkpt lat="48.86706" lon="2.36262">
        <ele>45.79999923706</ele>
        <time>2015-06-01T19:21:50Z</time>
      </trkpt>
      <trkpt lat="48.86709" lon="2.36269">
        <ele>45.79999923706</ele>
        <time>2015-06-01T19:21:51Z</time>
      </trkpt>
      <trkpt lat="48.86717" lon="2.36286">
        <ele>45.599998474121</ele>
        <time>2015-06-01T19:21:54Z</time>
      </trkpt>
      <trkpt lat="48.86724" lon="2.36309">
        <ele>45.400001525879</ele>
        <time>2015-06-01T19:21:58Z</time>
      </trkpt>
      <trkpt lat="48.86725" lon="2.36321">
        <ele>45.400001525879</ele>
        <time>2015-06-01T19:22:02Z</time>
      </trkpt>
      <trkpt lat="48.86729" lon="2.36333">
        <ele>45.400001525879</ele>
        <time>2015-06-01T19:22:08Z</time>
      </trkpt>
      <trkpt lat="48.86728" lon="2.36334">
        <ele>45.20000076294</ele>
        <time>2015-06-01T19:22:18Z</time>
      </trkpt>
      <trkpt lat="48.86729" lon="2.3634">
        <ele>47.20000076294</ele>
        <time>2015-06-01T19:22:49Z</time>
      </trkpt>
      <trkpt lat="48.86731" lon="2.36341">
        <ele>47.20000076294</ele>
        <time>2015-06-01T19:22:50Z</time>
      </trkpt>
      <trkpt lat="48.86732" lon="2.36349">
        <ele>47.20000076294</ele>
        <time>2015-06-01T19:22:53Z</time>
      </trkpt>
      <trkpt lat="48.86734" lon="2.36355">
        <ele>47.20000076294</ele>
        <time>2015-06-01T19:22:55Z</time>
      </trkpt>
      <trkpt lat="48.86736" lon="2.3636">
        <ele>47.20000076294</ele>
        <time>2015-06-01T19:22:57Z</time>
      </trkpt>
      <trkpt lat="48.86742" lon="2.36364">
        <ele>47.20000076294</ele>
        <time>2015-06-01T19:23:01Z</time>
      </trkpt>
      <trkpt lat="48.86749" lon="2.36364">
        <ele>47.20000076294</ele>
        <time>2015-06-01T19:23:05Z</time>
      </trkpt>
      <trkpt lat="48.86758" lon="2.36358">
        <ele>47.400001525879</ele>
        <time>2015-06-01T19:23:10Z</time>
      </trkpt>
      <trkpt lat="48.86767" lon="2.36356">
        <ele>47.400001525879</ele>
        <time>2015-06-01T19:23:15Z</time>
      </trkpt>
      <trkpt lat="48.86769" lon="2.36355">
        <ele>47.400001525879</ele>
        <time>2015-06-01T19:23:16Z</time>
      </trkpt>
      <trkpt lat="48.86771" lon="2.36353">
        <ele>47.400001525879</ele>
        <time>2015-06-01T19:23:17Z</time>
      </trkpt>
      <trkpt lat="48.86779" lon="2.36343">
        <ele>46.599998474121</ele>
        <time>2015-06-01T19:23:23Z</time>
      </trkpt>
      <trkpt lat="48.86784" lon="2.36329">
        <ele>46</ele>
        <time>2015-06-01T19:23:28Z</time>
      </trkpt>
      <trkpt lat="48.86791" lon="2.36325">
        <ele>45.79999923706</ele>
        <time>2015-06-01T19:23:32Z</time>
      </trkpt>
      <trkpt lat="48.86797" lon="2.36324">
        <ele>45.599998474121</ele>
        <time>2015-06-01T19:23:35Z</time>
      </trkpt>
      <trkpt lat="48.86807" lon="2.3631">
        <ele>45.400001525879</ele>
        <time>2015-06-01T19:23:41Z</time>
      </trkpt>
      <trkpt lat="48.86813" lon="2.36301">
        <ele>45.400001525879</ele>
        <time>2015-06-01T19:23:45Z</time>
      </trkpt>
      <trkpt lat="48.86815" lon="2.36301">
        <ele>45.400001525879</ele>
        <time>2015-06-01T19:23:46Z</time>
      </trkpt>
      <trkpt lat="48.86818" lon="2.363">
        <ele>45.20000076294</ele>
        <time>2015-06-01T19:23:48Z</time>
      </trkpt>
      <trkpt lat="48.86827" lon="2.36307">
        <ele>44.20000076294</ele>
        <time>2015-06-01T19:23:56Z</time>
      </trkpt>
      <trkpt lat="48.86842" lon="2.36312">
        <ele>43.599998474121</ele>
        <time>2015-06-01T19:24:04Z</time>
      </trkpt>
      <trkpt lat="48.86851" lon="2.36307">
        <ele>43.400001525879</ele>
        <time>2015-06-01T19:24:09Z</time>
      </trkpt>
      <trkpt lat="48.86853" lon="2.36305">
        <ele>43.400001525879</ele>
        <time>2015-06-01T19:24:10Z</time>
      </trkpt>
      <trkpt lat="48.86865" lon="2.36305">
        <ele>43.400001525879</ele>
        <time>2015-06-01T19:24:15Z</time>
      </trkpt>
      <trkpt lat="48.86869" lon="2.36307">
        <ele>43.400001525879</ele>
        <time>2015-06-01T19:24:17Z</time>
      </trkpt>
      <trkpt lat="48.86881" lon="2.36311">
        <ele>43.400001525879</ele>
        <time>2015-06-01T19:24:22Z</time>
      </trkpt>
      <trkpt lat="48.86894" lon="2.36317">
        <ele>43.400001525879</ele>
        <time>2015-06-01T19:24:26Z</time>
      </trkpt>
      <trkpt lat="48.86913" lon="2.36329">
        <ele>43.400001525879</ele>
        <time>2015-06-01T19:24:31Z</time>
      </trkpt>
      <trkpt lat="48.86929" lon="2.36335">
        <ele>43.20000076294</ele>
        <time>2015-06-01T19:24:35Z</time>
      </trkpt>
      <trkpt lat="48.86947" lon="2.36341">
        <ele>43.20000076294</ele>
        <time>2015-06-01T19:24:40Z</time>
      </trkpt>
      <trkpt lat="48.86967" lon="2.36351">
        <ele>43.20000076294</ele>
        <time>2015-06-01T19:24:45Z</time>
      </trkpt>
      <trkpt lat="48.86982" lon="2.36363">
        <ele>43.20000076294</ele>
        <time>2015-06-01T19:24:49Z</time>
      </trkpt>
      <trkpt lat="48.86985" lon="2.36366">
        <ele>43.20000076294</ele>
        <time>2015-06-01T19:24:50Z</time>
      </trkpt>
      <trkpt lat="48.86992" lon="2.3638">
        <ele>43.20000076294</ele>
        <time>2015-06-01T19:24:53Z</time>
      </trkpt>
      <trkpt lat="48.86996" lon="2.36388">
        <ele>43.20000076294</ele>
        <time>2015-06-01T19:24:55Z</time>
      </trkpt>
      <trkpt lat="48.87" lon="2.36401">
        <ele>43.20000076294</ele>
        <time>2015-06-01T19:25:00Z</time>
      </trkpt>
      <trkpt lat="48.87008" lon="2.36415">
        <ele>43.20000076294</ele>
        <time>2015-06-01T19:25:04Z</time>
      </trkpt>
      <trkpt lat="48.87014" lon="2.36431">
        <ele>43.20000076294</ele>
        <time>2015-06-01T19:25:08Z</time>
      </trkpt>
      <trkpt lat="48.87022" lon="2.36447">
        <ele>43.20000076294</ele>
        <time>2015-06-01T19:25:12Z</time>
      </trkpt>
      <trkpt lat="48.87031" lon="2.36468">
        <ele>43.20000076294</ele>
        <time>2015-06-01T19:25:17Z</time>
      </trkpt>
      <trkpt lat="48.87041" lon="2.3649">
        <ele>43.20000076294</ele>
        <time>2015-06-01T19:25:22Z</time>
      </trkpt>
      <trkpt lat="48.87052" lon="2.36511">
        <ele>43.20000076294</ele>
        <time>2015-06-01T19:25:26Z</time>
      </trkpt>
      <trkpt lat="48.87062" lon="2.36527">
        <ele>42.79999923706</ele>
        <time>2015-06-01T19:25:30Z</time>
      </trkpt>
      <trkpt lat="48.87064" lon="2.3653">
        <ele>42.599998474121</ele>
        <time>2015-06-01T19:25:31Z</time>
      </trkpt>
      <trkpt lat="48.87068" lon="2.36537">
        <ele>42.20000076294</ele>
        <time>2015-06-01T19:25:34Z</time>
      </trkpt>
      <trkpt lat="48.87073" lon="2.36545">
        <ele>41.400001525879</ele>
        <time>2015-06-01T19:25:41Z</time>
      </trkpt>
      <trkpt lat="48.87074" lon="2.36546">
        <ele>41.20000076294</ele>
        <time>2015-06-01T19:25:42Z</time>
      </trkpt>
      <trkpt lat="48.8708" lon="2.36551">
        <ele>40.20000076294</ele>
        <time>2015-06-01T19:25:48Z</time>
      </trkpt>
      <trkpt lat="48.87082" lon="2.36556">
        <ele>46.79999923706</ele>
        <time>2015-06-01T19:26:33Z</time>
      </trkpt>
      <trkpt lat="48.87083" lon="2.36558">
        <ele>47.20000076294</ele>
        <time>2015-06-01T19:26:34Z</time>
      </trkpt>
      <trkpt lat="48.87089" lon="2.36572">
        <ele>48.599998474121</ele>
        <time>2015-06-01T19:26:41Z</time>
      </trkpt>
      <trkpt lat="48.8709" lon="2.36575">
        <ele>49.599998474121</ele>
        <time>2015-06-01T19:26:46Z</time>
      </trkpt>
      <trkpt lat="48.87094" lon="2.36586">
        <ele>51.79999923706</ele>
        <time>2015-06-01T19:27:10Z</time>
      </trkpt>
      <trkpt lat="48.87105" lon="2.36582">
        <ele>51.79999923706</ele>
        <time>2015-06-01T19:27:14Z</time>
      </trkpt>
      <trkpt lat="48.87125" lon="2.36566">
        <ele>51</ele>
        <time>2015-06-01T19:27:20Z</time>
      </trkpt>
      <trkpt lat="48.87137" lon="2.36553">
        <ele>50.20000076294</ele>
        <time>2015-06-01T19:27:23Z</time>
      </trkpt>
      <trkpt lat="48.87149" lon="2.36536">
        <ele>48.79999923706</ele>
        <time>2015-06-01T19:27:28Z</time>
      </trkpt>
      <trkpt lat="48.87154" lon="2.36531">
        <ele>48</ele>
        <time>2015-06-01T19:27:30Z</time>
      </trkpt>
      <trkpt lat="48.87168" lon="2.36518">
        <ele>46.79999923706</ele>
        <time>2015-06-01T19:27:34Z</time>
      </trkpt>
      <trkpt lat="48.87182" lon="2.36511">
        <ele>45.20000076294</ele>
        <time>2015-06-01T19:27:39Z</time>
      </trkpt>
      <trkpt lat="48.87192" lon="2.36502">
        <ele>44.400001525879</ele>
        <time>2015-06-01T19:27:44Z</time>
      </trkpt>
      <trkpt lat="48.87202" lon="2.36492">
        <ele>43</ele>
        <time>2015-06-01T19:27:47Z</time>
      </trkpt>
      <trkpt lat="48.87217" lon="2.36481">
        <ele>42</ele>
        <time>2015-06-01T19:27:54Z</time>
      </trkpt>
      <trkpt lat="48.87227" lon="2.36471">
        <ele>41.20000076294</ele>
        <time>2015-06-01T19:27:58Z</time>
      </trkpt>
      <trkpt lat="48.87242" lon="2.36457">
        <ele>40.20000076294</ele>
        <time>2015-06-01T19:28:04Z</time>
      </trkpt>
      <trkpt lat="48.8725" lon="2.3645">
        <ele>39.79999923706</ele>
        <time>2015-06-01T19:28:06Z</time>
      </trkpt>
      <trkpt lat="48.87263" lon="2.36432">
        <ele>39.20000076294</ele>
        <time>2015-06-01T19:28:13Z</time>
      </trkpt>
      <trkpt lat="48.87268" lon="2.36425">
        <ele>39</ele>
        <time>2015-06-01T19:28:15Z</time>
      </trkpt>
      <trkpt lat="48.8728" lon="2.36414">
        <ele>39.20000076294</ele>
        <time>2015-06-01T19:28:21Z</time>
      </trkpt>
      <trkpt lat="48.87285" lon="2.36408">
        <ele>39.400001525879</ele>
        <time>2015-06-01T19:28:23Z</time>
      </trkpt>
      <trkpt lat="48.87291" lon="2.36404">
        <ele>39.79999923706</ele>
        <time>2015-06-01T19:28:27Z</time>
      </trkpt>
      <trkpt lat="48.87295" lon="2.36401">
        <ele>40.79999923706</ele>
        <time>2015-06-01T19:28:31Z</time>
      </trkpt>
      <trkpt lat="48.87304" lon="2.36401">
        <ele>43.400001525879</ele>
        <time>2015-06-01T19:28:51Z</time>
      </trkpt>
      <trkpt lat="48.87305" lon="2.36399">
        <ele>43.599998474121</ele>
        <time>2015-06-01T19:28:52Z</time>
      </trkpt>
      <trkpt lat="48.87318" lon="2.36395">
        <ele>44.20000076294</ele>
        <time>2015-06-01T19:28:58Z</time>
      </trkpt>
      <trkpt lat="48.87331" lon="2.3639">
        <ele>44.400001525879</ele>
        <time>2015-06-01T19:29:05Z</time>
      </trkpt>
      <trkpt lat="48.87337" lon="2.36381">
        <ele>44.599998474121</ele>
        <time>2015-06-01T19:29:08Z</time>
      </trkpt>
      <trkpt lat="48.87349" lon="2.36372">
        <ele>44.599998474121</ele>
        <time>2015-06-01T19:29:13Z</time>
      </trkpt>
      <trkpt lat="48.87362" lon="2.36364">
        <ele>44.400001525879</ele>
        <time>2015-06-01T19:29:19Z</time>
      </trkpt>
      <trkpt lat="48.87377" lon="2.36361">
        <ele>43.79999923706</ele>
        <time>2015-06-01T19:29:23Z</time>
      </trkpt>
      <trkpt lat="48.87392" lon="2.36353">
        <ele>43.20000076294</ele>
        <time>2015-06-01T19:29:27Z</time>
      </trkpt>
      <trkpt lat="48.8741" lon="2.3634">
        <ele>42.400001525879</ele>
        <time>2015-06-01T19:29:31Z</time>
      </trkpt>
      <trkpt lat="48.87415" lon="2.36339">
        <ele>42.20000076294</ele>
        <time>2015-06-01T19:29:32Z</time>
      </trkpt>
      <trkpt lat="48.87436" lon="2.36336">
        <ele>41.599998474121</ele>
        <time>2015-06-01T19:29:36Z</time>
      </trkpt>
      <trkpt lat="48.87441" lon="2.36336">
        <ele>41.599998474121</ele>
        <time>2015-06-01T19:29:38Z</time>
      </trkpt>
      <trkpt lat="48.87456" lon="2.36341">
        <ele>41</ele>
        <time>2015-06-01T19:29:41Z</time>
      </trkpt>
      <trkpt lat="48.87465" lon="2.36346">
        <ele>40.599998474121</ele>
        <time>2015-06-01T19:29:43Z</time>
      </trkpt>
      <trkpt lat="48.87476" lon="2.36354">
        <ele>40</ele>
        <time>2015-06-01T19:29:46Z</time>
      </trkpt>
      <trkpt lat="48.8749" lon="2.36366">
        <ele>39.599998474121</ele>
        <time>2015-06-01T19:29:49Z</time>
      </trkpt>
      <trkpt lat="48.87499" lon="2.36375">
        <ele>39.20000076294</ele>
        <time>2015-06-01T19:29:52Z</time>
      </trkpt>
      <trkpt lat="48.87514" lon="2.36388">
        <ele>39</ele>
        <time>2015-06-01T19:29:56Z</time>
      </trkpt>
      <trkpt lat="48.87535" lon="2.36407">
        <ele>38.79999923706</ele>
        <time>2015-06-01T19:30:02Z</time>
      </trkpt>
      <trkpt lat="48.87554" lon="2.36425">
        <ele>38.599998474121</ele>
        <time>2015-06-01T19:30:08Z</time>
      </trkpt>
      <trkpt lat="48.87567" lon="2.36437">
        <ele>38.599998474121</ele>
        <time>2015-06-01T19:30:12Z</time>
      </trkpt>
      <trkpt lat="48.87588" lon="2.36451">
        <ele>38.599998474121</ele>
        <time>2015-06-01T19:30:18Z</time>
      </trkpt>
      <trkpt lat="48.87606" lon="2.36465">
        <ele>38.599998474121</ele>
        <time>2015-06-01T19:30:24Z</time>
      </trkpt>
      <trkpt lat="48.87626" lon="2.36481">
        <ele>39.400001525879</ele>
        <time>2015-06-01T19:30:29Z</time>
      </trkpt>
      <trkpt lat="48.87637" lon="2.36491">
        <ele>39.599998474121</ele>
        <time>2015-06-01T19:30:32Z</time>
      </trkpt>
      <trkpt lat="48.87654" lon="2.36506">
        <ele>40.20000076294</ele>
        <time>2015-06-01T19:30:37Z</time>
      </trkpt>
      <trkpt lat="48.87674" lon="2.36522">
        <ele>41.599998474121</ele>
        <time>2015-06-01T19:30:44Z</time>
      </trkpt>
      <trkpt lat="48.87688" lon="2.36535">
        <ele>42.79999923706</ele>
        <time>2015-06-01T19:30:49Z</time>
      </trkpt>
      <trkpt lat="48.87698" lon="2.36544">
        <ele>43.400001525879</ele>
        <time>2015-06-01T19:30:53Z</time>
      </trkpt>
      <trkpt lat="48.87711" lon="2.36556">
        <ele>44.400001525879</ele>
        <time>2015-06-01T19:30:58Z</time>
      </trkpt>
      <trkpt lat="48.87719" lon="2.36564">
        <ele>45.20000076294</ele>
        <time>2015-06-01T19:31:02Z</time>
      </trkpt>
      <trkpt lat="48.87723" lon="2.36571">
        <ele>45.79999923706</ele>
        <time>2015-06-01T19:31:07Z</time>
      </trkpt>
      <trkpt lat="48.87724" lon="2.36572">
        <ele>46</ele>
        <time>2015-06-01T19:31:08Z</time>
      </trkpt>
      <trkpt lat="48.87726" lon="2.36575">
        <ele>46.599998474121</ele>
        <time>2015-06-01T19:31:20Z</time>
      </trkpt>
      <trkpt lat="48.87731" lon="2.3658">
        <ele>48.599998474121</ele>
        <time>2015-06-01T19:31:39Z</time>
      </trkpt>
      <trkpt lat="48.87738" lon="2.36585">
        <ele>48.599998474121</ele>
        <time>2015-06-01T19:31:44Z</time>
      </trkpt>
      <trkpt lat="48.87748" lon="2.36594">
        <ele>48.79999923706</ele>
        <time>2015-06-01T19:31:49Z</time>
      </trkpt>
      <trkpt lat="48.87761" lon="2.36602">
        <ele>48.79999923706</ele>
        <time>2015-06-01T19:31:54Z</time>
      </trkpt>
      <trkpt lat="48.87774" lon="2.36615">
        <ele>48.79999923706</ele>
        <time>2015-06-01T19:32:01Z</time>
      </trkpt>
      <trkpt lat="48.87786" lon="2.36626">
        <ele>48.79999923706</ele>
        <time>2015-06-01T19:32:06Z</time>
      </trkpt>
      <trkpt lat="48.87799" lon="2.36635">
        <ele>49</ele>
        <time>2015-06-01T19:32:11Z</time>
      </trkpt>
      <trkpt lat="48.87807" lon="2.36643">
        <ele>49</ele>
        <time>2015-06-01T19:32:14Z</time>
      </trkpt>
      <trkpt lat="48.87819" lon="2.36652">
        <ele>49</ele>
        <time>2015-06-01T19:32:19Z</time>
      </trkpt>
      <trkpt lat="48.87828" lon="2.3666">
        <ele>49</ele>
        <time>2015-06-01T19:32:22Z</time>
      </trkpt>
      <trkpt lat="48.87837" lon="2.36667">
        <ele>49</ele>
        <time>2015-06-01T19:32:25Z</time>
      </trkpt>
      <trkpt lat="48.8784" lon="2.36669">
        <ele>49</ele>
        <time>2015-06-01T19:32:26Z</time>
      </trkpt>
      <trkpt lat="48.87852" lon="2.36679">
        <ele>49</ele>
        <time>2015-06-01T19:32:31Z</time>
      </trkpt>
      <trkpt lat="48.87864" lon="2.36688">
        <ele>49.20000076294</ele>
        <time>2015-06-01T19:32:36Z</time>
      </trkpt>
      <trkpt lat="48.87877" lon="2.36698">
        <ele>50</ele>
        <time>2015-06-01T19:32:41Z</time>
      </trkpt>
      <trkpt lat="48.87886" lon="2.36711">
        <ele>51</ele>
        <time>2015-06-01T19:32:45Z</time>
      </trkpt>
      <trkpt lat="48.87899" lon="2.36721">
        <ele>52</ele>
        <time>2015-06-01T19:32:49Z</time>
      </trkpt>
      <trkpt lat="48.87918" lon="2.36733">
        <ele>53</ele>
        <time>2015-06-01T19:32:53Z</time>
      </trkpt>
      <trkpt lat="48.87929" lon="2.36751">
        <ele>55</ele>
        <time>2015-06-01T19:32:59Z</time>
      </trkpt>
      <trkpt lat="48.87934" lon="2.36761">
        <ele>56.20000076294</ele>
        <time>2015-06-01T19:33:02Z</time>
      </trkpt>
      <trkpt lat="48.87945" lon="2.36776">
        <ele>67.199996948242</ele>
        <time>2015-06-01T19:33:50Z</time>
      </trkpt>
      <trkpt lat="48.87946" lon="2.36787">
        <ele>67.599998474121</ele>
        <time>2015-06-01T19:33:54Z</time>
      </trkpt>
      <trkpt lat="48.87947" lon="2.3679">
        <ele>67.599998474121</ele>
        <time>2015-06-01T19:33:56Z</time>
      </trkpt>
      <trkpt lat="48.87956" lon="2.36799">
        <ele>67.800003051758</ele>
        <time>2015-06-01T19:34:01Z</time>
      </trkpt>
      <trkpt lat="48.87958" lon="2.36801">
        <ele>68</ele>
        <time>2015-06-01T19:34:02Z</time>
      </trkpt>
      <trkpt lat="48.87965" lon="2.36806">
        <ele>68</ele>
        <time>2015-06-01T19:34:05Z</time>
      </trkpt>
      <trkpt lat="48.87972" lon="2.3681">
        <ele>68</ele>
        <time>2015-06-01T19:34:09Z</time>
      </trkpt>
      <trkpt lat="48.87977" lon="2.36813">
        <ele>68.199996948242</ele>
        <time>2015-06-01T19:34:11Z</time>
      </trkpt>
      <trkpt lat="48.87991" lon="2.36824">
        <ele>69</ele>
        <time>2015-06-01T19:34:16Z</time>
      </trkpt>
      <trkpt lat="48.88007" lon="2.36837">
        <ele>69.599998474121</ele>
        <time>2015-06-01T19:34:21Z</time>
      </trkpt>
      <trkpt lat="48.8802" lon="2.36848">
        <ele>69.800003051758</ele>
        <time>2015-06-01T19:34:26Z</time>
      </trkpt>
      <trkpt lat="48.88032" lon="2.36859">
        <ele>70</ele>
        <time>2015-06-01T19:34:29Z</time>
      </trkpt>
      <trkpt lat="48.88044" lon="2.36871">
        <ele>70</ele>
        <time>2015-06-01T19:34:33Z</time>
      </trkpt>
      <trkpt lat="48.88062" lon="2.36885">
        <ele>70.199996948242</ele>
        <time>2015-06-01T19:34:40Z</time>
      </trkpt>
      <trkpt lat="48.88077" lon="2.36897">
        <ele>70.199996948242</ele>
        <time>2015-06-01T19:34:45Z</time>
      </trkpt>
      <trkpt lat="48.8809" lon="2.36908">
        <ele>70.199996948242</ele>
        <time>2015-06-01T19:34:49Z</time>
      </trkpt>
      <trkpt lat="48.88107" lon="2.36923">
        <ele>70.199996948242</ele>
        <time>2015-06-01T19:34:55Z</time>
      </trkpt>
      <trkpt lat="48.88121" lon="2.36935">
        <ele>70.199996948242</ele>
        <time>2015-06-01T19:35:00Z</time>
      </trkpt>
      <trkpt lat="48.88137" lon="2.36954">
        <ele>70.199996948242</ele>
        <time>2015-06-01T19:35:05Z</time>
      </trkpt>
      <trkpt lat="48.88148" lon="2.36972">
        <ele>69.400001525879</ele>
        <time>2015-06-01T19:35:09Z</time>
      </trkpt>
      <trkpt lat="48.88149" lon="2.36975">
        <ele>68.599998474121</ele>
        <time>2015-06-01T19:35:11Z</time>
      </trkpt>
      <trkpt lat="48.8815" lon="2.3698">
        <ele>66.400001525879</ele>
        <time>2015-06-01T19:35:19Z</time>
      </trkpt>
      <trkpt lat="48.88151" lon="2.36982">
        <ele>65</ele>
        <time>2015-06-01T19:35:24Z</time>
      </trkpt>
      <trkpt lat="48.88152" lon="2.36996">
        <ele>63.79999923706</ele>
        <time>2015-06-01T19:35:30Z</time>
      </trkpt>
      <trkpt lat="48.8815" lon="2.3701">
        <ele>62.79999923706</ele>
        <time>2015-06-01T19:35:33Z</time>
      </trkpt>
      <trkpt lat="48.8815" lon="2.37014">
        <ele>62.599998474121</ele>
        <time>2015-06-01T19:35:34Z</time>
      </trkpt>
      <trkpt lat="48.8815" lon="2.37016">
        <ele>62.599998474121</ele>
        <time>2015-06-01T19:35:35Z</time>
      </trkpt>
      <trkpt lat="48.88156" lon="2.37025">
        <ele>62</ele>
        <time>2015-06-01T19:35:40Z</time>
      </trkpt>
      <trkpt lat="48.88176" lon="2.3703">
        <ele>61.599998474121</ele>
        <time>2015-06-01T19:35:46Z</time>
      </trkpt>
      <trkpt lat="48.88196" lon="2.37031">
        <ele>61.400001525879</ele>
        <time>2015-06-01T19:35:53Z</time>
      </trkpt>
      <trkpt lat="48.88208" lon="2.37032">
        <ele>61.20000076294</ele>
        <time>2015-06-01T19:35:56Z</time>
      </trkpt>
      <trkpt lat="48.88226" lon="2.37034">
        <ele>61.20000076294</ele>
        <time>2015-06-01T19:36:02Z</time>
      </trkpt>
      <trkpt lat="48.88241" lon="2.37033">
        <ele>61.20000076294</ele>
        <time>2015-06-01T19:36:08Z</time>
      </trkpt>
      <trkpt lat="48.88261" lon="2.37029">
        <ele>61.20000076294</ele>
        <time>2015-06-01T19:36:15Z</time>
      </trkpt>
      <trkpt lat="48.88274" lon="2.3703">
        <ele>61.20000076294</ele>
        <time>2015-06-01T19:36:20Z</time>
      </trkpt>
      <trkpt lat="48.88285" lon="2.37036">
        <ele>61.20000076294</ele>
        <time>2015-06-01T19:36:25Z</time>
      </trkpt>
      <trkpt lat="48.88286" lon="2.37037">
        <ele>61.20000076294</ele>
        <time>2015-06-01T19:36:26Z</time>
      </trkpt>
      <trkpt lat="48.88291" lon="2.37036">
        <ele>61.20000076294</ele>
        <time>2015-06-01T19:36:32Z</time>
      </trkpt>
      <trkpt lat="48.88292" lon="2.37035">
        <ele>61.20000076294</ele>
        <time>2015-06-01T19:36:33Z</time>
      </trkpt>
      <trkpt lat="48.88297" lon="2.37029">
        <ele>61.20000076294</ele>
        <time>2015-06-01T19:37:16Z</time>
      </trkpt>
      <trkpt lat="48.88299" lon="2.37025">
        <ele>61.20000076294</ele>
        <time>2015-06-01T19:37:20Z</time>
      </trkpt>
      <trkpt lat="48.88307" lon="2.37014">
        <ele>61.20000076294</ele>
        <time>2015-06-01T19:37:28Z</time>
      </trkpt>
      <trkpt lat="48.88314" lon="2.37003">
        <ele>61.20000076294</ele>
        <time>2015-06-01T19:37:35Z</time>
      </trkpt>
      <trkpt lat="48.88315" lon="2.37002">
        <ele>61.20000076294</ele>
        <time>2015-06-01T19:37:36Z</time>
      </trkpt>
      <trkpt lat="48.88325" lon="2.36995">
        <ele>61.20000076294</ele>
        <time>2015-06-01T19:37:43Z</time>
      </trkpt>
      <trkpt lat="48.88339" lon="2.36992">
        <ele>61.20000076294</ele>
        <time>2015-06-01T19:37:49Z</time>
      </trkpt>
      <trkpt lat="48.88349" lon="2.36989">
        <ele>61.20000076294</ele>
        <time>2015-06-01T19:37:53Z</time>
      </trkpt>
      <trkpt lat="48.88364" lon="2.36979">
        <ele>61.20000076294</ele>
        <time>2015-06-01T19:38:00Z</time>
      </trkpt>
      <trkpt lat="48.88371" lon="2.36962">
        <ele>61.20000076294</ele>
        <time>2015-06-01T19:38:05Z</time>
      </trkpt>
      <trkpt lat="48.88378" lon="2.36943">
        <ele>60.79999923706</ele>
        <time>2015-06-01T19:38:10Z</time>
      </trkpt>
      <trkpt lat="48.88386" lon="2.36924">
        <ele>60</ele>
        <time>2015-06-01T19:38:15Z</time>
      </trkpt>
      <trkpt lat="48.88399" lon="2.36913">
        <ele>59.599998474121</ele>
        <time>2015-06-01T19:38:20Z</time>
      </trkpt>
      <trkpt lat="48.88413" lon="2.36914">
        <ele>59.400001525879</ele>
        <time>2015-06-01T19:38:25Z</time>
      </trkpt>
      <trkpt lat="48.88418" lon="2.36918">
        <ele>59.400001525879</ele>
        <time>2015-06-01T19:38:27Z</time>
      </trkpt>
      <trkpt lat="48.88422" lon="2.36946">
        <ele>59.20000076294</ele>
        <time>2015-06-01T19:38:33Z</time>
      </trkpt>
      <trkpt lat="48.88422" lon="2.36951">
        <ele>59.20000076294</ele>
        <time>2015-06-01T19:38:34Z</time>
      </trkpt>
      <trkpt lat="48.88426" lon="2.3698">
        <ele>59.20000076294</ele>
        <time>2015-06-01T19:38:40Z</time>
      </trkpt>
      <trkpt lat="48.88434" lon="2.37009">
        <ele>59</ele>
        <time>2015-06-01T19:38:46Z</time>
      </trkpt>
      <trkpt lat="48.88443" lon="2.37031">
        <ele>59</ele>
        <time>2015-06-01T19:38:51Z</time>
      </trkpt>
      <trkpt lat="48.88452" lon="2.37046">
        <ele>59</ele>
        <time>2015-06-01T19:38:56Z</time>
      </trkpt>
      <trkpt lat="48.88461" lon="2.3706">
        <ele>59</ele>
        <time>2015-06-01T19:39:01Z</time>
      </trkpt>
      <trkpt lat="48.88473" lon="2.37081">
        <ele>59</ele>
        <time>2015-06-01T19:39:06Z</time>
      </trkpt>
      <trkpt lat="48.88486" lon="2.37102">
        <ele>59</ele>
        <time>2015-06-01T19:39:11Z</time>
      </trkpt>
      <trkpt lat="48.88495" lon="2.3712">
        <ele>58.599998474121</ele>
        <time>2015-06-01T19:39:14Z</time>
      </trkpt>
      <trkpt lat="48.88506" lon="2.37133">
        <ele>58</ele>
        <time>2015-06-01T19:39:19Z</time>
      </trkpt>
      <trkpt lat="48.88517" lon="2.37156">
        <ele>57.599998474121</ele>
        <time>2015-06-01T19:39:25Z</time>
      </trkpt>
      <trkpt lat="48.88525" lon="2.3717">
        <ele>57.400001525879</ele>
        <time>2015-06-01T19:39:29Z</time>
      </trkpt>
      <trkpt lat="48.88528" lon="2.37176">
        <ele>57.20000076294</ele>
        <time>2015-06-01T19:39:31Z</time>
      </trkpt>
      <trkpt lat="48.88537" lon="2.37199">
        <ele>57.20000076294</ele>
        <time>2015-06-01T19:39:36Z</time>
      </trkpt>
      <trkpt lat="48.88547" lon="2.37221">
        <ele>56.400001525879</ele>
        <time>2015-06-01T19:39:42Z</time>
      </trkpt>
      <trkpt lat="48.88557" lon="2.37242">
        <ele>55.79999923706</ele>
        <time>2015-06-01T19:39:47Z</time>
      </trkpt>
      <trkpt lat="48.88567" lon="2.37261">
        <ele>55.400001525879</ele>
        <time>2015-06-01T19:39:51Z</time>
      </trkpt>
      <trkpt lat="48.88579" lon="2.37282">
        <ele>55.20000076294</ele>
        <time>2015-06-01T19:39:57Z</time>
      </trkpt>
      <trkpt lat="48.88591" lon="2.37304">
        <ele>55.20000076294</ele>
        <time>2015-06-01T19:40:02Z</time>
      </trkpt>
      <trkpt lat="48.88601" lon="2.3732">
        <ele>54.79999923706</ele>
        <time>2015-06-01T19:40:06Z</time>
      </trkpt>
      <trkpt lat="48.8861" lon="2.37337">
        <ele>54.20000076294</ele>
        <time>2015-06-01T19:40:10Z</time>
      </trkpt>
      <trkpt lat="48.88621" lon="2.3736">
        <ele>53.599998474121</ele>
        <time>2015-06-01T19:40:15Z</time>
      </trkpt>
      <trkpt lat="48.88629" lon="2.3738">
        <ele>53.400001525879</ele>
        <time>2015-06-01T19:40:19Z</time>
      </trkpt>
      <trkpt lat="48.88641" lon="2.37404">
        <ele>53.20000076294</ele>
        <time>2015-06-01T19:40:25Z</time>
      </trkpt>
      <trkpt lat="48.88654" lon="2.37428">
        <ele>53.20000076294</ele>
        <time>2015-06-01T19:40:30Z</time>
      </trkpt>
      <trkpt lat="48.88665" lon="2.37452">
        <ele>53</ele>
        <time>2015-06-01T19:40:35Z</time>
      </trkpt>
      <trkpt lat="48.88677" lon="2.37476">
        <ele>53</ele>
        <time>2015-06-01T19:40:40Z</time>
      </trkpt>
      <trkpt lat="48.8869" lon="2.37501">
        <ele>53</ele>
        <time>2015-06-01T19:40:45Z</time>
      </trkpt>
      <trkpt lat="48.887" lon="2.37519">
        <ele>53</ele>
        <time>2015-06-01T19:40:48Z</time>
      </trkpt>
      <trkpt lat="48.8871" lon="2.37542">
        <ele>53</ele>
        <time>2015-06-01T19:40:53Z</time>
      </trkpt>
      <trkpt lat="48.88715" lon="2.37552">
        <ele>53</ele>
        <time>2015-06-01T19:40:55Z</time>
      </trkpt>
      <trkpt lat="48.88718" lon="2.37559">
        <ele>53</ele>
        <time>2015-06-01T19:40:56Z</time>
      </trkpt>
      <trkpt lat="48.88734" lon="2.37587">
        <ele>53</ele>
        <time>2015-06-01T19:41:01Z</time>
      </trkpt>
      <trkpt lat="48.88736" lon="2.37592">
        <ele>53</ele>
        <time>2015-06-01T19:41:03Z</time>
      </trkpt>
      <trkpt lat="48.88745" lon="2.37613">
        <ele>53.599998474121</ele>
        <time>2015-06-01T19:41:07Z</time>
      </trkpt>
      <trkpt lat="48.88756" lon="2.37637">
        <ele>54.20000076294</ele>
        <time>2015-06-01T19:41:11Z</time>
      </trkpt>
      <trkpt lat="48.88762" lon="2.37647">
        <ele>54.400001525879</ele>
        <time>2015-06-01T19:41:13Z</time>
      </trkpt>
      <trkpt lat="48.8877" lon="2.37663">
        <ele>54.599998474121</ele>
        <time>2015-06-01T19:41:16Z</time>
      </trkpt>
      <trkpt lat="48.8878" lon="2.37684">
        <ele>54.79999923706</ele>
        <time>2015-06-01T19:41:20Z</time>
      </trkpt>
      <trkpt lat="48.88785" lon="2.37694">
        <ele>54.79999923706</ele>
        <time>2015-06-01T19:41:21Z</time>
      </trkpt>
      <trkpt lat="48.88794" lon="2.3772">
        <ele>55</ele>
        <time>2015-06-01T19:41:26Z</time>
      </trkpt>
      <trkpt lat="48.88796" lon="2.37725">
        <ele>55</ele>
        <time>2015-06-01T19:41:27Z</time>
      </trkpt>
      <trkpt lat="48.88804" lon="2.37744">
        <ele>55</ele>
        <time>2015-06-01T19:41:31Z</time>
      </trkpt>
      <trkpt lat="48.88818" lon="2.37771">
        <ele>55</ele>
        <time>2015-06-01T19:41:37Z</time>
      </trkpt>
      <trkpt lat="48.88831" lon="2.37793">
        <ele>55</ele>
        <time>2015-06-01T19:41:42Z</time>
      </trkpt>
      <trkpt lat="48.88843" lon="2.37816">
        <ele>55</ele>
        <time>2015-06-01T19:41:47Z</time>
      </trkpt>
      <trkpt lat="48.88852" lon="2.37837">
        <ele>55</ele>
        <time>2015-06-01T19:41:52Z</time>
      </trkpt>
      <trkpt lat="48.88865" lon="2.37863">
        <ele>55</ele>
        <time>2015-06-01T19:41:58Z</time>
      </trkpt>
      <trkpt lat="48.88869" lon="2.37869">
        <ele>54.599998474121</ele>
        <time>2015-06-01T19:42:00Z</time>
      </trkpt>
      <trkpt lat="48.88874" lon="2.37879">
        <ele>54.20000076294</ele>
        <time>2015-06-01T19:42:04Z</time>
      </trkpt>
      <trkpt lat="48.88876" lon="2.37878">
        <ele>53.400001525879</ele>
        <time>2015-06-01T19:42:14Z</time>
      </trkpt>
      <trkpt lat="48.88878" lon="2.37879">
        <ele>53.20000076294</ele>
        <time>2015-06-01T19:42:21Z</time>
      </trkpt>
      <trkpt lat="48.88881" lon="2.37883">
        <ele>57</ele>
        <time>2015-06-01T19:42:43Z</time>
      </trkpt>
      <trkpt lat="48.88882" lon="2.37883">
        <ele>59</ele>
        <time>2015-06-01T19:42:49Z</time>
      </trkpt>
      <trkpt lat="48.88885" lon="2.37902">
        <ele>60.599998474121</ele>
        <time>2015-06-01T19:42:56Z</time>
      </trkpt>
      <trkpt lat="48.88885" lon="2.37905">
        <ele>61</ele>
        <time>2015-06-01T19:42:57Z</time>
      </trkpt>
      <trkpt lat="48.8888" lon="2.37915">
        <ele>62</ele>
        <time>2015-06-01T19:43:02Z</time>
      </trkpt>
      <trkpt lat="48.88872" lon="2.37922">
        <ele>62.599998474121</ele>
        <time>2015-06-01T19:43:07Z</time>
      </trkpt>
      <trkpt lat="48.88866" lon="2.37932">
        <ele>63.20000076294</ele>
        <time>2015-06-01T19:43:13Z</time>
      </trkpt>
      <trkpt lat="48.88864" lon="2.37933">
        <ele>63.20000076294</ele>
        <time>2015-06-01T19:43:14Z</time>
      </trkpt>
      <trkpt lat="48.88858" lon="2.37936">
        <ele>63.400001525879</ele>
        <time>2015-06-01T19:43:19Z</time>
      </trkpt>
      <trkpt lat="48.88857" lon="2.37936">
        <ele>63.400001525879</ele>
        <time>2015-06-01T19:43:20Z</time>
      </trkpt>
      <trkpt lat="48.88854" lon="2.37937">
        <ele>63.400001525879</ele>
        <time>2015-06-01T19:43:22Z</time>
      </trkpt>
      <trkpt lat="48.8885" lon="2.37937">
        <ele>63.599998474121</ele>
        <time>2015-06-01T19:43:26Z</time>
      </trkpt>
      <trkpt lat="48.88848" lon="2.37937">
        <ele>63.599998474121</ele>
        <time>2015-06-01T19:43:29Z</time>
      </trkpt>
      <trkpt lat="48.88844" lon="2.37942">
        <ele>63.599998474121</ele>
        <time>2015-06-01T19:43:35Z</time>
      </trkpt>
      <trkpt lat="48.88834" lon="2.37954">
        <ele>63.599998474121</ele>
        <time>2015-06-01T19:43:42Z</time>
      </trkpt>
      <trkpt lat="48.88832" lon="2.37957">
        <ele>63.599998474121</ele>
        <time>2015-06-01T19:43:46Z</time>
      </trkpt>
      <trkpt lat="48.88832" lon="2.37958">
        <ele>63.599998474121</ele>
        <time>2015-06-01T19:43:51Z</time>
      </trkpt>
      <trkpt lat="48.88832" lon="2.37957">
        <ele>63.599998474121</ele>
        <time>2015-06-01T19:43:58Z</time>
      </trkpt>
      <trkpt lat="48.88831" lon="2.37964">
        <ele>63.599998474121</ele>
        <time>2015-06-01T19:44:19Z</time>
      </trkpt>
      <trkpt lat="48.88835" lon="2.37981">
        <ele>63.599998474121</ele>
        <time>2015-06-01T19:44:25Z</time>
      </trkpt>
      <trkpt lat="48.88842" lon="2.37997">
        <ele>63.599998474121</ele>
        <time>2015-06-01T19:44:31Z</time>
      </trkpt>
      <trkpt lat="48.8885" lon="2.38011">
        <ele>63.599998474121</ele>
        <time>2015-06-01T19:44:36Z</time>
      </trkpt>
      <trkpt lat="48.88858" lon="2.38029">
        <ele>63</ele>
        <time>2015-06-01T19:44:42Z</time>
      </trkpt>
      <trkpt lat="48.88868" lon="2.38049">
        <ele>62.400001525879</ele>
        <time>2015-06-01T19:44:48Z</time>
      </trkpt>
      <trkpt lat="48.88883" lon="2.38067">
        <ele>62</ele>
        <time>2015-06-01T19:44:55Z</time>
      </trkpt>
      <trkpt lat="48.88896" lon="2.38088">
        <ele>61.79999923706</ele>
        <time>2015-06-01T19:45:02Z</time>
      </trkpt>
      <trkpt lat="48.88904" lon="2.38104">
        <ele>61.599998474121</ele>
        <time>2015-06-01T19:45:07Z</time>
      </trkpt>
      <trkpt lat="48.88917" lon="2.38128">
        <ele>61.599998474121</ele>
        <time>2015-06-01T19:45:14Z</time>
      </trkpt>
      <trkpt lat="48.8893" lon="2.3815">
        <ele>61.599998474121</ele>
        <time>2015-06-01T19:45:20Z</time>
      </trkpt>
      <trkpt lat="48.8894" lon="2.38171">
        <ele>61.599998474121</ele>
        <time>2015-06-01T19:45:25Z</time>
      </trkpt>
      <trkpt lat="48.88954" lon="2.38195">
        <ele>61.599998474121</ele>
        <time>2015-06-01T19:45:31Z</time>
      </trkpt>
      <trkpt lat="48.88964" lon="2.38215">
        <ele>61.599998474121</ele>
        <time>2015-06-01T19:45:36Z</time>
      </trkpt>
      <trkpt lat="48.88966" lon="2.38219">
        <ele>61.599998474121</ele>
        <time>2015-06-01T19:45:37Z</time>
      </trkpt>
      <trkpt lat="48.8898" lon="2.38243">
        <ele>61.599998474121</ele>
        <time>2015-06-01T19:45:43Z</time>
      </trkpt>
      <trkpt lat="48.88998" lon="2.38283">
        <ele>61.599998474121</ele>
        <time>2015-06-01T19:45:55Z</time>
      </trkpt>
      <trkpt lat="48.88998" lon="2.38285">
        <ele>61.599998474121</ele>
        <time>2015-06-01T19:45:56Z</time>
      </trkpt>
      <trkpt lat="48.89001" lon="2.38295">
        <ele>61.599998474121</ele>
        <time>2015-06-01T19:46:01Z</time>
      </trkpt>
      <trkpt lat="48.89001" lon="2.38298">
        <ele>61.599998474121</ele>
        <time>2015-06-01T19:46:02Z</time>
      </trkpt>
      <trkpt lat="48.89007" lon="2.3832">
        <ele>61.599998474121</ele>
        <time>2015-06-01T19:46:08Z</time>
      </trkpt>
      <trkpt lat="48.89013" lon="2.38335">
        <ele>61.599998474121</ele>
        <time>2015-06-01T19:46:12Z</time>
      </trkpt>
      <trkpt lat="48.89021" lon="2.38353">
        <ele>61.599998474121</ele>
        <time>2015-06-01T19:46:17Z</time>
      </trkpt>
      <trkpt lat="48.8903" lon="2.38368">
        <ele>61.599998474121</ele>
        <time>2015-06-01T19:46:22Z</time>
      </trkpt>
      <trkpt lat="48.89041" lon="2.38389">
        <ele>61.599998474121</ele>
        <time>2015-06-01T19:46:29Z</time>
      </trkpt>
      <trkpt lat="48.89053" lon="2.38411">
        <ele>61.599998474121</ele>
        <time>2015-06-01T19:46:36Z</time>
      </trkpt>
      <trkpt lat="48.89062" lon="2.38435">
        <ele>60.79999923706</ele>
        <time>2015-06-01T19:46:42Z</time>
      </trkpt>
      <trkpt lat="48.89072" lon="2.3846">
        <ele>60.20000076294</ele>
        <time>2015-06-01T19:46:48Z</time>
      </trkpt>
      <trkpt lat="48.89078" lon="2.38477">
        <ele>60</ele>
        <time>2015-06-01T19:46:52Z</time>
      </trkpt>
      <trkpt lat="48.89091" lon="2.38503">
        <ele>59.79999923706</ele>
        <time>2015-06-01T19:46:57Z</time>
      </trkpt>
      <trkpt lat="48.89096" lon="2.38513">
        <ele>59.79999923706</ele>
        <time>2015-06-01T19:46:59Z</time>
      </trkpt>
      <trkpt lat="48.89112" lon="2.38545">
        <ele>59.599998474121</ele>
        <time>2015-06-01T19:47:06Z</time>
      </trkpt>
      <trkpt lat="48.89124" lon="2.38569">
        <ele>59.599998474121</ele>
        <time>2015-06-01T19:47:10Z</time>
      </trkpt>
      <trkpt lat="48.89136" lon="2.38591">
        <ele>59.599998474121</ele>
        <time>2015-06-01T19:47:16Z</time>
      </trkpt>
      <trkpt lat="48.89148" lon="2.38615">
        <ele>59.599998474121</ele>
        <time>2015-06-01T19:47:21Z</time>
      </trkpt>
      <trkpt lat="48.89159" lon="2.38634">
        <ele>59.599998474121</ele>
        <time>2015-06-01T19:47:27Z</time>
      </trkpt>
      <trkpt lat="48.89168" lon="2.38655">
        <ele>59.599998474121</ele>
        <time>2015-06-01T19:47:33Z</time>
      </trkpt>
      <trkpt lat="48.89177" lon="2.38671">
        <ele>59.599998474121</ele>
        <time>2015-06-01T19:47:39Z</time>
      </trkpt>
      <trkpt lat="48.89184" lon="2.38671">
        <ele>59.599998474121</ele>
        <time>2015-06-01T19:47:42Z</time>
      </trkpt>
      <trkpt lat="48.89192" lon="2.38681">
        <ele>59.599998474121</ele>
        <time>2015-06-01T19:47:47Z</time>
      </trkpt>
      <trkpt lat="48.89195" lon="2.38684">
        <ele>59.599998474121</ele>
        <time>2015-06-01T19:47:48Z</time>
      </trkpt>
      <trkpt lat="48.89206" lon="2.38699">
        <ele>59</ele>
        <time>2015-06-01T19:47:53Z</time>
      </trkpt>
      <trkpt lat="48.89214" lon="2.38723">
        <ele>58.400001525879</ele>
        <time>2015-06-01T19:48:00Z</time>
      </trkpt>
      <trkpt lat="48.89221" lon="2.38739">
        <ele>58.20000076294</ele>
        <time>2015-06-01T19:48:03Z</time>
      </trkpt>
      <trkpt lat="48.89231" lon="2.38759">
        <ele>57.79999923706</ele>
        <time>2015-06-01T19:48:09Z</time>
      </trkpt>
      <trkpt lat="48.89241" lon="2.38777">
        <ele>57.599998474121</ele>
        <time>2015-06-01T19:48:14Z</time>
      </trkpt>
      <trkpt lat="48.89245" lon="2.3879">
        <ele>57.599998474121</ele>
        <time>2015-06-01T19:48:19Z</time>
      </trkpt>
      <trkpt lat="48.89247" lon="2.38796">
        <ele>57.599998474121</ele>
        <time>2015-06-01T19:48:23Z</time>
      </trkpt>
      <trkpt lat="48.89247" lon="2.38807">
        <ele>57.599998474121</ele>
        <time>2015-06-01T19:48:29Z</time>
      </trkpt>
      <trkpt lat="48.89241" lon="2.38816">
        <ele>57.400001525879</ele>
        <time>2015-06-01T19:48:35Z</time>
      </trkpt>
      <trkpt lat="48.89231" lon="2.38825">
        <ele>56.79999923706</ele>
        <time>2015-06-01T19:48:40Z</time>
      </trkpt>
      <trkpt lat="48.89229" lon="2.38827">
        <ele>56.599998474121</ele>
        <time>2015-06-01T19:48:41Z</time>
      </trkpt>
      <trkpt lat="48.89227" lon="2.38831">
        <ele>56.400001525879</ele>
        <time>2015-06-01T19:48:43Z</time>
      </trkpt>
      <trkpt lat="48.89222" lon="2.38842">
        <ele>55.400001525879</ele>
        <time>2015-06-01T19:48:48Z</time>
      </trkpt>
      <trkpt lat="48.89221" lon="2.38843">
        <ele>55.20000076294</ele>
        <time>2015-06-01T19:48:49Z</time>
      </trkpt>
      <trkpt lat="48.8922" lon="2.38847">
        <ele>54.400001525879</ele>
        <time>2015-06-01T19:48:55Z</time>
      </trkpt>
      <trkpt lat="48.89215" lon="2.38855">
        <ele>53.79999923706</ele>
        <time>2015-06-01T19:49:02Z</time>
      </trkpt>
      <trkpt lat="48.89207" lon="2.38866">
        <ele>53.599998474121</ele>
        <time>2015-06-01T19:49:08Z</time>
      </trkpt>
      <trkpt lat="48.89196" lon="2.38879">
        <ele>53.400001525879</ele>
        <time>2015-06-01T19:49:14Z</time>
      </trkpt>
      <trkpt lat="48.89187" lon="2.38893">
        <ele>53.400001525879</ele>
        <time>2015-06-01T19:49:19Z</time>
      </trkpt>
      <trkpt lat="48.89179" lon="2.38904">
        <ele>53.400001525879</ele>
        <time>2015-06-01T19:49:23Z</time>
      </trkpt>
      <trkpt lat="48.89166" lon="2.38923">
        <ele>54</ele>
        <time>2015-06-01T19:49:28Z</time>
      </trkpt>
      <trkpt lat="48.8915" lon="2.38941">
        <ele>54.400001525879</ele>
        <time>2015-06-01T19:49:33Z</time>
      </trkpt>
      <trkpt lat="48.89142" lon="2.38949">
        <ele>54.599998474121</ele>
        <time>2015-06-01T19:49:35Z</time>
      </trkpt>
      <trkpt lat="48.89132" lon="2.38959">
        <ele>54.79999923706</ele>
        <time>2015-06-01T19:49:39Z</time>
      </trkpt>
      <trkpt lat="48.89114" lon="2.38969">
        <ele>55.79999923706</ele>
        <time>2015-06-01T19:49:46Z</time>
      </trkpt>
      <trkpt lat="48.891" lon="2.38983">
        <ele>56.599998474121</ele>
        <time>2015-06-01T19:49:51Z</time>
      </trkpt>
      <trkpt lat="48.89089" lon="2.38989">
        <ele>57.20000076294</ele>
        <time>2015-06-01T19:49:54Z</time>
      </trkpt>
      <trkpt lat="48.89075" lon="2.39001">
        <ele>58.400001525879</ele>
        <time>2015-06-01T19:50:01Z</time>
      </trkpt>
      <trkpt lat="48.89061" lon="2.39014">
        <ele>58.79999923706</ele>
        <time>2015-06-01T19:50:06Z</time>
      </trkpt>
      <trkpt lat="48.8905" lon="2.39027">
        <ele>59</ele>
        <time>2015-06-01T19:50:09Z</time>
      </trkpt>
      <trkpt lat="48.89035" lon="2.39049">
        <ele>59.20000076294</ele>
        <time>2015-06-01T19:50:15Z</time>
      </trkpt>
      <trkpt lat="48.89018" lon="2.39069">
        <ele>59.400001525879</ele>
        <time>2015-06-01T19:50:19Z</time>
      </trkpt>
      <trkpt lat="48.89002" lon="2.39087">
        <ele>59.400001525879</ele>
        <time>2015-06-01T19:50:23Z</time>
      </trkpt>
      <trkpt lat="48.88998" lon="2.39091">
        <ele>59.400001525879</ele>
        <time>2015-06-01T19:50:24Z</time>
      </trkpt>
      <trkpt lat="48.88978" lon="2.39117">
        <ele>60.400001525879</ele>
        <time>2015-06-01T19:50:30Z</time>
      </trkpt>
      <trkpt lat="48.88969" lon="2.39128">
        <ele>60.79999923706</ele>
        <time>2015-06-01T19:50:33Z</time>
      </trkpt>
      <trkpt lat="48.88958" lon="2.3914">
        <ele>61</ele>
        <time>2015-06-01T19:50:38Z</time>
      </trkpt>
      <trkpt lat="48.88958" lon="2.3914">
        <ele>61.20000076294</ele>
        <time>2015-06-01T19:50:39Z</time>
      </trkpt>
      <trkpt lat="48.88947" lon="2.39147">
        <ele>61.20000076294</ele>
        <time>2015-06-01T19:50:42Z</time>
      </trkpt>
      <trkpt lat="48.88943" lon="2.3915">
        <ele>61.20000076294</ele>
        <time>2015-06-01T19:50:43Z</time>
      </trkpt>
      <trkpt lat="48.88927" lon="2.39163">
        <ele>61.400001525879</ele>
        <time>2015-06-01T19:50:46Z</time>
      </trkpt>
      <trkpt lat="48.88923" lon="2.39166">
        <ele>61.400001525879</ele>
        <time>2015-06-01T19:50:48Z</time>
      </trkpt>
      <trkpt lat="48.88912" lon="2.39171">
        <ele>61.400001525879</ele>
        <time>2015-06-01T19:50:51Z</time>
      </trkpt>
      <trkpt lat="48.88899" lon="2.3919">
        <ele>61</ele>
        <time>2015-06-01T19:50:56Z</time>
      </trkpt>
      <trkpt lat="48.88886" lon="2.39212">
        <ele>60.400001525879</ele>
        <time>2015-06-01T19:51:01Z</time>
      </trkpt>
      <trkpt lat="48.88881" lon="2.39225">
        <ele>60</ele>
        <time>2015-06-01T19:51:06Z</time>
      </trkpt>
      <trkpt lat="48.88878" lon="2.39227">
        <ele>59.599998474121</ele>
        <time>2015-06-01T19:51:21Z</time>
      </trkpt>
      <trkpt lat="48.88877" lon="2.39231">
        <ele>62</ele>
        <time>2015-06-01T19:51:52Z</time>
      </trkpt>
      <trkpt lat="48.88885" lon="2.39261">
        <ele>63.20000076294</ele>
        <time>2015-06-01T19:52:07Z</time>
      </trkpt>
      <trkpt lat="48.88888" lon="2.39279">
        <ele>63.400001525879</ele>
        <time>2015-06-01T19:52:11Z</time>
      </trkpt>
      <trkpt lat="48.88895" lon="2.39294">
        <ele>63.400001525879</ele>
        <time>2015-06-01T19:52:15Z</time>
      </trkpt>
      <trkpt lat="48.88903" lon="2.39312">
        <ele>62.599998474121</ele>
        <time>2015-06-01T19:52:21Z</time>
      </trkpt>
      <trkpt lat="48.88906" lon="2.3933">
        <ele>62.20000076294</ele>
        <time>2015-06-01T19:52:25Z</time>
      </trkpt>
      <trkpt lat="48.8891" lon="2.39356">
        <ele>62</ele>
        <time>2015-06-01T19:52:31Z</time>
      </trkpt>
      <trkpt lat="48.88916" lon="2.39381">
        <ele>61.79999923706</ele>
        <time>2015-06-01T19:52:36Z</time>
      </trkpt>
      <trkpt lat="48.88923" lon="2.39405">
        <ele>61.599998474121</ele>
        <time>2015-06-01T19:52:41Z</time>
      </trkpt>
      <trkpt lat="48.88928" lon="2.39433">
        <ele>61.599998474121</ele>
        <time>2015-06-01T19:52:46Z</time>
      </trkpt>
      <trkpt lat="48.88934" lon="2.3946">
        <ele>61.599998474121</ele>
        <time>2015-06-01T19:52:51Z</time>
      </trkpt>
      <trkpt lat="48.88941" lon="2.395">
        <ele>62.400001525879</ele>
        <time>2015-06-01T19:53:01Z</time>
      </trkpt>
      <trkpt lat="48.88955" lon="2.3953">
        <ele>63.79999923706</ele>
        <time>2015-06-01T19:53:09Z</time>
      </trkpt>
      <trkpt lat="48.8897" lon="2.39535">
        <ele>64.400001525879</ele>
        <time>2015-06-01T19:53:14Z</time>
      </trkpt>
      <trkpt lat="48.88985" lon="2.39534">
        <ele>65</ele>
        <time>2015-06-01T19:53:19Z</time>
      </trkpt>
      <trkpt lat="48.88998" lon="2.39525">
        <ele>65.199996948242</ele>
        <time>2015-06-01T19:53:24Z</time>
      </trkpt>
      <trkpt lat="48.89014" lon="2.39516">
        <ele>65.400001525879</ele>
        <time>2015-06-01T19:53:30Z</time>
      </trkpt>
      <trkpt lat="48.89026" lon="2.39511">
        <ele>65.599998474121</ele>
        <time>2015-06-01T19:53:33Z</time>
      </trkpt>
      <trkpt lat="48.89038" lon="2.3951">
        <ele>65.599998474121</ele>
        <time>2015-06-01T19:53:39Z</time>
      </trkpt>
      <trkpt lat="48.89049" lon="2.39504">
        <ele>65.599998474121</ele>
        <time>2015-06-01T19:53:44Z</time>
      </trkpt>
      <trkpt lat="48.89052" lon="2.39503">
        <ele>65.599998474121</ele>
        <time>2015-06-01T19:53:45Z</time>
      </trkpt>
      <trkpt lat="48.89054" lon="2.39504">
        <ele>65.599998474121</ele>
        <time>2015-06-01T19:53:48Z</time>
      </trkpt>
      <trkpt lat="48.89062" lon="2.39498">
        <ele>65.599998474121</ele>
        <time>2015-06-01T19:53:54Z</time>
      </trkpt>
      <trkpt lat="48.89071" lon="2.39492">
        <ele>65.800003051758</ele>
        <time>2015-06-01T19:53:58Z</time>
      </trkpt>
      <trkpt lat="48.89081" lon="2.3949">
        <ele>65.800003051758</ele>
        <time>2015-06-01T19:54:04Z</time>
      </trkpt>
      <trkpt lat="48.89091" lon="2.39487">
        <ele>65.800003051758</ele>
        <time>2015-06-01T19:54:09Z</time>
      </trkpt>
      <trkpt lat="48.89103" lon="2.39483">
        <ele>66.400001525879</ele>
        <time>2015-06-01T19:54:14Z</time>
      </trkpt>
      <trkpt lat="48.89111" lon="2.39481">
        <ele>66.800003051758</ele>
        <time>2015-06-01T19:54:18Z</time>
      </trkpt>
      <trkpt lat="48.89113" lon="2.39481">
        <ele>67</ele>
        <time>2015-06-01T19:54:19Z</time>
      </trkpt>
      <trkpt lat="48.89119" lon="2.39468">
        <ele>67.199996948242</ele>
        <time>2015-06-01T19:54:23Z</time>
      </trkpt>
      <trkpt lat="48.89119" lon="2.39464">
        <ele>67.400001525879</ele>
        <time>2015-06-01T19:54:24Z</time>
      </trkpt>
      <trkpt lat="48.89116" lon="2.39442">
        <ele>67.599998474121</ele>
        <time>2015-06-01T19:54:29Z</time>
      </trkpt>
      <trkpt lat="48.89107" lon="2.39432">
        <ele>67.599998474121</ele>
        <time>2015-06-01T19:54:33Z</time>
      </trkpt>
      <trkpt lat="48.89102" lon="2.39427">
        <ele>67.599998474121</ele>
        <time>2015-06-01T19:54:36Z</time>
      </trkpt>
      <trkpt lat="48.89102" lon="2.39422">
        <ele>67.800003051758</ele>
        <time>2015-06-01T19:54:41Z</time>
      </trkpt>
      <trkpt lat="48.89107" lon="2.39425">
        <ele>67.800003051758</ele>
        <time>2015-06-01T19:55:09Z</time>
      </trkpt>
      <trkpt lat="48.89106" lon="2.39428">
        <ele>67.800003051758</ele>
        <time>2015-06-01T19:55:15Z</time>
      </trkpt>
      <trkpt lat="48.89104" lon="2.39428">
        <ele>67.800003051758</ele>
        <time>2015-06-01T19:55:23Z</time>
      </trkpt>
      <trkpt lat="48.89113" lon="2.39421">
        <ele>75</ele>
        <time>2015-06-01T19:57:39Z</time>
      </trkpt>
      <trkpt lat="48.89112" lon="2.3942">
        <ele>75.599998474121</ele>
        <time>2015-06-01T19:57:45Z</time>
      </trkpt>
      <trkpt lat="48.8912" lon="2.39416">
        <ele>82</ele>
        <time>2015-06-01T20:00:20Z</time>
      </trkpt>
      <trkpt lat="48.89123" lon="2.39423">
        <ele>82</ele>
        <time>2015-06-01T20:00:24Z</time>
      </trkpt>
      <trkpt lat="48.89125" lon="2.39427">
        <ele>82</ele>
        <time>2015-06-01T20:00:26Z</time>
      </trkpt>
      <trkpt lat="48.89124" lon="2.39445">
        <ele>81.800003051758</ele>
        <time>2015-06-01T20:00:31Z</time>
      </trkpt>
      <trkpt lat="48.89125" lon="2.39458">
        <ele>81.400001525879</ele>
        <time>2015-06-01T20:00:33Z</time>
      </trkpt>
      <trkpt lat="48.89111" lon="2.39472">
        <ele>80.400001525879</ele>
        <time>2015-06-01T20:00:37Z</time>
      </trkpt>
      <trkpt lat="48.89098" lon="2.39468">
        <ele>79.800003051758</ele>
        <time>2015-06-01T20:00:40Z</time>
      </trkpt>
      <trkpt lat="48.89084" lon="2.39478">
        <ele>78.599998474121</ele>
        <time>2015-06-01T20:00:43Z</time>
      </trkpt>
      <trkpt lat="48.89075" lon="2.39477">
        <ele>78</ele>
        <time>2015-06-01T20:00:45Z</time>
      </trkpt>
      <trkpt lat="48.89065" lon="2.39477">
        <ele>77</ele>
        <time>2015-06-01T20:00:47Z</time>
      </trkpt>
      <trkpt lat="48.89052" lon="2.39484">
        <ele>76</ele>
        <time>2015-06-01T20:00:50Z</time>
      </trkpt>
      <trkpt lat="48.8903" lon="2.39503">
        <ele>74.599998474121</ele>
        <time>2015-06-01T20:00:55Z</time>
      </trkpt>
      <trkpt lat="48.89025" lon="2.39506">
        <ele>74.199996948242</ele>
        <time>2015-06-01T20:00:56Z</time>
      </trkpt>
      <trkpt lat="48.89014" lon="2.39511">
        <ele>73</ele>
        <time>2015-06-01T20:00:59Z</time>
      </trkpt>
      <trkpt lat="48.89008" lon="2.39515">
        <ele>72.199996948242</ele>
        <time>2015-06-01T20:01:00Z</time>
      </trkpt>
      <trkpt lat="48.88995" lon="2.39531">
        <ele>70.800003051758</ele>
        <time>2015-06-01T20:01:05Z</time>
      </trkpt>
      <trkpt lat="48.88992" lon="2.39534">
        <ele>70.400001525879</ele>
        <time>2015-06-01T20:01:06Z</time>
      </trkpt>
      <trkpt lat="48.88974" lon="2.39545">
        <ele>68.599998474121</ele>
        <time>2015-06-01T20:01:12Z</time>
      </trkpt>
      <trkpt lat="48.88971" lon="2.39547">
        <ele>68.400001525879</ele>
        <time>2015-06-01T20:01:13Z</time>
      </trkpt>
      <trkpt lat="48.88966" lon="2.39544">
        <ele>67.400001525879</ele>
        <time>2015-06-01T20:01:16Z</time>
      </trkpt>
      <trkpt lat="48.88965" lon="2.39545">
        <ele>65</ele>
        <time>2015-06-01T20:01:36Z</time>
      </trkpt>
      <trkpt lat="48.88964" lon="2.39547">
        <ele>64.199996948242</ele>
        <time>2015-06-01T20:01:41Z</time>
      </trkpt>
      <trkpt lat="48.88962" lon="2.39547">
        <ele>64</ele>
        <time>2015-06-01T20:01:43Z</time>
      </trkpt>
      <trkpt lat="48.88959" lon="2.39544">
        <ele>63.400001525879</ele>
        <time>2015-06-01T20:01:47Z</time>
      </trkpt>
      <trkpt lat="48.88962" lon="2.39545">
        <ele>63.400001525879</ele>
        <time>2015-06-01T20:01:48Z</time>
      </trkpt>
      <trkpt lat="48.88964" lon="2.39545">
        <ele>63</ele>
        <time>2015-06-01T20:01:55Z</time>
      </trkpt>
      <trkpt lat="48.88963" lon="2.39546">
        <ele>62.79999923706</ele>
        <time>2015-06-01T20:02:01Z</time>
      </trkpt>
      <trkpt lat="48.88959" lon="2.39544">
        <ele>62.79999923706</ele>
        <time>2015-06-01T20:02:05Z</time>
      </trkpt>
      <trkpt lat="48.88952" lon="2.3954">
        <ele>62.599998474121</ele>
        <time>2015-06-01T20:02:13Z</time>
      </trkpt>
      <trkpt lat="48.88952" lon="2.3954">
        <ele>62.599998474121</ele>
        <time>2015-06-01T20:02:21Z</time>
      </trkpt>
      <trkpt lat="48.88953" lon="2.39542">
        <ele>62.599998474121</ele>
        <time>2015-06-01T20:02:25Z</time>
      </trkpt>
      <trkpt lat="48.8896" lon="2.39539">
        <ele>62.599998474121</ele>
        <time>2015-06-01T20:02:30Z</time>
      </trkpt>
      <trkpt lat="48.88961" lon="2.39533">
        <ele>62.599998474121</ele>
        <time>2015-06-01T20:02:31Z</time>
      </trkpt>
      <trkpt lat="48.88961" lon="2.39523">
        <ele>62.599998474121</ele>
        <time>2015-06-01T20:02:35Z</time>
      </trkpt>
      <trkpt lat="48.8895" lon="2.39525">
        <ele>62.599998474121</ele>
        <time>2015-06-01T20:02:40Z</time>
      </trkpt>
      <trkpt lat="48.88939" lon="2.39525">
        <ele>62.599998474121</ele>
        <time>2015-06-01T20:02:44Z</time>
      </trkpt>
      <trkpt lat="48.88937" lon="2.39529">
        <ele>62.599998474121</ele>
        <time>2015-06-01T20:02:46Z</time>
      </trkpt>
      <trkpt lat="48.88936" lon="2.3953">
        <ele>62.599998474121</ele>
        <time>2015-06-01T20:02:48Z</time>
      </trkpt>
      <trkpt lat="48.8893" lon="2.39534">
        <ele>61.79999923706</ele>
        <time>2015-06-01T20:03:03Z</time>
      </trkpt>
      <trkpt lat="48.88926" lon="2.39526">
        <ele>61.400001525879</ele>
        <time>2015-06-01T20:03:08Z</time>
      </trkpt>
      <trkpt lat="48.88922" lon="2.39513">
        <ele>61</ele>
        <time>2015-06-01T20:03:13Z</time>
      </trkpt>
      <trkpt lat="48.88912" lon="2.39485">
        <ele>60.79999923706</ele>
        <time>2015-06-01T20:03:21Z</time>
      </trkpt>
      <trkpt lat="48.88902" lon="2.3946">
        <ele>60.599998474121</ele>
        <time>2015-06-01T20:03:27Z</time>
      </trkpt>
      <trkpt lat="48.88898" lon="2.3944">
        <ele>60.599998474121</ele>
        <time>2015-06-01T20:03:31Z</time>
      </trkpt>
      <trkpt lat="48.88897" lon="2.39435">
        <ele>60.599998474121</ele>
        <time>2015-06-01T20:03:32Z</time>
      </trkpt>
      <trkpt lat="48.88896" lon="2.39413">
        <ele>60.599998474121</ele>
        <time>2015-06-01T20:03:36Z</time>
      </trkpt>
      <trkpt lat="48.88892" lon="2.39402">
        <ele>60.599998474121</ele>
        <time>2015-06-01T20:03:38Z</time>
      </trkpt>
      <trkpt lat="48.88886" lon="2.39379">
        <ele>60.599998474121</ele>
        <time>2015-06-01T20:03:42Z</time>
      </trkpt>
      <trkpt lat="48.88879" lon="2.39352">
        <ele>59.79999923706</ele>
        <time>2015-06-01T20:03:46Z</time>
      </trkpt>
      <trkpt lat="48.88871" lon="2.3932">
        <ele>59.20000076294</ele>
        <time>2015-06-01T20:03:51Z</time>
      </trkpt>
      <trkpt lat="48.88866" lon="2.39317">
        <ele>59.20000076294</ele>
        <time>2015-06-01T20:03:54Z</time>
      </trkpt>
      <trkpt lat="48.88854" lon="2.39319">
        <ele>58</ele>
        <time>2015-06-01T20:04:01Z</time>
      </trkpt>
      <trkpt lat="48.88853" lon="2.3932">
        <ele>57.79999923706</ele>
        <time>2015-06-01T20:04:02Z</time>
      </trkpt>
      <trkpt lat="48.88854" lon="2.39323">
        <ele>57.20000076294</ele>
        <time>2015-06-01T20:04:08Z</time>
      </trkpt>
      <trkpt lat="48.88854" lon="2.39327">
        <ele>56.79999923706</ele>
        <time>2015-06-01T20:04:13Z</time>
      </trkpt>
      <trkpt lat="48.88852" lon="2.39329">
        <ele>56.599998474121</ele>
        <time>2015-06-01T20:04:15Z</time>
      </trkpt>
      <trkpt lat="48.88832" lon="2.39333">
        <ele>56.599998474121</ele>
        <time>2015-06-01T20:04:21Z</time>
      </trkpt>
      <trkpt lat="48.88812" lon="2.39342">
        <ele>56.400001525879</ele>
        <time>2015-06-01T20:04:26Z</time>
      </trkpt>
      <trkpt lat="48.88803" lon="2.39348">
        <ele>56.79999923706</ele>
        <time>2015-06-01T20:04:28Z</time>
      </trkpt>
      <trkpt lat="48.88781" lon="2.39356">
        <ele>57.400001525879</ele>
        <time>2015-06-01T20:04:32Z</time>
      </trkpt>
      <trkpt lat="48.88767" lon="2.39364">
        <ele>57.599998474121</ele>
        <time>2015-06-01T20:04:36Z</time>
      </trkpt>
      <trkpt lat="48.8875" lon="2.39368">
        <ele>58</ele>
        <time>2015-06-01T20:04:41Z</time>
      </trkpt>
      <trkpt lat="48.8874" lon="2.39376">
        <ele>58</ele>
        <time>2015-06-01T20:04:45Z</time>
      </trkpt>
      <trkpt lat="48.88737" lon="2.39375">
        <ele>58</ele>
        <time>2015-06-01T20:04:46Z</time>
      </trkpt>
      <trkpt lat="48.8872" lon="2.39379">
        <ele>59</ele>
        <time>2015-06-01T20:04:52Z</time>
      </trkpt>
      <trkpt lat="48.88705" lon="2.39384">
        <ele>59.599998474121</ele>
        <time>2015-06-01T20:04:58Z</time>
      </trkpt>
      <trkpt lat="48.88702" lon="2.39384">
        <ele>59.599998474121</ele>
        <time>2015-06-01T20:04:59Z</time>
      </trkpt>
      <trkpt lat="48.88691" lon="2.39388">
        <ele>60</ele>
        <time>2015-06-01T20:05:03Z</time>
      </trkpt>
      <trkpt lat="48.88675" lon="2.39388">
        <ele>60</ele>
        <time>2015-06-01T20:05:07Z</time>
      </trkpt>
      <trkpt lat="48.88663" lon="2.39392">
        <ele>60.79999923706</ele>
        <time>2015-06-01T20:05:12Z</time>
      </trkpt>
      <trkpt lat="48.88658" lon="2.39397">
        <ele>61.599998474121</ele>
        <time>2015-06-01T20:05:18Z</time>
      </trkpt>
      <trkpt lat="48.88646" lon="2.39403">
        <ele>70.199996948242</ele>
        <time>2015-06-01T20:05:44Z</time>
      </trkpt>
      <trkpt lat="48.88639" lon="2.39397">
        <ele>72</ele>
        <time>2015-06-01T20:05:48Z</time>
      </trkpt>
      <trkpt lat="48.88636" lon="2.39396">
        <ele>72.800003051758</ele>
        <time>2015-06-01T20:05:49Z</time>
      </trkpt>
      <trkpt lat="48.88628" lon="2.39401">
        <ele>74.800003051758</ele>
        <time>2015-06-01T20:05:54Z</time>
      </trkpt>
      <trkpt lat="48.88625" lon="2.39399">
        <ele>75.400001525879</ele>
        <time>2015-06-01T20:05:56Z</time>
      </trkpt>
      <trkpt lat="48.88601" lon="2.39389">
        <ele>79</ele>
        <time>2015-06-01T20:06:07Z</time>
      </trkpt>
      <trkpt lat="48.88587" lon="2.39382">
        <ele>79.800003051758</ele>
        <time>2015-06-01T20:06:13Z</time>
      </trkpt>
      <trkpt lat="48.88571" lon="2.39372">
        <ele>80.199996948242</ele>
        <time>2015-06-01T20:06:20Z</time>
      </trkpt>
      <trkpt lat="48.88564" lon="2.39364">
        <ele>80.199996948242</ele>
        <time>2015-06-01T20:06:23Z</time>
      </trkpt>
      <trkpt lat="48.88553" lon="2.39345">
        <ele>80.400001525879</ele>
        <time>2015-06-01T20:06:27Z</time>
      </trkpt>
      <trkpt lat="48.88541" lon="2.39327">
        <ele>80.400001525879</ele>
        <time>2015-06-01T20:06:30Z</time>
      </trkpt>
      <trkpt lat="48.88531" lon="2.39311">
        <ele>80.400001525879</ele>
        <time>2015-06-01T20:06:33Z</time>
      </trkpt>
      <trkpt lat="48.88511" lon="2.39281">
        <ele>79.800003051758</ele>
        <time>2015-06-01T20:06:38Z</time>
      </trkpt>
      <trkpt lat="48.88498" lon="2.39262">
        <ele>79.400001525879</ele>
        <time>2015-06-01T20:06:42Z</time>
      </trkpt>
      <trkpt lat="48.88495" lon="2.39257">
        <ele>79.199996948242</ele>
        <time>2015-06-01T20:06:43Z</time>
      </trkpt>
      <trkpt lat="48.8849" lon="2.3925">
        <ele>79.199996948242</ele>
        <time>2015-06-01T20:06:45Z</time>
      </trkpt>
      <trkpt lat="48.88475" lon="2.39225">
        <ele>78.800003051758</ele>
        <time>2015-06-01T20:06:49Z</time>
      </trkpt>
      <trkpt lat="48.88465" lon="2.392">
        <ele>78.400001525879</ele>
        <time>2015-06-01T20:06:52Z</time>
      </trkpt>
      <trkpt lat="48.88455" lon="2.39174">
        <ele>77.800003051758</ele>
        <time>2015-06-01T20:06:55Z</time>
      </trkpt>
      <trkpt lat="48.88452" lon="2.39166">
        <ele>77.599998474121</ele>
        <time>2015-06-01T20:06:56Z</time>
      </trkpt>
      <trkpt lat="48.88442" lon="2.3914">
        <ele>77.400001525879</ele>
        <time>2015-06-01T20:06:59Z</time>
      </trkpt>
      <trkpt lat="48.88428" lon="2.39111">
        <ele>77</ele>
        <time>2015-06-01T20:07:02Z</time>
      </trkpt>
      <trkpt lat="48.88425" lon="2.39105">
        <ele>77</ele>
        <time>2015-06-01T20:07:03Z</time>
      </trkpt>
      <trkpt lat="48.8841" lon="2.39067">
        <ele>76.800003051758</ele>
        <time>2015-06-01T20:07:07Z</time>
      </trkpt>
      <trkpt lat="48.88406" lon="2.39057">
        <ele>76.800003051758</ele>
        <time>2015-06-01T20:07:08Z</time>
      </trkpt>
      <trkpt lat="48.88401" lon="2.39042">
        <ele>76.599998474121</ele>
        <time>2015-06-01T20:07:10Z</time>
      </trkpt>
      <trkpt lat="48.88388" lon="2.39011">
        <ele>76</ele>
        <time>2015-06-01T20:07:14Z</time>
      </trkpt>
      <trkpt lat="48.88387" lon="2.39007">
        <ele>75.800003051758</ele>
        <time>2015-06-01T20:07:15Z</time>
      </trkpt>
      <trkpt lat="48.88378" lon="2.38984">
        <ele>75.400001525879</ele>
        <time>2015-06-01T20:07:18Z</time>
      </trkpt>
      <trkpt lat="48.88372" lon="2.38963">
        <ele>75.199996948242</ele>
        <time>2015-06-01T20:07:21Z</time>
      </trkpt>
      <trkpt lat="48.88363" lon="2.38938">
        <ele>75</ele>
        <time>2015-06-01T20:07:24Z</time>
      </trkpt>
      <trkpt lat="48.88358" lon="2.38915">
        <ele>74.800003051758</ele>
        <time>2015-06-01T20:07:27Z</time>
      </trkpt>
      <trkpt lat="48.88347" lon="2.38879">
        <ele>74.599998474121</ele>
        <time>2015-06-01T20:07:31Z</time>
      </trkpt>
      <trkpt lat="48.88343" lon="2.38865">
        <ele>74.599998474121</ele>
        <time>2015-06-01T20:07:33Z</time>
      </trkpt>
      <trkpt lat="48.88336" lon="2.38823">
        <ele>74.400001525879</ele>
        <time>2015-06-01T20:07:38Z</time>
      </trkpt>
      <trkpt lat="48.88335" lon="2.38818">
        <ele>74.400001525879</ele>
        <time>2015-06-01T20:07:39Z</time>
      </trkpt>
      <trkpt lat="48.88332" lon="2.38792">
        <ele>74.400001525879</ele>
        <time>2015-06-01T20:07:43Z</time>
      </trkpt>
      <trkpt lat="48.8833" lon="2.3879">
        <ele>74.400001525879</ele>
        <time>2015-06-01T20:07:49Z</time>
      </trkpt>
      <trkpt lat="48.88328" lon="2.38791">
        <ele>74.400001525879</ele>
        <time>2015-06-01T20:07:57Z</time>
      </trkpt>
      <trkpt lat="48.8832" lon="2.38792">
        <ele>77.400001525879</ele>
        <time>2015-06-01T20:08:21Z</time>
      </trkpt>
      <trkpt lat="48.88322" lon="2.38775">
        <ele>78.199996948242</ele>
        <time>2015-06-01T20:08:25Z</time>
      </trkpt>
      <trkpt lat="48.88322" lon="2.3877">
        <ele>78.400001525879</ele>
        <time>2015-06-01T20:08:26Z</time>
      </trkpt>
      <trkpt lat="48.88322" lon="2.38741">
        <ele>79</ele>
        <time>2015-06-01T20:08:29Z</time>
      </trkpt>
      <trkpt lat="48.8832" lon="2.3871">
        <ele>79.599998474121</ele>
        <time>2015-06-01T20:08:33Z</time>
      </trkpt>
      <trkpt lat="48.88319" lon="2.38701">
        <ele>79.800003051758</ele>
        <time>2015-06-01T20:08:34Z</time>
      </trkpt>
      <trkpt lat="48.88319" lon="2.38695">
        <ele>79.800003051758</ele>
        <time>2015-06-01T20:08:35Z</time>
      </trkpt>
      <trkpt lat="48.8832" lon="2.38684">
        <ele>80</ele>
        <time>2015-06-01T20:08:37Z</time>
      </trkpt>
      <trkpt lat="48.88317" lon="2.38654">
        <ele>80.400001525879</ele>
        <time>2015-06-01T20:08:43Z</time>
      </trkpt>
      <trkpt lat="48.88318" lon="2.38641">
        <ele>80.400001525879</ele>
        <time>2015-06-01T20:08:45Z</time>
      </trkpt>
      <trkpt lat="48.88316" lon="2.38606">
        <ele>79.800003051758</ele>
        <time>2015-06-01T20:08:51Z</time>
      </trkpt>
      <trkpt lat="48.8831" lon="2.38581">
        <ele>79.400001525879</ele>
        <time>2015-06-01T20:08:56Z</time>
      </trkpt>
      <trkpt lat="48.88305" lon="2.38552">
        <ele>79</ele>
        <time>2015-06-01T20:09:01Z</time>
      </trkpt>
      <trkpt lat="48.883" lon="2.38531">
        <ele>78.599998474121</ele>
        <time>2015-06-01T20:09:04Z</time>
      </trkpt>
      <trkpt lat="48.88297" lon="2.38497">
        <ele>77.800003051758</ele>
        <time>2015-06-01T20:09:08Z</time>
      </trkpt>
      <trkpt lat="48.88295" lon="2.3848">
        <ele>77.599998474121</ele>
        <time>2015-06-01T20:09:10Z</time>
      </trkpt>
      <trkpt lat="48.88293" lon="2.3847">
        <ele>77.599998474121</ele>
        <time>2015-06-01T20:09:11Z</time>
      </trkpt>
      <trkpt lat="48.88288" lon="2.38433">
        <ele>77.199996948242</ele>
        <time>2015-06-01T20:09:15Z</time>
      </trkpt>
      <trkpt lat="48.88286" lon="2.38424">
        <ele>77.199996948242</ele>
        <time>2015-06-01T20:09:16Z</time>
      </trkpt>
      <trkpt lat="48.88279" lon="2.38395">
        <ele>77</ele>
        <time>2015-06-01T20:09:19Z</time>
      </trkpt>
      <trkpt lat="48.88273" lon="2.38363">
        <ele>76.800003051758</ele>
        <time>2015-06-01T20:09:22Z</time>
      </trkpt>
      <trkpt lat="48.88265" lon="2.3833">
        <ele>76.400001525879</ele>
        <time>2015-06-01T20:09:25Z</time>
      </trkpt>
      <trkpt lat="48.88257" lon="2.38301">
        <ele>75.800003051758</ele>
        <time>2015-06-01T20:09:28Z</time>
      </trkpt>
      <trkpt lat="48.88252" lon="2.38283">
        <ele>75.599998474121</ele>
        <time>2015-06-01T20:09:30Z</time>
      </trkpt>
      <trkpt lat="48.88246" lon="2.38253">
        <ele>75.199996948242</ele>
        <time>2015-06-01T20:09:34Z</time>
      </trkpt>
      <trkpt lat="48.88237" lon="2.38229">
        <ele>74.199996948242</ele>
        <time>2015-06-01T20:09:38Z</time>
      </trkpt>
      <trkpt lat="48.88231" lon="2.38218">
        <ele>74</ele>
        <time>2015-06-01T20:09:40Z</time>
      </trkpt>
      <trkpt lat="48.88225" lon="2.38201">
        <ele>73.599998474121</ele>
        <time>2015-06-01T20:09:43Z</time>
      </trkpt>
      <trkpt lat="48.88223" lon="2.38196">
        <ele>73.400001525879</ele>
        <time>2015-06-01T20:09:44Z</time>
      </trkpt>
      <trkpt lat="48.88222" lon="2.38192">
        <ele>73.400001525879</ele>
        <time>2015-06-01T20:09:45Z</time>
      </trkpt>
      <trkpt lat="48.88213" lon="2.38178">
        <ele>73</ele>
        <time>2015-06-01T20:09:49Z</time>
      </trkpt>
      <trkpt lat="48.88199" lon="2.38158">
        <ele>72</ele>
        <time>2015-06-01T20:09:54Z</time>
      </trkpt>
      <trkpt lat="48.88185" lon="2.3814">
        <ele>71.400001525879</ele>
        <time>2015-06-01T20:09:58Z</time>
      </trkpt>
      <trkpt lat="48.8818" lon="2.38134">
        <ele>71.400001525879</ele>
        <time>2015-06-01T20:09:59Z</time>
      </trkpt>
      <trkpt lat="48.88166" lon="2.38114">
        <ele>71</ele>
        <time>2015-06-01T20:10:03Z</time>
      </trkpt>
      <trkpt lat="48.88162" lon="2.3811">
        <ele>71</ele>
        <time>2015-06-01T20:10:04Z</time>
      </trkpt>
      <trkpt lat="48.88154" lon="2.381">
        <ele>70.800003051758</ele>
        <time>2015-06-01T20:10:07Z</time>
      </trkpt>
      <trkpt lat="48.8815" lon="2.38091">
        <ele>70.800003051758</ele>
        <time>2015-06-01T20:10:09Z</time>
      </trkpt>
      <trkpt lat="48.88141" lon="2.38076">
        <ele>70.599998474121</ele>
        <time>2015-06-01T20:10:13Z</time>
      </trkpt>
      <trkpt lat="48.88138" lon="2.38067">
        <ele>69.599998474121</ele>
        <time>2015-06-01T20:10:19Z</time>
      </trkpt>
      <trkpt lat="48.88139" lon="2.38067">
        <ele>69</ele>
        <time>2015-06-01T20:10:25Z</time>
      </trkpt>
      <trkpt lat="48.88136" lon="2.38065">
        <ele>66.400001525879</ele>
        <time>2015-06-01T20:10:52Z</time>
      </trkpt>
      <trkpt lat="48.88127" lon="2.38055">
        <ele>66.199996948242</ele>
        <time>2015-06-01T20:10:56Z</time>
      </trkpt>
      <trkpt lat="48.88111" lon="2.38039">
        <ele>66.199996948242</ele>
        <time>2015-06-01T20:11:01Z</time>
      </trkpt>
      <trkpt lat="48.88097" lon="2.38021">
        <ele>66.199996948242</ele>
        <time>2015-06-01T20:11:05Z</time>
      </trkpt>
      <trkpt lat="48.88093" lon="2.38016">
        <ele>66.199996948242</ele>
        <time>2015-06-01T20:11:06Z</time>
      </trkpt>
      <trkpt lat="48.88083" lon="2.38002">
        <ele>66.199996948242</ele>
        <time>2015-06-01T20:11:09Z</time>
      </trkpt>
      <trkpt lat="48.88064" lon="2.37982">
        <ele>66.199996948242</ele>
        <time>2015-06-01T20:11:14Z</time>
      </trkpt>
      <trkpt lat="48.88046" lon="2.37968">
        <ele>66.199996948242</ele>
        <time>2015-06-01T20:11:18Z</time>
      </trkpt>
      <trkpt lat="48.88031" lon="2.37954">
        <ele>66.199996948242</ele>
        <time>2015-06-01T20:11:21Z</time>
      </trkpt>
      <trkpt lat="48.88021" lon="2.37948">
        <ele>66.199996948242</ele>
        <time>2015-06-01T20:11:23Z</time>
      </trkpt>
      <trkpt lat="48.87998" lon="2.37925">
        <ele>66.199996948242</ele>
        <time>2015-06-01T20:11:28Z</time>
      </trkpt>
      <trkpt lat="48.87988" lon="2.37918">
        <ele>66.199996948242</ele>
        <time>2015-06-01T20:11:30Z</time>
      </trkpt>
      <trkpt lat="48.87978" lon="2.37913">
        <ele>66.199996948242</ele>
        <time>2015-06-01T20:11:32Z</time>
      </trkpt>
      <trkpt lat="48.87961" lon="2.37903">
        <ele>66.199996948242</ele>
        <time>2015-06-01T20:11:36Z</time>
      </trkpt>
      <trkpt lat="48.87938" lon="2.37891">
        <ele>66.199996948242</ele>
        <time>2015-06-01T20:11:41Z</time>
      </trkpt>
      <trkpt lat="48.87934" lon="2.37888">
        <ele>66.199996948242</ele>
        <time>2015-06-01T20:11:42Z</time>
      </trkpt>
      <trkpt lat="48.87927" lon="2.37883">
        <ele>66.199996948242</ele>
        <time>2015-06-01T20:11:44Z</time>
      </trkpt>
      <trkpt lat="48.8791" lon="2.37869">
        <ele>66.199996948242</ele>
        <time>2015-06-01T20:11:50Z</time>
      </trkpt>
      <trkpt lat="48.87895" lon="2.37859">
        <ele>66.199996948242</ele>
        <time>2015-06-01T20:11:56Z</time>
      </trkpt>
      <trkpt lat="48.87882" lon="2.37851">
        <ele>67</ele>
        <time>2015-06-01T20:12:01Z</time>
      </trkpt>
      <trkpt lat="48.87875" lon="2.37849">
        <ele>67.199996948242</ele>
        <time>2015-06-01T20:12:03Z</time>
      </trkpt>
      <trkpt lat="48.87858" lon="2.3784">
        <ele>67.599998474121</ele>
        <time>2015-06-01T20:12:09Z</time>
      </trkpt>
      <trkpt lat="48.87845" lon="2.37836">
        <ele>68.599998474121</ele>
        <time>2015-06-01T20:12:13Z</time>
      </trkpt>
      <trkpt lat="48.87824" lon="2.37832">
        <ele>69.400001525879</ele>
        <time>2015-06-01T20:12:19Z</time>
      </trkpt>
      <trkpt lat="48.87805" lon="2.37834">
        <ele>70</ele>
        <time>2015-06-01T20:12:24Z</time>
      </trkpt>
      <trkpt lat="48.87787" lon="2.37833">
        <ele>70.800003051758</ele>
        <time>2015-06-01T20:12:28Z</time>
      </trkpt>
      <trkpt lat="48.87765" lon="2.37842">
        <ele>71.599998474121</ele>
        <time>2015-06-01T20:12:34Z</time>
      </trkpt>
      <trkpt lat="48.87762" lon="2.37844">
        <ele>71.800003051758</ele>
        <time>2015-06-01T20:12:35Z</time>
      </trkpt>
      <trkpt lat="48.87751" lon="2.37849">
        <ele>72</ele>
        <time>2015-06-01T20:12:38Z</time>
      </trkpt>
      <trkpt lat="48.87742" lon="2.37856">
        <ele>72.599998474121</ele>
        <time>2015-06-01T20:12:41Z</time>
      </trkpt>
      <trkpt lat="48.87728" lon="2.37868">
        <ele>73.400001525879</ele>
        <time>2015-06-01T20:12:46Z</time>
      </trkpt>
      <trkpt lat="48.87716" lon="2.37881">
        <ele>74</ele>
        <time>2015-06-01T20:12:50Z</time>
      </trkpt>
      <trkpt lat="48.87707" lon="2.3789">
        <ele>74.599998474121</ele>
        <time>2015-06-01T20:12:53Z</time>
      </trkpt>
      <trkpt lat="48.87695" lon="2.37906">
        <ele>75.400001525879</ele>
        <time>2015-06-01T20:12:58Z</time>
      </trkpt>
      <trkpt lat="48.87681" lon="2.37923">
        <ele>76.599998474121</ele>
        <time>2015-06-01T20:13:03Z</time>
      </trkpt>
      <trkpt lat="48.87668" lon="2.37944">
        <ele>77.599998474121</ele>
        <time>2015-06-01T20:13:08Z</time>
      </trkpt>
      <trkpt lat="48.87655" lon="2.37963">
        <ele>79</ele>
        <time>2015-06-01T20:13:13Z</time>
      </trkpt>
      <trkpt lat="48.87642" lon="2.37985">
        <ele>79.800003051758</ele>
        <time>2015-06-01T20:13:19Z</time>
      </trkpt>
      <trkpt lat="48.87636" lon="2.37994">
        <ele>80.199996948242</ele>
        <time>2015-06-01T20:13:23Z</time>
      </trkpt>
      <trkpt lat="48.87634" lon="2.37991">
        <ele>80.599998474121</ele>
        <time>2015-06-01T20:13:31Z</time>
      </trkpt>
      <trkpt lat="48.87639" lon="2.37991">
        <ele>80.800003051758</ele>
        <time>2015-06-01T20:13:44Z</time>
      </trkpt>
      <trkpt lat="48.87642" lon="2.37994">
        <ele>80.800003051758</ele>
        <time>2015-06-01T20:13:49Z</time>
      </trkpt>
      <trkpt lat="48.87645" lon="2.37994">
        <ele>80.800003051758</ele>
        <time>2015-06-01T20:13:56Z</time>
      </trkpt>
      <trkpt lat="48.87645" lon="2.37998">
        <ele>81</ele>
        <time>2015-06-01T20:14:01Z</time>
      </trkpt>
      <trkpt lat="48.87645" lon="2.38">
        <ele>81</ele>
        <time>2015-06-01T20:14:02Z</time>
      </trkpt>
      <trkpt lat="48.87642" lon="2.38005">
        <ele>81</ele>
        <time>2015-06-01T20:14:06Z</time>
      </trkpt>
      <trkpt lat="48.8764" lon="2.38009">
        <ele>81</ele>
        <time>2015-06-01T20:14:08Z</time>
      </trkpt>
      <trkpt lat="48.87641" lon="2.38011">
        <ele>82</ele>
        <time>2015-06-01T20:14:16Z</time>
      </trkpt>
      <trkpt lat="48.87639" lon="2.38013">
        <ele>82.599998474121</ele>
        <time>2015-06-01T20:14:23Z</time>
      </trkpt>
      <trkpt lat="48.87635" lon="2.38019">
        <ele>83.199996948242</ele>
        <time>2015-06-01T20:14:28Z</time>
      </trkpt>
      <trkpt lat="48.87631" lon="2.3803">
        <ele>83.800003051758</ele>
        <time>2015-06-01T20:14:31Z</time>
      </trkpt>
      <trkpt lat="48.87626" lon="2.38038">
        <ele>84.199996948242</ele>
        <time>2015-06-01T20:14:34Z</time>
      </trkpt>
      <trkpt lat="48.87621" lon="2.3803">
        <ele>86</ele>
        <time>2015-06-01T20:15:27Z</time>
      </trkpt>
      <trkpt lat="48.87629" lon="2.38028">
        <ele>88.400001525879</ele>
        <time>2015-06-01T20:15:38Z</time>
      </trkpt>
      <trkpt lat="48.87631" lon="2.38026">
        <ele>89.400001525879</ele>
        <time>2015-06-01T20:15:43Z</time>
      </trkpt>
      <trkpt lat="48.87633" lon="2.38025">
        <ele>90.800003051758</ele>
        <time>2015-06-01T20:15:48Z</time>
      </trkpt>
      <trkpt lat="48.87638" lon="2.3802">
        <ele>91.400001525879</ele>
        <time>2015-06-01T20:15:52Z</time>
      </trkpt>
      <trkpt lat="48.8764" lon="2.3802">
        <ele>91.800003051758</ele>
        <time>2015-06-01T20:15:56Z</time>
      </trkpt>
      <trkpt lat="48.87641" lon="2.38023">
        <ele>92</ele>
        <time>2015-06-01T20:16:00Z</time>
      </trkpt>
      <trkpt lat="48.87636" lon="2.38022">
        <ele>92</ele>
        <time>2015-06-01T20:16:10Z</time>
      </trkpt>
      <trkpt lat="48.87635" lon="2.38022">
        <ele>91.199996948242</ele>
        <time>2015-06-01T20:16:17Z</time>
      </trkpt>
      <trkpt lat="48.87634" lon="2.3802">
        <ele>90.800003051758</ele>
        <time>2015-06-01T20:16:23Z</time>
      </trkpt>
      <trkpt lat="48.8763" lon="2.3802">
        <ele>91.800003051758</ele>
        <time>2015-06-01T20:16:45Z</time>
      </trkpt>
      <trkpt lat="48.87628" lon="2.38031">
        <ele>92.199996948242</ele>
        <time>2015-06-01T20:16:57Z</time>
      </trkpt>
      <trkpt lat="48.87625" lon="2.38049">
        <ele>92.400001525879</ele>
        <time>2015-06-01T20:17:04Z</time>
      </trkpt>
      <trkpt lat="48.87623" lon="2.38064">
        <ele>92.400001525879</ele>
        <time>2015-06-01T20:17:10Z</time>
      </trkpt>
      <trkpt lat="48.87618" lon="2.38075">
        <ele>92.400001525879</ele>
        <time>2015-06-01T20:17:15Z</time>
      </trkpt>
      <trkpt lat="48.87618" lon="2.38078">
        <ele>92.400001525879</ele>
        <time>2015-06-01T20:17:16Z</time>
      </trkpt>
      <trkpt lat="48.87616" lon="2.38087">
        <ele>92.400001525879</ele>
        <time>2015-06-01T20:17:20Z</time>
      </trkpt>
      <trkpt lat="48.87612" lon="2.38096">
        <ele>92.400001525879</ele>
        <time>2015-06-01T20:17:24Z</time>
      </trkpt>
      <trkpt lat="48.87601" lon="2.38114">
        <ele>92.400001525879</ele>
        <time>2015-06-01T20:17:28Z</time>
      </trkpt>
      <trkpt lat="48.8759" lon="2.3814">
        <ele>92.400001525879</ele>
        <time>2015-06-01T20:17:32Z</time>
      </trkpt>
      <trkpt lat="48.87587" lon="2.38145">
        <ele>92.400001525879</ele>
        <time>2015-06-01T20:17:33Z</time>
      </trkpt>
      <trkpt lat="48.87582" lon="2.38152">
        <ele>92.599998474121</ele>
        <time>2015-06-01T20:17:35Z</time>
      </trkpt>
      <trkpt lat="48.87578" lon="2.3816">
        <ele>93</ele>
        <time>2015-06-01T20:17:37Z</time>
      </trkpt>
      <trkpt lat="48.87562" lon="2.38186">
        <ele>93.599998474121</ele>
        <time>2015-06-01T20:17:43Z</time>
      </trkpt>
      <trkpt lat="48.87547" lon="2.38204">
        <ele>94</ele>
        <time>2015-06-01T20:17:49Z</time>
      </trkpt>
      <trkpt lat="48.87537" lon="2.38224">
        <ele>94.199996948242</ele>
        <time>2015-06-01T20:17:54Z</time>
      </trkpt>
      <trkpt lat="48.87526" lon="2.38238">
        <ele>94.400001525879</ele>
        <time>2015-06-01T20:17:59Z</time>
      </trkpt>
      <trkpt lat="48.87521" lon="2.3824">
        <ele>94.599998474121</ele>
        <time>2015-06-01T20:18:04Z</time>
      </trkpt>
      <trkpt lat="48.87518" lon="2.38242">
        <ele>98.199996948242</ele>
        <time>2015-06-01T20:18:26Z</time>
      </trkpt>
      <trkpt lat="48.87518" lon="2.38242">
        <ele>98.400001525879</ele>
        <time>2015-06-01T20:18:27Z</time>
      </trkpt>
      <trkpt lat="48.87519" lon="2.38243">
        <ele>98.800003051758</ele>
        <time>2015-06-01T20:18:29Z</time>
      </trkpt>
      <trkpt lat="48.87511" lon="2.38251">
        <ele>99.599998474121</ele>
        <time>2015-06-01T20:18:35Z</time>
      </trkpt>
      <trkpt lat="48.87507" lon="2.38257">
        <ele>100.19999694824</ele>
        <time>2015-06-01T20:18:39Z</time>
      </trkpt>
      <trkpt lat="48.87504" lon="2.38266">
        <ele>101</ele>
        <time>2015-06-01T20:18:42Z</time>
      </trkpt>
      <trkpt lat="48.87491" lon="2.38283">
        <ele>101.59999847412</ele>
        <time>2015-06-01T20:18:47Z</time>
      </trkpt>
      <trkpt lat="48.87477" lon="2.38305">
        <ele>102</ele>
        <time>2015-06-01T20:18:52Z</time>
      </trkpt>
      <trkpt lat="48.87474" lon="2.38311">
        <ele>102.19999694824</ele>
        <time>2015-06-01T20:18:53Z</time>
      </trkpt>
      <trkpt lat="48.87465" lon="2.38325">
        <ele>102.40000152588</ele>
        <time>2015-06-01T20:18:56Z</time>
      </trkpt>
      <trkpt lat="48.87457" lon="2.38334">
        <ele>102.40000152588</ele>
        <time>2015-06-01T20:18:58Z</time>
      </trkpt>
      <trkpt lat="48.87442" lon="2.38356">
        <ele>102.59999847412</ele>
        <time>2015-06-01T20:19:02Z</time>
      </trkpt>
      <trkpt lat="48.87439" lon="2.38363">
        <ele>102.59999847412</ele>
        <time>2015-06-01T20:19:03Z</time>
      </trkpt>
      <trkpt lat="48.87426" lon="2.38386">
        <ele>103</ele>
        <time>2015-06-01T20:19:07Z</time>
      </trkpt>
      <trkpt lat="48.87414" lon="2.38414">
        <ele>103.59999847412</ele>
        <time>2015-06-01T20:19:11Z</time>
      </trkpt>
      <trkpt lat="48.87412" lon="2.38422">
        <ele>103.80000305176</ele>
        <time>2015-06-01T20:19:12Z</time>
      </trkpt>
      <trkpt lat="48.87408" lon="2.38443">
        <ele>104</ele>
        <time>2015-06-01T20:19:15Z</time>
      </trkpt>
      <trkpt lat="48.87404" lon="2.38471">
        <ele>104.40000152588</ele>
        <time>2015-06-01T20:19:19Z</time>
      </trkpt>
      <trkpt lat="48.87402" lon="2.38488">
        <ele>104.40000152588</ele>
        <time>2015-06-01T20:19:22Z</time>
      </trkpt>
      <trkpt lat="48.874" lon="2.38509">
        <ele>104.59999847412</ele>
        <time>2015-06-01T20:19:28Z</time>
      </trkpt>
      <trkpt lat="48.874" lon="2.3851">
        <ele>104.59999847412</ele>
        <time>2015-06-01T20:19:29Z</time>
      </trkpt>
      <trkpt lat="48.874" lon="2.38511">
        <ele>104.59999847412</ele>
        <time>2015-06-01T20:19:33Z</time>
      </trkpt>
      <trkpt lat="48.87401" lon="2.38535">
        <ele>104.80000305176</ele>
        <time>2015-06-01T20:19:39Z</time>
      </trkpt>
      <trkpt lat="48.874" lon="2.38552">
        <ele>104.80000305176</ele>
        <time>2015-06-01T20:19:42Z</time>
      </trkpt>
      <trkpt lat="48.87395" lon="2.38615">
        <ele>104.80000305176</ele>
        <time>2015-06-01T20:19:51Z</time>
      </trkpt>
      <trkpt lat="48.87394" lon="2.38629">
        <ele>104.80000305176</ele>
        <time>2015-06-01T20:19:53Z</time>
      </trkpt>
      <trkpt lat="48.87389" lon="2.38656">
        <ele>104.80000305176</ele>
        <time>2015-06-01T20:19:57Z</time>
      </trkpt>
      <trkpt lat="48.87387" lon="2.38671">
        <ele>104.80000305176</ele>
        <time>2015-06-01T20:19:59Z</time>
      </trkpt>
      <trkpt lat="48.87388" lon="2.38713">
        <ele>104.80000305176</ele>
        <time>2015-06-01T20:20:04Z</time>
      </trkpt>
      <trkpt lat="48.87387" lon="2.3872">
        <ele>104.80000305176</ele>
        <time>2015-06-01T20:20:05Z</time>
      </trkpt>
      <trkpt lat="48.87386" lon="2.38736">
        <ele>104.80000305176</ele>
        <time>2015-06-01T20:20:07Z</time>
      </trkpt>
      <trkpt lat="48.87383" lon="2.38774">
        <ele>104.80000305176</ele>
        <time>2015-06-01T20:20:12Z</time>
      </trkpt>
      <trkpt lat="48.8738" lon="2.38798">
        <ele>104.80000305176</ele>
        <time>2015-06-01T20:20:15Z</time>
      </trkpt>
      <trkpt lat="48.87378" lon="2.38829">
        <ele>104.80000305176</ele>
        <time>2015-06-01T20:20:19Z</time>
      </trkpt>
      <trkpt lat="48.87376" lon="2.38868">
        <ele>104.80000305176</ele>
        <time>2015-06-01T20:20:24Z</time>
      </trkpt>
      <trkpt lat="48.87375" lon="2.38876">
        <ele>104.80000305176</ele>
        <time>2015-06-01T20:20:25Z</time>
      </trkpt>
      <trkpt lat="48.87373" lon="2.38892">
        <ele>104.80000305176</ele>
        <time>2015-06-01T20:20:27Z</time>
      </trkpt>
      <trkpt lat="48.87373" lon="2.38908">
        <ele>104.80000305176</ele>
        <time>2015-06-01T20:20:29Z</time>
      </trkpt>
      <trkpt lat="48.87372" lon="2.38938">
        <ele>104.40000152588</ele>
        <time>2015-06-01T20:20:33Z</time>
      </trkpt>
      <trkpt lat="48.87371" lon="2.38945">
        <ele>104.19999694824</ele>
        <time>2015-06-01T20:20:34Z</time>
      </trkpt>
      <trkpt lat="48.87369" lon="2.38951">
        <ele>104</ele>
        <time>2015-06-01T20:20:35Z</time>
      </trkpt>
      <trkpt lat="48.87368" lon="2.38958">
        <ele>104</ele>
        <time>2015-06-01T20:20:36Z</time>
      </trkpt>
      <trkpt lat="48.87357" lon="2.38981">
        <ele>103.40000152588</ele>
        <time>2015-06-01T20:20:40Z</time>
      </trkpt>
      <trkpt lat="48.87346" lon="2.38999">
        <ele>103.19999694824</ele>
        <time>2015-06-01T20:20:43Z</time>
      </trkpt>
      <trkpt lat="48.87325" lon="2.39025">
        <ele>103</ele>
        <time>2015-06-01T20:20:48Z</time>
      </trkpt>
      <trkpt lat="48.87313" lon="2.39038">
        <ele>102.80000305176</ele>
        <time>2015-06-01T20:20:51Z</time>
      </trkpt>
      <trkpt lat="48.873" lon="2.39061">
        <ele>102.80000305176</ele>
        <time>2015-06-01T20:20:56Z</time>
      </trkpt>
      <trkpt lat="48.87298" lon="2.39064">
        <ele>102.80000305176</ele>
        <time>2015-06-01T20:20:57Z</time>
      </trkpt>
      <trkpt lat="48.87283" lon="2.39081">
        <ele>102.80000305176</ele>
        <time>2015-06-01T20:21:01Z</time>
      </trkpt>
      <trkpt lat="48.87266" lon="2.39104">
        <ele>103.40000152588</ele>
        <time>2015-06-01T20:21:06Z</time>
      </trkpt>
      <trkpt lat="48.8726" lon="2.39113">
        <ele>103.59999847412</ele>
        <time>2015-06-01T20:21:08Z</time>
      </trkpt>
      <trkpt lat="48.87244" lon="2.39139">
        <ele>104.19999694824</ele>
        <time>2015-06-01T20:21:13Z</time>
      </trkpt>
      <trkpt lat="48.8724" lon="2.39143">
        <ele>104.19999694824</ele>
        <time>2015-06-01T20:21:14Z</time>
      </trkpt>
      <trkpt lat="48.87226" lon="2.39163">
        <ele>104.40000152588</ele>
        <time>2015-06-01T20:21:18Z</time>
      </trkpt>
      <trkpt lat="48.87219" lon="2.39176">
        <ele>104.80000305176</ele>
        <time>2015-06-01T20:21:20Z</time>
      </trkpt>
      <trkpt lat="48.87206" lon="2.39198">
        <ele>105.59999847412</ele>
        <time>2015-06-01T20:21:24Z</time>
      </trkpt>
      <trkpt lat="48.87191" lon="2.39221">
        <ele>106</ele>
        <time>2015-06-01T20:21:29Z</time>
      </trkpt>
      <trkpt lat="48.87179" lon="2.39235">
        <ele>106.80000305176</ele>
        <time>2015-06-01T20:21:33Z</time>
      </trkpt>
      <trkpt lat="48.87162" lon="2.39257">
        <ele>107.80000305176</ele>
        <time>2015-06-01T20:21:39Z</time>
      </trkpt>
      <trkpt lat="48.87154" lon="2.39268">
        <ele>108.59999847412</ele>
        <time>2015-06-01T20:21:42Z</time>
      </trkpt>
      <trkpt lat="48.87146" lon="2.39282">
        <ele>109.40000152588</ele>
        <time>2015-06-01T20:21:46Z</time>
      </trkpt>
      <trkpt lat="48.8713" lon="2.39301">
        <ele>110.80000305176</ele>
        <time>2015-06-01T20:21:51Z</time>
      </trkpt>
      <trkpt lat="48.8712" lon="2.39312">
        <ele>111.40000152588</ele>
        <time>2015-06-01T20:21:53Z</time>
      </trkpt>
      <trkpt lat="48.87107" lon="2.39326">
        <ele>112</ele>
        <time>2015-06-01T20:21:56Z</time>
      </trkpt>
      <trkpt lat="48.8709" lon="2.39347">
        <ele>112.40000152588</ele>
        <time>2015-06-01T20:22:00Z</time>
      </trkpt>
      <trkpt lat="48.87077" lon="2.3936">
        <ele>112.59999847412</ele>
        <time>2015-06-01T20:22:03Z</time>
      </trkpt>
      <trkpt lat="48.87054" lon="2.39382">
        <ele>113</ele>
        <time>2015-06-01T20:22:08Z</time>
      </trkpt>
      <trkpt lat="48.8705" lon="2.39387">
        <ele>113</ele>
        <time>2015-06-01T20:22:09Z</time>
      </trkpt>
      <trkpt lat="48.87036" lon="2.39407">
        <ele>113.19999694824</ele>
        <time>2015-06-01T20:22:13Z</time>
      </trkpt>
      <trkpt lat="48.8703" lon="2.39417">
        <ele>113.19999694824</ele>
        <time>2015-06-01T20:22:15Z</time>
      </trkpt>
      <trkpt lat="48.87013" lon="2.39437">
        <ele>113.19999694824</ele>
        <time>2015-06-01T20:22:20Z</time>
      </trkpt>
      <trkpt lat="48.87007" lon="2.39439">
        <ele>113.19999694824</ele>
        <time>2015-06-01T20:22:22Z</time>
      </trkpt>
      <trkpt lat="48.87005" lon="2.39438">
        <ele>114</ele>
        <time>2015-06-01T20:22:28Z</time>
      </trkpt>
      <trkpt lat="48.87005" lon="2.39436">
        <ele>114.59999847412</ele>
        <time>2015-06-01T20:22:32Z</time>
      </trkpt>
      <trkpt lat="48.87007" lon="2.39436">
        <ele>115.80000305176</ele>
        <time>2015-06-01T20:22:39Z</time>
      </trkpt>
      <trkpt lat="48.87005" lon="2.39436">
        <ele>116.80000305176</ele>
        <time>2015-06-01T20:22:44Z</time>
      </trkpt>
      <trkpt lat="48.87001" lon="2.39437">
        <ele>119.80000305176</ele>
        <time>2015-06-01T20:22:55Z</time>
      </trkpt>
      <trkpt lat="48.87002" lon="2.39437">
        <ele>122</ele>
        <time>2015-06-01T20:23:04Z</time>
      </trkpt>
      <trkpt lat="48.86996" lon="2.39442">
        <ele>123.40000152588</ele>
        <time>2015-06-01T20:23:09Z</time>
      </trkpt>
      <trkpt lat="48.86991" lon="2.39449">
        <ele>124.19999694824</ele>
        <time>2015-06-01T20:23:12Z</time>
      </trkpt>
      <trkpt lat="48.86987" lon="2.39454">
        <ele>125</ele>
        <time>2015-06-01T20:23:16Z</time>
      </trkpt>
      <trkpt lat="48.86989" lon="2.39457">
        <ele>125.80000305176</ele>
        <time>2015-06-01T20:23:25Z</time>
      </trkpt>
      <trkpt lat="48.86996" lon="2.39467">
        <ele>128</ele>
        <time>2015-06-01T20:24:01Z</time>
      </trkpt>
      <trkpt lat="48.86997" lon="2.39469">
        <ele>129.60000610352</ele>
        <time>2015-06-01T20:24:11Z</time>
      </trkpt>
      <trkpt lat="48.86991" lon="2.39477">
        <ele>129.80000305176</ele>
        <time>2015-06-01T20:24:16Z</time>
      </trkpt>
      <trkpt lat="48.8699" lon="2.39478">
        <ele>129.80000305176</ele>
        <time>2015-06-01T20:24:17Z</time>
      </trkpt>
      <trkpt lat="48.86979" lon="2.39485">
        <ele>130.60000610352</ele>
        <time>2015-06-01T20:24:22Z</time>
      </trkpt>
      <trkpt lat="48.86961" lon="2.39496">
        <ele>131.19999694824</ele>
        <time>2015-06-01T20:24:27Z</time>
      </trkpt>
      <trkpt lat="48.86943" lon="2.39508">
        <ele>131.60000610352</ele>
        <time>2015-06-01T20:24:31Z</time>
      </trkpt>
      <trkpt lat="48.86923" lon="2.39523">
        <ele>131.60000610352</ele>
        <time>2015-06-01T20:24:35Z</time>
      </trkpt>
      <trkpt lat="48.86916" lon="2.39527">
        <ele>131.39999389648</ele>
        <time>2015-06-01T20:24:36Z</time>
      </trkpt>
      <trkpt lat="48.86896" lon="2.39538">
        <ele>131.19999694824</ele>
        <time>2015-06-01T20:24:39Z</time>
      </trkpt>
      <trkpt lat="48.86874" lon="2.3955">
        <ele>130.80000305176</ele>
        <time>2015-06-01T20:24:42Z</time>
      </trkpt>
      <trkpt lat="48.86852" lon="2.39566">
        <ele>130.60000610352</ele>
        <time>2015-06-01T20:24:45Z</time>
      </trkpt>
      <trkpt lat="48.86837" lon="2.39577">
        <ele>130.60000610352</ele>
        <time>2015-06-01T20:24:47Z</time>
      </trkpt>
      <trkpt lat="48.86808" lon="2.39596">
        <ele>129.80000305176</ele>
        <time>2015-06-01T20:24:51Z</time>
      </trkpt>
      <trkpt lat="48.86801" lon="2.39601">
        <ele>129.60000610352</ele>
        <time>2015-06-01T20:24:52Z</time>
      </trkpt>
      <trkpt lat="48.86789" lon="2.39614">
        <ele>129.39999389648</ele>
        <time>2015-06-01T20:24:54Z</time>
      </trkpt>
      <trkpt lat="48.86774" lon="2.39625">
        <ele>129.19999694824</ele>
        <time>2015-06-01T20:24:56Z</time>
      </trkpt>
      <trkpt lat="48.86748" lon="2.39649">
        <ele>128.80000305176</ele>
        <time>2015-06-01T20:25:00Z</time>
      </trkpt>
      <trkpt lat="48.8674" lon="2.39655">
        <ele>128.60000610352</ele>
        <time>2015-06-01T20:25:01Z</time>
      </trkpt>
      <trkpt lat="48.86716" lon="2.39672">
        <ele>128.19999694824</ele>
        <time>2015-06-01T20:25:04Z</time>
      </trkpt>
      <trkpt lat="48.86692" lon="2.39689">
        <ele>127.59999847412</ele>
        <time>2015-06-01T20:25:07Z</time>
      </trkpt>
      <trkpt lat="48.86669" lon="2.39705">
        <ele>127.19999694824</ele>
        <time>2015-06-01T20:25:10Z</time>
      </trkpt>
      <trkpt lat="48.86649" lon="2.39719">
        <ele>126.40000152588</ele>
        <time>2015-06-01T20:25:13Z</time>
      </trkpt>
      <trkpt lat="48.86641" lon="2.39723">
        <ele>126.19999694824</ele>
        <time>2015-06-01T20:25:14Z</time>
      </trkpt>
      <trkpt lat="48.86629" lon="2.39729">
        <ele>125.59999847412</ele>
        <time>2015-06-01T20:25:16Z</time>
      </trkpt>
      <trkpt lat="48.86607" lon="2.39749">
        <ele>124.40000152588</ele>
        <time>2015-06-01T20:25:20Z</time>
      </trkpt>
      <trkpt lat="48.86601" lon="2.39754">
        <ele>124.19999694824</ele>
        <time>2015-06-01T20:25:21Z</time>
      </trkpt>
      <trkpt lat="48.86584" lon="2.39763">
        <ele>123.19999694824</ele>
        <time>2015-06-01T20:25:24Z</time>
      </trkpt>
      <trkpt lat="48.86579" lon="2.39766">
        <ele>122.80000305176</ele>
        <time>2015-06-01T20:25:25Z</time>
      </trkpt>
      <trkpt lat="48.86572" lon="2.39771">
        <ele>122.40000152588</ele>
        <time>2015-06-01T20:25:26Z</time>
      </trkpt>
      <trkpt lat="48.8656" lon="2.39784">
        <ele>121.80000305176</ele>
        <time>2015-06-01T20:25:28Z</time>
      </trkpt>
      <trkpt lat="48.86532" lon="2.39802">
        <ele>120.59999847412</ele>
        <time>2015-06-01T20:25:32Z</time>
      </trkpt>
      <trkpt lat="48.8652" lon="2.39808">
        <ele>119.80000305176</ele>
        <time>2015-06-01T20:25:34Z</time>
      </trkpt>
      <trkpt lat="48.86499" lon="2.39807">
        <ele>118.40000152588</ele>
        <time>2015-06-01T20:25:38Z</time>
      </trkpt>
      <trkpt lat="48.86491" lon="2.39802">
        <ele>116.59999847412</ele>
        <time>2015-06-01T20:25:42Z</time>
      </trkpt>
      <trkpt lat="48.86485" lon="2.39805">
        <ele>115.19999694824</ele>
        <time>2015-06-01T20:25:45Z</time>
      </trkpt>
      <trkpt lat="48.86483" lon="2.3981">
        <ele>114</ele>
        <time>2015-06-01T20:25:47Z</time>
      </trkpt>
      <trkpt lat="48.86483" lon="2.3981">
        <ele>110</ele>
        <time>2015-06-01T20:25:54Z</time>
      </trkpt>
      <trkpt lat="48.86486" lon="2.39806">
        <ele>106.19999694824</ele>
        <time>2015-06-01T20:26:00Z</time>
      </trkpt>
      <trkpt lat="48.86485" lon="2.3981">
        <ele>101.80000305176</ele>
        <time>2015-06-01T20:26:08Z</time>
      </trkpt>
      <trkpt lat="48.86489" lon="2.39813">
        <ele>98.800003051758</ele>
        <time>2015-06-01T20:26:14Z</time>
      </trkpt>
      <trkpt lat="48.86489" lon="2.39816">
        <ele>97.800003051758</ele>
        <time>2015-06-01T20:26:17Z</time>
      </trkpt>
      <trkpt lat="48.86489" lon="2.39817">
        <ele>94.800003051758</ele>
        <time>2015-06-01T20:26:26Z</time>
      </trkpt>
      <trkpt lat="48.86485" lon="2.39831">
        <ele>93.599998474121</ele>
        <time>2015-06-01T20:26:32Z</time>
      </trkpt>
      <trkpt lat="48.86479" lon="2.39846">
        <ele>92.599998474121</ele>
        <time>2015-06-01T20:26:37Z</time>
      </trkpt>
      <trkpt lat="48.86473" lon="2.39862">
        <ele>91.800003051758</ele>
        <time>2015-06-01T20:26:42Z</time>
      </trkpt>
      <trkpt lat="48.86473" lon="2.39866">
        <ele>91.800003051758</ele>
        <time>2015-06-01T20:26:43Z</time>
      </trkpt>
      <trkpt lat="48.86475" lon="2.39877">
        <ele>91.599998474121</ele>
        <time>2015-06-01T20:26:46Z</time>
      </trkpt>
      <trkpt lat="48.86476" lon="2.3988">
        <ele>91.400001525879</ele>
        <time>2015-06-01T20:26:47Z</time>
      </trkpt>
      <trkpt lat="48.86479" lon="2.39894">
        <ele>91.199996948242</ele>
        <time>2015-06-01T20:26:51Z</time>
      </trkpt>
      <trkpt lat="48.86479" lon="2.39909">
        <ele>91.199996948242</ele>
        <time>2015-06-01T20:26:55Z</time>
      </trkpt>
      <trkpt lat="48.86479" lon="2.39912">
        <ele>91</ele>
        <time>2015-06-01T20:26:56Z</time>
      </trkpt>
      <trkpt lat="48.86479" lon="2.39924">
        <ele>90.800003051758</ele>
        <time>2015-06-01T20:26:59Z</time>
      </trkpt>
      <trkpt lat="48.86477" lon="2.39944">
        <ele>90</ele>
        <time>2015-06-01T20:27:04Z</time>
      </trkpt>
      <trkpt lat="48.86475" lon="2.39953">
        <ele>89.800003051758</ele>
        <time>2015-06-01T20:27:06Z</time>
      </trkpt>
      <trkpt lat="48.86478" lon="2.39961">
        <ele>88.800003051758</ele>
        <time>2015-06-01T20:27:11Z</time>
      </trkpt>
      <trkpt lat="48.86475" lon="2.39973">
        <ele>88.199996948242</ele>
        <time>2015-06-01T20:27:15Z</time>
      </trkpt>
      <trkpt lat="48.86475" lon="2.39976">
        <ele>88</ele>
        <time>2015-06-01T20:27:16Z</time>
      </trkpt>
      <trkpt lat="48.8648" lon="2.39981">
        <ele>87.599998474121</ele>
        <time>2015-06-01T20:27:20Z</time>
      </trkpt>
      <trkpt lat="48.86481" lon="2.39982">
        <ele>87.599998474121</ele>
        <time>2015-06-01T20:27:21Z</time>
      </trkpt>
      <trkpt lat="48.86482" lon="2.39983">
        <ele>87.400001525879</ele>
        <time>2015-06-01T20:27:23Z</time>
      </trkpt>
      <trkpt lat="48.86484" lon="2.39985">
        <ele>87.199996948242</ele>
        <time>2015-06-01T20:27:28Z</time>
      </trkpt>
      <trkpt lat="48.86485" lon="2.39984">
        <ele>86.800003051758</ele>
        <time>2015-06-01T20:27:46Z</time>
      </trkpt>
      <trkpt lat="48.86484" lon="2.39986">
        <ele>86.800003051758</ele>
        <time>2015-06-01T20:27:47Z</time>
      </trkpt>
      <trkpt lat="48.86485" lon="2.39988">
        <ele>86.800003051758</ele>
        <time>2015-06-01T20:27:53Z</time>
      </trkpt>
      <trkpt lat="48.86484" lon="2.39987">
        <ele>86.800003051758</ele>
        <time>2015-06-01T20:28:01Z</time>
      </trkpt>
      <trkpt lat="48.86484" lon="2.39988">
        <ele>86.800003051758</ele>
        <time>2015-06-01T20:28:05Z</time>
      </trkpt>
      <trkpt lat="48.86485" lon="2.3999">
        <ele>88</ele>
        <time>2015-06-01T20:28:16Z</time>
      </trkpt>
      <trkpt lat="48.86487" lon="2.3999">
        <ele>89.599998474121</ele>
        <time>2015-06-01T20:28:27Z</time>
      </trkpt>
      <trkpt lat="48.8649" lon="2.3999">
        <ele>90.599998474121</ele>
        <time>2015-06-01T20:28:32Z</time>
      </trkpt>
      <trkpt lat="48.86495" lon="2.39989">
        <ele>91.599998474121</ele>
        <time>2015-06-01T20:28:38Z</time>
      </trkpt>
      <trkpt lat="48.86494" lon="2.39984">
        <ele>94.800003051758</ele>
        <time>2015-06-01T20:28:48Z</time>
      </trkpt>
      <trkpt lat="48.86494" lon="2.39977">
        <ele>95.599998474121</ele>
        <time>2015-06-01T20:28:52Z</time>
      </trkpt>
      <trkpt lat="48.86498" lon="2.39968">
        <ele>97.400001525879</ele>
        <time>2015-06-01T20:28:59Z</time>
      </trkpt>
      <trkpt lat="48.86498" lon="2.39967">
        <ele>97.599998474121</ele>
        <time>2015-06-01T20:29:00Z</time>
      </trkpt>
      <trkpt lat="48.86498" lon="2.39961">
        <ele>98</ele>
        <time>2015-06-01T20:29:03Z</time>
      </trkpt>
      <trkpt lat="48.86498" lon="2.39948">
        <ele>98.599998474121</ele>
        <time>2015-06-01T20:29:08Z</time>
      </trkpt>
      <trkpt lat="48.86501" lon="2.39926">
        <ele>98.599998474121</ele>
        <time>2015-06-01T20:29:14Z</time>
      </trkpt>
      <trkpt lat="48.86498" lon="2.39916">
        <ele>98.199996948242</ele>
        <time>2015-06-01T20:29:18Z</time>
      </trkpt>
      <trkpt lat="48.86497" lon="2.39912">
        <ele>98</ele>
        <time>2015-06-01T20:29:20Z</time>
      </trkpt>
      <trkpt lat="48.86498" lon="2.3991">
        <ele>98</ele>
        <time>2015-06-01T20:29:22Z</time>
      </trkpt>
      <trkpt lat="48.86499" lon="2.39908">
        <ele>97.800003051758</ele>
        <time>2015-06-01T20:29:24Z</time>
      </trkpt>
      <trkpt lat="48.86502" lon="2.39899">
        <ele>97.400001525879</ele>
        <time>2015-06-01T20:29:30Z</time>
      </trkpt>
      <trkpt lat="48.865" lon="2.3989">
        <ele>96.599998474121</ele>
        <time>2015-06-01T20:29:35Z</time>
      </trkpt>
      <trkpt lat="48.86497" lon="2.39883">
        <ele>96.199996948242</ele>
        <time>2015-06-01T20:29:38Z</time>
      </trkpt>
      <trkpt lat="48.86492" lon="2.3988">
        <ele>96.199996948242</ele>
        <time>2015-06-01T20:29:40Z</time>
      </trkpt>
      <trkpt lat="48.86486" lon="2.39873">
        <ele>95.800003051758</ele>
        <time>2015-06-01T20:29:44Z</time>
      </trkpt>
      <trkpt lat="48.86483" lon="2.39869">
        <ele>95.800003051758</ele>
        <time>2015-06-01T20:29:46Z</time>
      </trkpt>
      <trkpt lat="48.8648" lon="2.39866">
        <ele>95.800003051758</ele>
        <time>2015-06-01T20:29:48Z</time>
      </trkpt>
      <trkpt lat="48.86472" lon="2.39857">
        <ele>95.599998474121</ele>
        <time>2015-06-01T20:29:53Z</time>
      </trkpt>
      <trkpt lat="48.86471" lon="2.39857">
        <ele>95.599998474121</ele>
        <time>2015-06-01T20:29:57Z</time>
      </trkpt>
      <trkpt lat="48.86468" lon="2.3986">
        <ele>95.400001525879</ele>
        <time>2015-06-01T20:30:00Z</time>
      </trkpt>
      <trkpt lat="48.86458" lon="2.39869">
        <ele>95.400001525879</ele>
        <time>2015-06-01T20:30:05Z</time>
      </trkpt>
      <trkpt lat="48.86456" lon="2.3987">
        <ele>95.400001525879</ele>
        <time>2015-06-01T20:30:06Z</time>
      </trkpt>
      <trkpt lat="48.86438" lon="2.39882">
        <ele>95.400001525879</ele>
        <time>2015-06-01T20:30:12Z</time>
      </trkpt>
      <trkpt lat="48.8642" lon="2.39895">
        <ele>95.400001525879</ele>
        <time>2015-06-01T20:30:17Z</time>
      </trkpt>
      <trkpt lat="48.86404" lon="2.39911">
        <ele>95.400001525879</ele>
        <time>2015-06-01T20:30:22Z</time>
      </trkpt>
      <trkpt lat="48.86397" lon="2.39918">
        <ele>95.400001525879</ele>
        <time>2015-06-01T20:30:24Z</time>
      </trkpt>
      <trkpt lat="48.86382" lon="2.39932">
        <ele>95.400001525879</ele>
        <time>2015-06-01T20:30:28Z</time>
      </trkpt>
      <trkpt lat="48.86375" lon="2.3994">
        <ele>95.400001525879</ele>
        <time>2015-06-01T20:30:30Z</time>
      </trkpt>
      <trkpt lat="48.86356" lon="2.39959">
        <ele>95.400001525879</ele>
        <time>2015-06-01T20:30:35Z</time>
      </trkpt>
      <trkpt lat="48.86352" lon="2.39963">
        <ele>95.599998474121</ele>
        <time>2015-06-01T20:30:36Z</time>
      </trkpt>
      <trkpt lat="48.86339" lon="2.39974">
        <ele>96.199996948242</ele>
        <time>2015-06-01T20:30:39Z</time>
      </trkpt>
      <trkpt lat="48.86314" lon="2.39989">
        <ele>97.199996948242</ele>
        <time>2015-06-01T20:30:44Z</time>
      </trkpt>
      <trkpt lat="48.86308" lon="2.39992">
        <ele>97.599998474121</ele>
        <time>2015-06-01T20:30:45Z</time>
      </trkpt>
      <trkpt lat="48.86297" lon="2.39998">
        <ele>98</ele>
        <time>2015-06-01T20:30:47Z</time>
      </trkpt>
      <trkpt lat="48.86266" lon="2.40009">
        <ele>99.400001525879</ele>
        <time>2015-06-01T20:30:52Z</time>
      </trkpt>
      <trkpt lat="48.86259" lon="2.4001">
        <ele>99.599998474121</ele>
        <time>2015-06-01T20:30:53Z</time>
      </trkpt>
      <trkpt lat="48.86229" lon="2.40016">
        <ele>100.40000152588</ele>
        <time>2015-06-01T20:30:57Z</time>
      </trkpt>
      <trkpt lat="48.86208" lon="2.40019">
        <ele>100.80000305176</ele>
        <time>2015-06-01T20:31:00Z</time>
      </trkpt>
      <trkpt lat="48.86187" lon="2.40023">
        <ele>101</ele>
        <time>2015-06-01T20:31:03Z</time>
      </trkpt>
      <trkpt lat="48.86175" lon="2.40025">
        <ele>101.19999694824</ele>
        <time>2015-06-01T20:31:05Z</time>
      </trkpt>
      <trkpt lat="48.86164" lon="2.40028">
        <ele>101.40000152588</ele>
        <time>2015-06-01T20:31:07Z</time>
      </trkpt>
      <trkpt lat="48.86137" lon="2.40035">
        <ele>101.40000152588</ele>
        <time>2015-06-01T20:31:11Z</time>
      </trkpt>
      <trkpt lat="48.86123" lon="2.4004">
        <ele>101.19999694824</ele>
        <time>2015-06-01T20:31:13Z</time>
      </trkpt>
      <trkpt lat="48.86095" lon="2.40056">
        <ele>100.59999847412</ele>
        <time>2015-06-01T20:31:17Z</time>
      </trkpt>
      <trkpt lat="48.86079" lon="2.40066">
        <ele>100.40000152588</ele>
        <time>2015-06-01T20:31:19Z</time>
      </trkpt>
      <trkpt lat="48.86072" lon="2.40071">
        <ele>100</ele>
        <time>2015-06-01T20:31:20Z</time>
      </trkpt>
      <trkpt lat="48.86048" lon="2.40086">
        <ele>99.400001525879</ele>
        <time>2015-06-01T20:31:23Z</time>
      </trkpt>
      <trkpt lat="48.86039" lon="2.40091">
        <ele>99.199996948242</ele>
        <time>2015-06-01T20:31:24Z</time>
      </trkpt>
      <trkpt lat="48.86012" lon="2.40109">
        <ele>98.800003051758</ele>
        <time>2015-06-01T20:31:27Z</time>
      </trkpt>
      <trkpt lat="48.85994" lon="2.40124">
        <ele>98.599998474121</ele>
        <time>2015-06-01T20:31:29Z</time>
      </trkpt>
      <trkpt lat="48.85977" lon="2.4014">
        <ele>98.400001525879</ele>
        <time>2015-06-01T20:31:31Z</time>
      </trkpt>
      <trkpt lat="48.85962" lon="2.40157">
        <ele>98</ele>
        <time>2015-06-01T20:31:33Z</time>
      </trkpt>
      <trkpt lat="48.85955" lon="2.40165">
        <ele>97.800003051758</ele>
        <time>2015-06-01T20:31:34Z</time>
      </trkpt>
      <trkpt lat="48.85928" lon="2.40199">
        <ele>97</ele>
        <time>2015-06-01T20:31:38Z</time>
      </trkpt>
      <trkpt lat="48.8591" lon="2.40223">
        <ele>96.599998474121</ele>
        <time>2015-06-01T20:31:41Z</time>
      </trkpt>
      <trkpt lat="48.85903" lon="2.4023">
        <ele>96.400001525879</ele>
        <time>2015-06-01T20:31:42Z</time>
      </trkpt>
      <trkpt lat="48.85891" lon="2.40239">
        <ele>96.199996948242</ele>
        <time>2015-06-01T20:31:44Z</time>
      </trkpt>
      <trkpt lat="48.85879" lon="2.40252">
        <ele>96</ele>
        <time>2015-06-01T20:31:48Z</time>
      </trkpt>
      <trkpt lat="48.8588" lon="2.40251">
        <ele>95.800003051758</ele>
        <time>2015-06-01T20:31:49Z</time>
      </trkpt>
      <trkpt lat="48.85881" lon="2.40247">
        <ele>95.199996948242</ele>
        <time>2015-06-01T20:31:51Z</time>
      </trkpt>
      <trkpt lat="48.85889" lon="2.40227">
        <ele>94.400001525879</ele>
        <time>2015-06-01T20:31:57Z</time>
      </trkpt>
      <trkpt lat="48.85891" lon="2.40222">
        <ele>94.199996948242</ele>
        <time>2015-06-01T20:31:59Z</time>
      </trkpt>
      <trkpt lat="48.85897" lon="2.40206">
        <ele>93.800003051758</ele>
        <time>2015-06-01T20:32:05Z</time>
      </trkpt>
      <trkpt lat="48.85904" lon="2.4021">
        <ele>93.400001525879</ele>
        <time>2015-06-01T20:32:10Z</time>
      </trkpt>
      <trkpt lat="48.85912" lon="2.40222">
        <ele>87.800003051758</ele>
        <time>2015-06-01T20:32:35Z</time>
      </trkpt>
      <trkpt lat="48.85902" lon="2.40236">
        <ele>86.800003051758</ele>
        <time>2015-06-01T20:32:40Z</time>
      </trkpt>
      <trkpt lat="48.85885" lon="2.40258">
        <ele>86.199996948242</ele>
        <time>2015-06-01T20:32:44Z</time>
      </trkpt>
      <trkpt lat="48.8588" lon="2.40263">
        <ele>86</ele>
        <time>2015-06-01T20:32:45Z</time>
      </trkpt>
      <trkpt lat="48.85857" lon="2.40293">
        <ele>85.800003051758</ele>
        <time>2015-06-01T20:32:49Z</time>
      </trkpt>
      <trkpt lat="48.85848" lon="2.403">
        <ele>85.599998474121</ele>
        <time>2015-06-01T20:32:50Z</time>
      </trkpt>
      <trkpt lat="48.85824" lon="2.40322">
        <ele>85.599998474121</ele>
        <time>2015-06-01T20:32:53Z</time>
      </trkpt>
      <trkpt lat="48.85803" lon="2.40348">
        <ele>85.400001525879</ele>
        <time>2015-06-01T20:32:56Z</time>
      </trkpt>
      <trkpt lat="48.85789" lon="2.40367">
        <ele>85.400001525879</ele>
        <time>2015-06-01T20:32:58Z</time>
      </trkpt>
      <trkpt lat="48.85753" lon="2.40404">
        <ele>85.199996948242</ele>
        <time>2015-06-01T20:33:03Z</time>
      </trkpt>
      <trkpt lat="48.85729" lon="2.40422">
        <ele>85.199996948242</ele>
        <time>2015-06-01T20:33:06Z</time>
      </trkpt>
      <trkpt lat="48.85705" lon="2.4044">
        <ele>85.199996948242</ele>
        <time>2015-06-01T20:33:09Z</time>
      </trkpt>
      <trkpt lat="48.85697" lon="2.40445">
        <ele>85.199996948242</ele>
        <time>2015-06-01T20:33:10Z</time>
      </trkpt>
      <trkpt lat="48.85674" lon="2.40459">
        <ele>85.199996948242</ele>
        <time>2015-06-01T20:33:13Z</time>
      </trkpt>
      <trkpt lat="48.85652" lon="2.40474">
        <ele>85.199996948242</ele>
        <time>2015-06-01T20:33:16Z</time>
      </trkpt>
      <trkpt lat="48.85644" lon="2.40478">
        <ele>85.199996948242</ele>
        <time>2015-06-01T20:33:17Z</time>
      </trkpt>
      <trkpt lat="48.85622" lon="2.40487">
        <ele>85.199996948242</ele>
        <time>2015-06-01T20:33:20Z</time>
      </trkpt>
      <trkpt lat="48.85615" lon="2.40491">
        <ele>85.199996948242</ele>
        <time>2015-06-01T20:33:21Z</time>
      </trkpt>
      <trkpt lat="48.85596" lon="2.40503">
        <ele>85.199996948242</ele>
        <time>2015-06-01T20:33:24Z</time>
      </trkpt>
      <trkpt lat="48.85573" lon="2.40513">
        <ele>85.199996948242</ele>
        <time>2015-06-01T20:33:27Z</time>
      </trkpt>
      <trkpt lat="48.85566" lon="2.40517">
        <ele>85.199996948242</ele>
        <time>2015-06-01T20:33:28Z</time>
      </trkpt>
      <trkpt lat="48.85544" lon="2.40526">
        <ele>85.199996948242</ele>
        <time>2015-06-01T20:33:31Z</time>
      </trkpt>
      <trkpt lat="48.85537" lon="2.40529">
        <ele>85.199996948242</ele>
        <time>2015-06-01T20:33:32Z</time>
      </trkpt>
      <trkpt lat="48.85531" lon="2.40531">
        <ele>85.199996948242</ele>
        <time>2015-06-01T20:33:33Z</time>
      </trkpt>
      <trkpt lat="48.85503" lon="2.4054">
        <ele>84.800003051758</ele>
        <time>2015-06-01T20:33:37Z</time>
      </trkpt>
      <trkpt lat="48.85484" lon="2.40544">
        <ele>84.199996948242</ele>
        <time>2015-06-01T20:33:40Z</time>
      </trkpt>
      <trkpt lat="48.85472" lon="2.40548">
        <ele>84</ele>
        <time>2015-06-01T20:33:42Z</time>
      </trkpt>
      <trkpt lat="48.85448" lon="2.40554">
        <ele>83.400001525879</ele>
        <time>2015-06-01T20:33:46Z</time>
      </trkpt>
      <trkpt lat="48.85442" lon="2.40556">
        <ele>83</ele>
        <time>2015-06-01T20:33:47Z</time>
      </trkpt>
      <trkpt lat="48.85417" lon="2.40566">
        <ele>82.199996948242</ele>
        <time>2015-06-01T20:33:52Z</time>
      </trkpt>
      <trkpt lat="48.85398" lon="2.40574">
        <ele>81.599998474121</ele>
        <time>2015-06-01T20:33:55Z</time>
      </trkpt>
      <trkpt lat="48.85374" lon="2.40582">
        <ele>80.599998474121</ele>
        <time>2015-06-01T20:33:59Z</time>
      </trkpt>
      <trkpt lat="48.85371" lon="2.40583">
        <ele>80.599998474121</ele>
        <time>2015-06-01T20:34:00Z</time>
      </trkpt>
      <trkpt lat="48.85362" lon="2.40584">
        <ele>80</ele>
        <time>2015-06-01T20:34:02Z</time>
      </trkpt>
      <trkpt lat="48.85354" lon="2.40585">
        <ele>79.400001525879</ele>
        <time>2015-06-01T20:34:04Z</time>
      </trkpt>
      <trkpt lat="48.8535" lon="2.40586">
        <ele>79</ele>
        <time>2015-06-01T20:34:05Z</time>
      </trkpt>
      <trkpt lat="48.85344" lon="2.40585">
        <ele>78.599998474121</ele>
        <time>2015-06-01T20:34:07Z</time>
      </trkpt>
      <trkpt lat="48.85338" lon="2.40581">
        <ele>77.599998474121</ele>
        <time>2015-06-01T20:34:13Z</time>
      </trkpt>
      <trkpt lat="48.85331" lon="2.40578">
        <ele>80</ele>
        <time>2015-06-01T20:35:10Z</time>
      </trkpt>
      <trkpt lat="48.85321" lon="2.40586">
        <ele>80.800003051758</ele>
        <time>2015-06-01T20:35:15Z</time>
      </trkpt>
      <trkpt lat="48.85319" lon="2.40587">
        <ele>81</ele>
        <time>2015-06-01T20:35:16Z</time>
      </trkpt>
      <trkpt lat="48.85306" lon="2.40591">
        <ele>81.800003051758</ele>
        <time>2015-06-01T20:35:20Z</time>
      </trkpt>
      <trkpt lat="48.85295" lon="2.40595">
        <ele>82.199996948242</ele>
        <time>2015-06-01T20:35:25Z</time>
      </trkpt>
      <trkpt lat="48.8528" lon="2.40602">
        <ele>82.599998474121</ele>
        <time>2015-06-01T20:35:30Z</time>
      </trkpt>
      <trkpt lat="48.8526" lon="2.4061">
        <ele>82.800003051758</ele>
        <time>2015-06-01T20:35:35Z</time>
      </trkpt>
      <trkpt lat="48.85249" lon="2.40615">
        <ele>82.800003051758</ele>
        <time>2015-06-01T20:35:37Z</time>
      </trkpt>
      <trkpt lat="48.85225" lon="2.40617">
        <ele>82.800003051758</ele>
        <time>2015-06-01T20:35:41Z</time>
      </trkpt>
      <trkpt lat="48.85218" lon="2.40617">
        <ele>82.800003051758</ele>
        <time>2015-06-01T20:35:42Z</time>
      </trkpt>
      <trkpt lat="48.85211" lon="2.40617">
        <ele>83</ele>
        <time>2015-06-01T20:35:43Z</time>
      </trkpt>
      <trkpt lat="48.85184" lon="2.4062">
        <ele>82.800003051758</ele>
        <time>2015-06-01T20:35:47Z</time>
      </trkpt>
      <trkpt lat="48.85177" lon="2.40621">
        <ele>82.599998474121</ele>
        <time>2015-06-01T20:35:48Z</time>
      </trkpt>
      <trkpt lat="48.85151" lon="2.40627">
        <ele>82</ele>
        <time>2015-06-01T20:35:52Z</time>
      </trkpt>
      <trkpt lat="48.85146" lon="2.40628">
        <ele>82</ele>
        <time>2015-06-01T20:35:53Z</time>
      </trkpt>
      <trkpt lat="48.85132" lon="2.4063">
        <ele>81.400001525879</ele>
        <time>2015-06-01T20:35:56Z</time>
      </trkpt>
      <trkpt lat="48.85103" lon="2.40631">
        <ele>80.400001525879</ele>
        <time>2015-06-01T20:36:01Z</time>
      </trkpt>
      <trkpt lat="48.85081" lon="2.40632">
        <ele>79.199996948242</ele>
        <time>2015-06-01T20:36:05Z</time>
      </trkpt>
      <trkpt lat="48.85058" lon="2.40633">
        <ele>77.800003051758</ele>
        <time>2015-06-01T20:36:09Z</time>
      </trkpt>
      <trkpt lat="48.85052" lon="2.40633">
        <ele>77.400001525879</ele>
        <time>2015-06-01T20:36:10Z</time>
      </trkpt>
      <trkpt lat="48.8504" lon="2.40629">
        <ele>76.400001525879</ele>
        <time>2015-06-01T20:36:13Z</time>
      </trkpt>
      <trkpt lat="48.85039" lon="2.40629">
        <ele>73.599998474121</ele>
        <time>2015-06-01T20:36:23Z</time>
      </trkpt>
      <trkpt lat="48.8504" lon="2.40629">
        <ele>72.199996948242</ele>
        <time>2015-06-01T20:36:28Z</time>
      </trkpt>
      <trkpt lat="48.85035" lon="2.40636">
        <ele>67</ele>
        <time>2015-06-01T20:36:48Z</time>
      </trkpt>
      <trkpt lat="48.85021" lon="2.40637">
        <ele>66</ele>
        <time>2015-06-01T20:36:52Z</time>
      </trkpt>
      <trkpt lat="48.85006" lon="2.40641">
        <ele>65.199996948242</ele>
        <time>2015-06-01T20:36:56Z</time>
      </trkpt>
      <trkpt lat="48.84985" lon="2.40644">
        <ele>64.800003051758</ele>
        <time>2015-06-01T20:37:01Z</time>
      </trkpt>
      <trkpt lat="48.84963" lon="2.40649">
        <ele>64.400001525879</ele>
        <time>2015-06-01T20:37:06Z</time>
      </trkpt>
      <trkpt lat="48.84958" lon="2.40649">
        <ele>64.400001525879</ele>
        <time>2015-06-01T20:37:07Z</time>
      </trkpt>
      <trkpt lat="48.84939" lon="2.40651">
        <ele>64.199996948242</ele>
        <time>2015-06-01T20:37:11Z</time>
      </trkpt>
      <trkpt lat="48.84922" lon="2.40652">
        <ele>64.199996948242</ele>
        <time>2015-06-01T20:37:14Z</time>
      </trkpt>
      <trkpt lat="48.84907" lon="2.40656">
        <ele>64.199996948242</ele>
        <time>2015-06-01T20:37:17Z</time>
      </trkpt>
      <trkpt lat="48.84896" lon="2.40657">
        <ele>64.199996948242</ele>
        <time>2015-06-01T20:37:19Z</time>
      </trkpt>
      <trkpt lat="48.84883" lon="2.40658">
        <ele>64.199996948242</ele>
        <time>2015-06-01T20:37:21Z</time>
      </trkpt>
      <trkpt lat="48.84855" lon="2.40655">
        <ele>64</ele>
        <time>2015-06-01T20:37:26Z</time>
      </trkpt>
      <trkpt lat="48.84834" lon="2.4065">
        <ele>64</ele>
        <time>2015-06-01T20:37:30Z</time>
      </trkpt>
      <trkpt lat="48.84815" lon="2.40643">
        <ele>64</ele>
        <time>2015-06-01T20:37:34Z</time>
      </trkpt>
      <trkpt lat="48.84806" lon="2.4064">
        <ele>64</ele>
        <time>2015-06-01T20:37:36Z</time>
      </trkpt>
      <trkpt lat="48.84785" lon="2.40637">
        <ele>64</ele>
        <time>2015-06-01T20:37:41Z</time>
      </trkpt>
      <trkpt lat="48.84782" lon="2.40635">
        <ele>64</ele>
        <time>2015-06-01T20:37:42Z</time>
      </trkpt>
      <trkpt lat="48.84774" lon="2.40626">
        <ele>64</ele>
        <time>2015-06-01T20:37:48Z</time>
      </trkpt>
      <trkpt lat="48.84775" lon="2.40622">
        <ele>64</ele>
        <time>2015-06-01T20:37:53Z</time>
      </trkpt>
      <trkpt lat="48.84775" lon="2.40621">
        <ele>64</ele>
        <time>2015-06-01T20:37:54Z</time>
      </trkpt>
      <trkpt lat="48.84777" lon="2.40618">
        <ele>63.79999923706</ele>
        <time>2015-06-01T20:37:57Z</time>
      </trkpt>
      <trkpt lat="48.8478" lon="2.40621">
        <ele>63.400001525879</ele>
        <time>2015-06-01T20:38:01Z</time>
      </trkpt>
      <trkpt lat="48.84781" lon="2.40624">
        <ele>61.599998474121</ele>
        <time>2015-06-01T20:38:10Z</time>
      </trkpt>
      <trkpt lat="48.84781" lon="2.40629">
        <ele>60.20000076294</ele>
        <time>2015-06-01T20:38:30Z</time>
      </trkpt>
      <trkpt lat="48.84777" lon="2.40633">
        <ele>60</ele>
        <time>2015-06-01T20:39:14Z</time>
      </trkpt>
      <trkpt lat="48.84776" lon="2.40631">
        <ele>60</ele>
        <time>2015-06-01T20:39:15Z</time>
      </trkpt>
      <trkpt lat="48.84772" lon="2.40622">
        <ele>60</ele>
        <time>2015-06-01T20:39:19Z</time>
      </trkpt>
      <trkpt lat="48.84769" lon="2.40609">
        <ele>60</ele>
        <time>2015-06-01T20:39:25Z</time>
      </trkpt>
      <trkpt lat="48.84767" lon="2.40594">
        <ele>60</ele>
        <time>2015-06-01T20:39:30Z</time>
      </trkpt>
      <trkpt lat="48.84767" lon="2.40574">
        <ele>59.20000076294</ele>
        <time>2015-06-01T20:39:35Z</time>
      </trkpt>
      <trkpt lat="48.8477" lon="2.40547">
        <ele>58.599998474121</ele>
        <time>2015-06-01T20:39:41Z</time>
      </trkpt>
      <trkpt lat="48.84771" lon="2.40518">
        <ele>58.20000076294</ele>
        <time>2015-06-01T20:39:46Z</time>
      </trkpt>
      <trkpt lat="48.84774" lon="2.40483">
        <ele>57.400001525879</ele>
        <time>2015-06-01T20:39:52Z</time>
      </trkpt>
      <trkpt lat="48.84775" lon="2.40453">
        <ele>56.79999923706</ele>
        <time>2015-06-01T20:39:57Z</time>
      </trkpt>
      <trkpt lat="48.84776" lon="2.40447">
        <ele>56.599998474121</ele>
        <time>2015-06-01T20:39:58Z</time>
      </trkpt>
      <trkpt lat="48.84778" lon="2.40416">
        <ele>56.20000076294</ele>
        <time>2015-06-01T20:40:03Z</time>
      </trkpt>
      <trkpt lat="48.8478" lon="2.40392">
        <ele>56.20000076294</ele>
        <time>2015-06-01T20:40:07Z</time>
      </trkpt>
      <trkpt lat="48.84782" lon="2.40362">
        <ele>56</ele>
        <time>2015-06-01T20:40:12Z</time>
      </trkpt>
      <trkpt lat="48.84783" lon="2.40355">
        <ele>56</ele>
        <time>2015-06-01T20:40:13Z</time>
      </trkpt>
      <trkpt lat="48.84786" lon="2.40324">
        <ele>55.79999923706</ele>
        <time>2015-06-01T20:40:18Z</time>
      </trkpt>
      <trkpt lat="48.84786" lon="2.40317">
        <ele>55.79999923706</ele>
        <time>2015-06-01T20:40:19Z</time>
      </trkpt>
      <trkpt lat="48.84789" lon="2.40286">
        <ele>55.79999923706</ele>
        <time>2015-06-01T20:40:24Z</time>
      </trkpt>
      <trkpt lat="48.8479" lon="2.40252">
        <ele>55.79999923706</ele>
        <time>2015-06-01T20:40:29Z</time>
      </trkpt>
      <trkpt lat="48.8479" lon="2.40245">
        <ele>55.79999923706</ele>
        <time>2015-06-01T20:40:30Z</time>
      </trkpt>
      <trkpt lat="48.84792" lon="2.40224">
        <ele>55.79999923706</ele>
        <time>2015-06-01T20:40:33Z</time>
      </trkpt>
      <trkpt lat="48.84792" lon="2.40217">
        <ele>55.79999923706</ele>
        <time>2015-06-01T20:40:34Z</time>
      </trkpt>
      <trkpt lat="48.84793" lon="2.40195">
        <ele>55.79999923706</ele>
        <time>2015-06-01T20:40:37Z</time>
      </trkpt>
      <trkpt lat="48.84797" lon="2.40162">
        <ele>55.79999923706</ele>
        <time>2015-06-01T20:40:42Z</time>
      </trkpt>
      <trkpt lat="48.84796" lon="2.40139">
        <ele>55.79999923706</ele>
        <time>2015-06-01T20:40:46Z</time>
      </trkpt>
      <trkpt lat="48.84797" lon="2.40135">
        <ele>55.79999923706</ele>
        <time>2015-06-01T20:40:47Z</time>
      </trkpt>
      <trkpt lat="48.84798" lon="2.40129">
        <ele>55.79999923706</ele>
        <time>2015-06-01T20:40:48Z</time>
      </trkpt>
      <trkpt lat="48.84801" lon="2.40104">
        <ele>55.79999923706</ele>
        <time>2015-06-01T20:40:53Z</time>
      </trkpt>
      <trkpt lat="48.84803" lon="2.40078">
        <ele>55.79999923706</ele>
        <time>2015-06-01T20:40:58Z</time>
      </trkpt>
      <trkpt lat="48.84806" lon="2.40055">
        <ele>55.79999923706</ele>
        <time>2015-06-01T20:41:02Z</time>
      </trkpt>
      <trkpt lat="48.84808" lon="2.40037">
        <ele>55.79999923706</ele>
        <time>2015-06-01T20:41:05Z</time>
      </trkpt>
      <trkpt lat="48.84811" lon="2.40015">
        <ele>55.79999923706</ele>
        <time>2015-06-01T20:41:09Z</time>
      </trkpt>
      <trkpt lat="48.8481" lon="2.3999">
        <ele>55.79999923706</ele>
        <time>2015-06-01T20:41:14Z</time>
      </trkpt>
      <trkpt lat="48.8481" lon="2.39985">
        <ele>55.79999923706</ele>
        <time>2015-06-01T20:41:15Z</time>
      </trkpt>
      <trkpt lat="48.84811" lon="2.39979">
        <ele>55.79999923706</ele>
        <time>2015-06-01T20:41:18Z</time>
      </trkpt>
      <trkpt lat="48.84811" lon="2.39978">
        <ele>55.79999923706</ele>
        <time>2015-06-01T20:41:19Z</time>
      </trkpt>
      <trkpt lat="48.84812" lon="2.39981">
        <ele>55.79999923706</ele>
        <time>2015-06-01T20:41:30Z</time>
      </trkpt>
      <trkpt lat="48.84812" lon="2.39977">
        <ele>55.79999923706</ele>
        <time>2015-06-01T20:41:35Z</time>
      </trkpt>
      <trkpt lat="48.84814" lon="2.39956">
        <ele>54.599998474121</ele>
        <time>2015-06-01T20:41:42Z</time>
      </trkpt>
      <trkpt lat="48.84819" lon="2.39948">
        <ele>54.20000076294</ele>
        <time>2015-06-01T20:41:46Z</time>
      </trkpt>
      <trkpt lat="48.84822" lon="2.39942">
        <ele>54</ele>
        <time>2015-06-01T20:41:50Z</time>
      </trkpt>
      <trkpt lat="48.84825" lon="2.39933">
        <ele>53.79999923706</ele>
        <time>2015-06-01T20:41:56Z</time>
      </trkpt>
      <trkpt lat="48.84826" lon="2.39931">
        <ele>53.79999923706</ele>
        <time>2015-06-01T20:41:57Z</time>
      </trkpt>
      <trkpt lat="48.8483" lon="2.39924">
        <ele>53.79999923706</ele>
        <time>2015-06-01T20:42:00Z</time>
      </trkpt>
      <trkpt lat="48.8483" lon="2.39912">
        <ele>53.20000076294</ele>
        <time>2015-06-01T20:42:04Z</time>
      </trkpt>
      <trkpt lat="48.84828" lon="2.39909">
        <ele>52.79999923706</ele>
        <time>2015-06-01T20:42:06Z</time>
      </trkpt>
      <trkpt lat="48.84823" lon="2.39904">
        <ele>52.400001525879</ele>
        <time>2015-06-01T20:42:11Z</time>
      </trkpt>
      <trkpt lat="48.84823" lon="2.39902">
        <ele>52.20000076294</ele>
        <time>2015-06-01T20:42:12Z</time>
      </trkpt>
      <trkpt lat="48.84824" lon="2.399">
        <ele>52.20000076294</ele>
        <time>2015-06-01T20:42:13Z</time>
      </trkpt>
      <trkpt lat="48.84826" lon="2.39883">
        <ele>52</ele>
        <time>2015-06-01T20:42:19Z</time>
      </trkpt>
      <trkpt lat="48.84825" lon="2.39879">
        <ele>51.79999923706</ele>
        <time>2015-06-01T20:42:20Z</time>
      </trkpt>
      <trkpt lat="48.84822" lon="2.39858">
        <ele>51.79999923706</ele>
        <time>2015-06-01T20:42:24Z</time>
      </trkpt>
      <trkpt lat="48.84824" lon="2.3983">
        <ele>51.599998474121</ele>
        <time>2015-06-01T20:42:29Z</time>
      </trkpt>
      <trkpt lat="48.84827" lon="2.398">
        <ele>51.599998474121</ele>
        <time>2015-06-01T20:42:34Z</time>
      </trkpt>
      <trkpt lat="48.84829" lon="2.3977">
        <ele>51.599998474121</ele>
        <time>2015-06-01T20:42:40Z</time>
      </trkpt>
      <trkpt lat="48.84835" lon="2.3976">
        <ele>51.599998474121</ele>
        <time>2015-06-01T20:42:44Z</time>
      </trkpt>
      <trkpt lat="48.8484" lon="2.39756">
        <ele>51.599998474121</ele>
        <time>2015-06-01T20:42:48Z</time>
      </trkpt>
      <trkpt lat="48.84843" lon="2.39751">
        <ele>51.599998474121</ele>
        <time>2015-06-01T20:42:53Z</time>
      </trkpt>
      <trkpt lat="48.84844" lon="2.3975">
        <ele>51.599998474121</ele>
        <time>2015-06-01T20:42:59Z</time>
      </trkpt>
      <trkpt lat="48.84842" lon="2.3975">
        <ele>51.599998474121</ele>
        <time>2015-06-01T20:43:09Z</time>
      </trkpt>
      <trkpt lat="48.8484" lon="2.3975">
        <ele>51.599998474121</ele>
        <time>2015-06-01T20:43:15Z</time>
      </trkpt>
      <trkpt lat="48.84841" lon="2.39749">
        <ele>51.599998474121</ele>
        <time>2015-06-01T20:43:19Z</time>
      </trkpt>
      <trkpt lat="48.8484" lon="2.3975">
        <ele>51.599998474121</ele>
        <time>2015-06-01T20:43:25Z</time>
      </trkpt>
      <trkpt lat="48.84839" lon="2.39749">
        <ele>51.599998474121</ele>
        <time>2015-06-01T20:43:30Z</time>
      </trkpt>
      <trkpt lat="48.84846" lon="2.39745">
        <ele>51.599998474121</ele>
        <time>2015-06-01T20:44:21Z</time>
      </trkpt>
      <trkpt lat="48.84846" lon="2.39726">
        <ele>51.599998474121</ele>
        <time>2015-06-01T20:44:26Z</time>
      </trkpt>
      <trkpt lat="48.84845" lon="2.39699">
        <ele>51.599998474121</ele>
        <time>2015-06-01T20:44:32Z</time>
      </trkpt>
      <trkpt lat="48.84851" lon="2.39682">
        <ele>51.599998474121</ele>
        <time>2015-06-01T20:44:36Z</time>
      </trkpt>
      <trkpt lat="48.84865" lon="2.39664">
        <ele>51.599998474121</ele>
        <time>2015-06-01T20:44:41Z</time>
      </trkpt>
      <trkpt lat="48.84877" lon="2.39643">
        <ele>51.599998474121</ele>
        <time>2015-06-01T20:44:46Z</time>
      </trkpt>
      <trkpt lat="48.84887" lon="2.39615">
        <ele>51.599998474121</ele>
        <time>2015-06-01T20:44:51Z</time>
      </trkpt>
      <trkpt lat="48.84888" lon="2.39608">
        <ele>51.599998474121</ele>
        <time>2015-06-01T20:44:52Z</time>
      </trkpt>
      <trkpt lat="48.84889" lon="2.39576">
        <ele>51.599998474121</ele>
        <time>2015-06-01T20:44:57Z</time>
      </trkpt>
      <trkpt lat="48.84884" lon="2.39552">
        <ele>51.599998474121</ele>
        <time>2015-06-01T20:45:01Z</time>
      </trkpt>
      <trkpt lat="48.8487" lon="2.39527">
        <ele>51.599998474121</ele>
        <time>2015-06-01T20:45:07Z</time>
      </trkpt>
      <trkpt lat="48.84857" lon="2.3951">
        <ele>51.599998474121</ele>
        <time>2015-06-01T20:45:12Z</time>
      </trkpt>
      <trkpt lat="48.84854" lon="2.39488">
        <ele>51.599998474121</ele>
        <time>2015-06-01T20:45:16Z</time>
      </trkpt>
      <trkpt lat="48.84858" lon="2.39456">
        <ele>51.599998474121</ele>
        <time>2015-06-01T20:45:21Z</time>
      </trkpt>
      <trkpt lat="48.84861" lon="2.39428">
        <ele>51.599998474121</ele>
        <time>2015-06-01T20:45:25Z</time>
      </trkpt>
      <trkpt lat="48.84865" lon="2.39397">
        <ele>51.599998474121</ele>
        <time>2015-06-01T20:45:29Z</time>
      </trkpt>
      <trkpt lat="48.8487" lon="2.39364">
        <ele>51.599998474121</ele>
        <time>2015-06-01T20:45:33Z</time>
      </trkpt>
      <trkpt lat="48.84874" lon="2.39329">
        <ele>51.599998474121</ele>
        <time>2015-06-01T20:45:37Z</time>
      </trkpt>
      <trkpt lat="48.84878" lon="2.39302">
        <ele>51.79999923706</ele>
        <time>2015-06-01T20:45:40Z</time>
      </trkpt>
      <trkpt lat="48.84882" lon="2.39274">
        <ele>52.20000076294</ele>
        <time>2015-06-01T20:45:43Z</time>
      </trkpt>
      <trkpt lat="48.84887" lon="2.39247">
        <ele>52.599998474121</ele>
        <time>2015-06-01T20:45:46Z</time>
      </trkpt>
      <trkpt lat="48.84888" lon="2.39238">
        <ele>52.79999923706</ele>
        <time>2015-06-01T20:45:47Z</time>
      </trkpt>
      <trkpt lat="48.84893" lon="2.39214">
        <ele>53</ele>
        <time>2015-06-01T20:45:50Z</time>
      </trkpt>
      <trkpt lat="48.84898" lon="2.39176">
        <ele>53.20000076294</ele>
        <time>2015-06-01T20:45:55Z</time>
      </trkpt>
      <trkpt lat="48.84899" lon="2.39169">
        <ele>53.20000076294</ele>
        <time>2015-06-01T20:45:56Z</time>
      </trkpt>
      <trkpt lat="48.84902" lon="2.39136">
        <ele>53.400001525879</ele>
        <time>2015-06-01T20:46:00Z</time>
      </trkpt>
      <trkpt lat="48.84906" lon="2.39111">
        <ele>53.400001525879</ele>
        <time>2015-06-01T20:46:03Z</time>
      </trkpt>
      <trkpt lat="48.84911" lon="2.39069">
        <ele>53.599998474121</ele>
        <time>2015-06-01T20:46:08Z</time>
      </trkpt>
      <trkpt lat="48.84914" lon="2.39043">
        <ele>53.599998474121</ele>
        <time>2015-06-01T20:46:11Z</time>
      </trkpt>
      <trkpt lat="48.84924" lon="2.39015">
        <ele>53.599998474121</ele>
        <time>2015-06-01T20:46:15Z</time>
      </trkpt>
      <trkpt lat="48.84926" lon="2.39007">
        <ele>53.599998474121</ele>
        <time>2015-06-01T20:46:16Z</time>
      </trkpt>
      <trkpt lat="48.84931" lon="2.38979">
        <ele>53.599998474121</ele>
        <time>2015-06-01T20:46:19Z</time>
      </trkpt>
      <trkpt lat="48.84933" lon="2.3897">
        <ele>53.599998474121</ele>
        <time>2015-06-01T20:46:20Z</time>
      </trkpt>
      <trkpt lat="48.84936" lon="2.38951">
        <ele>53.79999923706</ele>
        <time>2015-06-01T20:46:22Z</time>
      </trkpt>
      <trkpt lat="48.84942" lon="2.38922">
        <ele>54.20000076294</ele>
        <time>2015-06-01T20:46:25Z</time>
      </trkpt>
      <trkpt lat="48.84943" lon="2.38913">
        <ele>54.400001525879</ele>
        <time>2015-06-01T20:46:26Z</time>
      </trkpt>
      <trkpt lat="48.84948" lon="2.38883">
        <ele>54.79999923706</ele>
        <time>2015-06-01T20:46:29Z</time>
      </trkpt>
      <trkpt lat="48.84952" lon="2.38854">
        <ele>55</ele>
        <time>2015-06-01T20:46:32Z</time>
      </trkpt>
      <trkpt lat="48.84956" lon="2.38825">
        <ele>55.20000076294</ele>
        <time>2015-06-01T20:46:35Z</time>
      </trkpt>
      <trkpt lat="48.84961" lon="2.38798">
        <ele>55.400001525879</ele>
        <time>2015-06-01T20:46:38Z</time>
      </trkpt>
      <trkpt lat="48.84964" lon="2.38767">
        <ele>55.400001525879</ele>
        <time>2015-06-01T20:46:41Z</time>
      </trkpt>
      <trkpt lat="48.84966" lon="2.38737">
        <ele>55.400001525879</ele>
        <time>2015-06-01T20:46:44Z</time>
      </trkpt>
      <trkpt lat="48.8497" lon="2.38709">
        <ele>55.599998474121</ele>
        <time>2015-06-01T20:46:47Z</time>
      </trkpt>
      <trkpt lat="48.84974" lon="2.38681">
        <ele>55.599998474121</ele>
        <time>2015-06-01T20:46:50Z</time>
      </trkpt>
      <trkpt lat="48.84978" lon="2.38653">
        <ele>55.599998474121</ele>
        <time>2015-06-01T20:46:53Z</time>
      </trkpt>
      <trkpt lat="48.84981" lon="2.38626">
        <ele>55.599998474121</ele>
        <time>2015-06-01T20:46:56Z</time>
      </trkpt>
      <trkpt lat="48.84985" lon="2.38591">
        <ele>55.599998474121</ele>
        <time>2015-06-01T20:47:00Z</time>
      </trkpt>
      <trkpt lat="48.84991" lon="2.38557">
        <ele>55.599998474121</ele>
        <time>2015-06-01T20:47:04Z</time>
      </trkpt>
      <trkpt lat="48.84998" lon="2.38523">
        <ele>55.599998474121</ele>
        <time>2015-06-01T20:47:08Z</time>
      </trkpt>
      <trkpt lat="48.85002" lon="2.38489">
        <ele>55.599998474121</ele>
        <time>2015-06-01T20:47:12Z</time>
      </trkpt>
      <trkpt lat="48.85001" lon="2.38481">
        <ele>55.599998474121</ele>
        <time>2015-06-01T20:47:13Z</time>
      </trkpt>
      <trkpt lat="48.85" lon="2.38468">
        <ele>55.599998474121</ele>
        <time>2015-06-01T20:47:15Z</time>
      </trkpt>
      <trkpt lat="48.85001" lon="2.38462">
        <ele>55.599998474121</ele>
        <time>2015-06-01T20:47:19Z</time>
      </trkpt>
      <trkpt lat="48.85003" lon="2.38459">
        <ele>55.599998474121</ele>
        <time>2015-06-01T20:47:23Z</time>
      </trkpt>
      <trkpt lat="48.85006" lon="2.38444">
        <ele>56</ele>
        <time>2015-06-01T20:47:27Z</time>
      </trkpt>
      <trkpt lat="48.85011" lon="2.38414">
        <ele>56.599998474121</ele>
        <time>2015-06-01T20:47:31Z</time>
      </trkpt>
      <trkpt lat="48.85014" lon="2.38388">
        <ele>56.79999923706</ele>
        <time>2015-06-01T20:47:34Z</time>
      </trkpt>
      <trkpt lat="48.85015" lon="2.3836">
        <ele>57.20000076294</ele>
        <time>2015-06-01T20:47:37Z</time>
      </trkpt>
      <trkpt lat="48.85019" lon="2.38316">
        <ele>57.400001525879</ele>
        <time>2015-06-01T20:47:41Z</time>
      </trkpt>
      <trkpt lat="48.85022" lon="2.38281">
        <ele>57.400001525879</ele>
        <time>2015-06-01T20:47:44Z</time>
      </trkpt>
      <trkpt lat="48.85026" lon="2.38246">
        <ele>57.400001525879</ele>
        <time>2015-06-01T20:47:47Z</time>
      </trkpt>
      <trkpt lat="48.85029" lon="2.38211">
        <ele>57.599998474121</ele>
        <time>2015-06-01T20:47:50Z</time>
      </trkpt>
      <trkpt lat="48.85032" lon="2.38191">
        <ele>57.400001525879</ele>
        <time>2015-06-01T20:47:52Z</time>
      </trkpt>
      <trkpt lat="48.85035" lon="2.38173">
        <ele>57</ele>
        <time>2015-06-01T20:47:54Z</time>
      </trkpt>
      <trkpt lat="48.85044" lon="2.38097">
        <ele>56.20000076294</ele>
        <time>2015-06-01T20:48:03Z</time>
      </trkpt>
      <trkpt lat="48.85046" lon="2.38065">
        <ele>56</ele>
        <time>2015-06-01T20:48:07Z</time>
      </trkpt>
      <trkpt lat="48.85046" lon="2.38058">
        <ele>56</ele>
        <time>2015-06-01T20:48:08Z</time>
      </trkpt>
      <trkpt lat="48.85046" lon="2.38051">
        <ele>55.79999923706</ele>
        <time>2015-06-01T20:48:09Z</time>
      </trkpt>
      <trkpt lat="48.85048" lon="2.38012">
        <ele>55.79999923706</ele>
        <time>2015-06-01T20:48:14Z</time>
      </trkpt>
      <trkpt lat="48.85049" lon="2.38004">
        <ele>55.79999923706</ele>
        <time>2015-06-01T20:48:15Z</time>
      </trkpt>
      <trkpt lat="48.85054" lon="2.37973">
        <ele>55.79999923706</ele>
        <time>2015-06-01T20:48:19Z</time>
      </trkpt>
      <trkpt lat="48.85055" lon="2.37965">
        <ele>55.599998474121</ele>
        <time>2015-06-01T20:48:20Z</time>
      </trkpt>
      <trkpt lat="48.8506" lon="2.37936">
        <ele>55.599998474121</ele>
        <time>2015-06-01T20:48:24Z</time>
      </trkpt>
      <trkpt lat="48.85062" lon="2.37921">
        <ele>55.599998474121</ele>
        <time>2015-06-01T20:48:26Z</time>
      </trkpt>
      <trkpt lat="48.85065" lon="2.37885">
        <ele>55.599998474121</ele>
        <time>2015-06-01T20:48:31Z</time>
      </trkpt>
      <trkpt lat="48.85066" lon="2.37878">
        <ele>55.599998474121</ele>
        <time>2015-06-01T20:48:32Z</time>
      </trkpt>
      <trkpt lat="48.85073" lon="2.3784">
        <ele>55.599998474121</ele>
        <time>2015-06-01T20:48:38Z</time>
      </trkpt>
      <trkpt lat="48.85074" lon="2.37835">
        <ele>55.599998474121</ele>
        <time>2015-06-01T20:48:39Z</time>
      </trkpt>
      <trkpt lat="48.85084" lon="2.37799">
        <ele>54.79999923706</ele>
        <time>2015-06-01T20:48:45Z</time>
      </trkpt>
      <trkpt lat="48.8509" lon="2.37773">
        <ele>54.400001525879</ele>
        <time>2015-06-01T20:48:49Z</time>
      </trkpt>
      <trkpt lat="48.85099" lon="2.37722">
        <ele>53.79999923706</ele>
        <time>2015-06-01T20:48:57Z</time>
      </trkpt>
      <trkpt lat="48.85101" lon="2.37711">
        <ele>53.79999923706</ele>
        <time>2015-06-01T20:48:59Z</time>
      </trkpt>
      <trkpt lat="48.85112" lon="2.37673">
        <ele>53.599998474121</ele>
        <time>2015-06-01T20:49:05Z</time>
      </trkpt>
      <trkpt lat="48.85117" lon="2.3766">
        <ele>53.599998474121</ele>
        <time>2015-06-01T20:49:07Z</time>
      </trkpt>
      <trkpt lat="48.85123" lon="2.37641">
        <ele>53.599998474121</ele>
        <time>2015-06-01T20:49:10Z</time>
      </trkpt>
      <trkpt lat="48.85125" lon="2.37635">
        <ele>53.599998474121</ele>
        <time>2015-06-01T20:49:11Z</time>
      </trkpt>
      <trkpt lat="48.8513" lon="2.37624">
        <ele>53.599998474121</ele>
        <time>2015-06-01T20:49:13Z</time>
      </trkpt>
      <trkpt lat="48.85138" lon="2.37592">
        <ele>53.599998474121</ele>
        <time>2015-06-01T20:49:19Z</time>
      </trkpt>
      <trkpt lat="48.85145" lon="2.37564">
        <ele>52.79999923706</ele>
        <time>2015-06-01T20:49:24Z</time>
      </trkpt>
      <trkpt lat="48.85151" lon="2.37538">
        <ele>52.400001525879</ele>
        <time>2015-06-01T20:49:28Z</time>
      </trkpt>
      <trkpt lat="48.85159" lon="2.37505">
        <ele>52</ele>
        <time>2015-06-01T20:49:32Z</time>
      </trkpt>
      <trkpt lat="48.85162" lon="2.37497">
        <ele>52</ele>
        <time>2015-06-01T20:49:33Z</time>
      </trkpt>
      <trkpt lat="48.8517" lon="2.37461">
        <ele>51.79999923706</ele>
        <time>2015-06-01T20:49:37Z</time>
      </trkpt>
      <trkpt lat="48.85173" lon="2.37451">
        <ele>51.79999923706</ele>
        <time>2015-06-01T20:49:38Z</time>
      </trkpt>
      <trkpt lat="48.85182" lon="2.37416">
        <ele>51.20000076294</ele>
        <time>2015-06-01T20:49:42Z</time>
      </trkpt>
      <trkpt lat="48.85187" lon="2.374">
        <ele>50.79999923706</ele>
        <time>2015-06-01T20:49:44Z</time>
      </trkpt>
      <trkpt lat="48.85198" lon="2.37362">
        <ele>50.20000076294</ele>
        <time>2015-06-01T20:49:49Z</time>
      </trkpt>
      <trkpt lat="48.85203" lon="2.37336">
        <ele>50</ele>
        <time>2015-06-01T20:49:52Z</time>
      </trkpt>
      <trkpt lat="48.85212" lon="2.37302">
        <ele>49.79999923706</ele>
        <time>2015-06-01T20:49:56Z</time>
      </trkpt>
      <trkpt lat="48.85215" lon="2.37292">
        <ele>49.79999923706</ele>
        <time>2015-06-01T20:49:57Z</time>
      </trkpt>
      <trkpt lat="48.85227" lon="2.37256">
        <ele>49.400001525879</ele>
        <time>2015-06-01T20:50:01Z</time>
      </trkpt>
      <trkpt lat="48.8523" lon="2.37247">
        <ele>49.20000076294</ele>
        <time>2015-06-01T20:50:02Z</time>
      </trkpt>
      <trkpt lat="48.85239" lon="2.3722">
        <ele>48.599998474121</ele>
        <time>2015-06-01T20:50:05Z</time>
      </trkpt>
      <trkpt lat="48.85248" lon="2.37195">
        <ele>48.20000076294</ele>
        <time>2015-06-01T20:50:08Z</time>
      </trkpt>
      <trkpt lat="48.85259" lon="2.37166">
        <ele>48</ele>
        <time>2015-06-01T20:50:12Z</time>
      </trkpt>
      <trkpt lat="48.85269" lon="2.37142">
        <ele>47.79999923706</ele>
        <time>2015-06-01T20:50:16Z</time>
      </trkpt>
      <trkpt lat="48.85281" lon="2.37118">
        <ele>47.599998474121</ele>
        <time>2015-06-01T20:50:20Z</time>
      </trkpt>
      <trkpt lat="48.85285" lon="2.37107">
        <ele>47.400001525879</ele>
        <time>2015-06-01T20:50:22Z</time>
      </trkpt>
      <trkpt lat="48.85296" lon="2.37082">
        <ele>47.400001525879</ele>
        <time>2015-06-01T20:50:27Z</time>
      </trkpt>
      <trkpt lat="48.85305" lon="2.37068">
        <ele>47.400001525879</ele>
        <time>2015-06-01T20:50:30Z</time>
      </trkpt>
      <trkpt lat="48.85315" lon="2.37051">
        <ele>47.400001525879</ele>
        <time>2015-06-01T20:50:34Z</time>
      </trkpt>
      <trkpt lat="48.85324" lon="2.37039">
        <ele>47.400001525879</ele>
        <time>2015-06-01T20:50:37Z</time>
      </trkpt>
      <trkpt lat="48.85337" lon="2.37027">
        <ele>47.20000076294</ele>
        <time>2015-06-01T20:50:42Z</time>
      </trkpt>
      <trkpt lat="48.85336" lon="2.37027">
        <ele>47.20000076294</ele>
        <time>2015-06-01T20:50:47Z</time>
      </trkpt>
      <trkpt lat="48.85339" lon="2.37028">
        <ele>47.20000076294</ele>
        <time>2015-06-01T20:51:00Z</time>
      </trkpt>
      <trkpt lat="48.85339" lon="2.37027">
        <ele>47.20000076294</ele>
        <time>2015-06-01T20:51:01Z</time>
      </trkpt>
      <trkpt lat="48.8534" lon="2.37006">
        <ele>47.20000076294</ele>
        <time>2015-06-01T20:51:07Z</time>
      </trkpt>
      <trkpt lat="48.85341" lon="2.37003">
        <ele>47.20000076294</ele>
        <time>2015-06-01T20:51:08Z</time>
      </trkpt>
      <trkpt lat="48.85345" lon="2.36992">
        <ele>47.20000076294</ele>
        <time>2015-06-01T20:51:13Z</time>
      </trkpt>
      <trkpt lat="48.85345" lon="2.3699">
        <ele>47.20000076294</ele>
        <time>2015-06-01T20:51:14Z</time>
      </trkpt>
      <trkpt lat="48.85345" lon="2.36988">
        <ele>47.20000076294</ele>
        <time>2015-06-01T20:51:15Z</time>
      </trkpt>
      <trkpt lat="48.85348" lon="2.36985">
        <ele>47.20000076294</ele>
        <time>2015-06-01T20:51:19Z</time>
      </trkpt>
      <trkpt lat="48.85352" lon="2.36985">
        <ele>47.20000076294</ele>
        <time>2015-06-01T20:51:24Z</time>
      </trkpt>
      <trkpt lat="48.85356" lon="2.36974">
        <ele>47.20000076294</ele>
        <time>2015-06-01T20:51:29Z</time>
      </trkpt>
      <trkpt lat="48.85358" lon="2.36974">
        <ele>47</ele>
        <time>2015-06-01T20:51:31Z</time>
      </trkpt>
      <trkpt lat="48.85358" lon="2.36975">
        <ele>46.20000076294</ele>
        <time>2015-06-01T20:51:36Z</time>
      </trkpt>
      <trkpt lat="48.85358" lon="2.36968">
        <ele>45.400001525879</ele>
        <time>2015-06-01T20:51:47Z</time>
      </trkpt>
      <trkpt lat="48.85354" lon="2.36966">
        <ele>45.400001525879</ele>
        <time>2015-06-01T20:51:54Z</time>
      </trkpt>
      <trkpt lat="48.85353" lon="2.36964">
        <ele>52.599998474121</ele>
        <time>2015-06-01T20:52:37Z</time>
      </trkpt>
      <trkpt lat="48.85355" lon="2.36956">
        <ele>53.599998474121</ele>
        <time>2015-06-01T20:52:41Z</time>
      </trkpt>
      <trkpt lat="48.85358" lon="2.36943">
        <ele>54.400001525879</ele>
        <time>2015-06-01T20:52:46Z</time>
      </trkpt>
      <trkpt lat="48.85359" lon="2.36935">
        <ele>54.599998474121</ele>
        <time>2015-06-01T20:52:49Z</time>
      </trkpt>
      <trkpt lat="48.8536" lon="2.3692">
        <ele>55</ele>
        <time>2015-06-01T20:52:55Z</time>
      </trkpt>
      <trkpt lat="48.85361" lon="2.36917">
        <ele>55.20000076294</ele>
        <time>2015-06-01T20:53:00Z</time>
      </trkpt>
      <trkpt lat="48.85361" lon="2.36915">
        <ele>55.400001525879</ele>
        <time>2015-06-01T20:53:01Z</time>
      </trkpt>
      <trkpt lat="48.85362" lon="2.36914">
        <ele>55.400001525879</ele>
        <time>2015-06-01T20:53:09Z</time>
      </trkpt>
      <trkpt lat="48.85363" lon="2.36905">
        <ele>55.599998474121</ele>
        <time>2015-06-01T20:53:20Z</time>
      </trkpt>
      <trkpt lat="48.85362" lon="2.36901">
        <ele>55.599998474121</ele>
        <time>2015-06-01T20:53:22Z</time>
      </trkpt>
      <trkpt lat="48.85362" lon="2.36895">
        <ele>55.599998474121</ele>
        <time>2015-06-01T20:53:26Z</time>
      </trkpt>
      <trkpt lat="48.85365" lon="2.3689">
        <ele>55.599998474121</ele>
        <time>2015-06-01T20:53:30Z</time>
      </trkpt>
      <trkpt lat="48.85365" lon="2.36891">
        <ele>55.599998474121</ele>
        <time>2015-06-01T20:53:31Z</time>
      </trkpt>
      <trkpt lat="48.85365" lon="2.3689">
        <ele>55.599998474121</ele>
        <time>2015-06-01T20:53:39Z</time>
      </trkpt>
      <trkpt lat="48.85364" lon="2.36886">
        <ele>55.599998474121</ele>
        <time>2015-06-01T20:53:54Z</time>
      </trkpt>
      <trkpt lat="48.85367" lon="2.36873">
        <ele>55.599998474121</ele>
        <time>2015-06-01T20:53:58Z</time>
      </trkpt>
      <trkpt lat="48.85371" lon="2.36849">
        <ele>55.599998474121</ele>
        <time>2015-06-01T20:54:03Z</time>
      </trkpt>
      <trkpt lat="48.85377" lon="2.36822">
        <ele>54.79999923706</ele>
        <time>2015-06-01T20:54:08Z</time>
      </trkpt>
      <trkpt lat="48.85378" lon="2.36799">
        <ele>54.20000076294</ele>
        <time>2015-06-01T20:54:12Z</time>
      </trkpt>
      <trkpt lat="48.85381" lon="2.36772">
        <ele>53</ele>
        <time>2015-06-01T20:54:17Z</time>
      </trkpt>
      <trkpt lat="48.85381" lon="2.36745">
        <ele>52.400001525879</ele>
        <time>2015-06-01T20:54:22Z</time>
      </trkpt>
      <trkpt lat="48.8537" lon="2.36732">
        <ele>51.599998474121</ele>
        <time>2015-06-01T20:54:26Z</time>
      </trkpt>
      <trkpt lat="48.85356" lon="2.36722">
        <ele>50.79999923706</ele>
        <time>2015-06-01T20:54:31Z</time>
      </trkpt>
      <trkpt lat="48.85351" lon="2.36716">
        <ele>50.400001525879</ele>
        <time>2015-06-01T20:54:33Z</time>
      </trkpt>
      <trkpt lat="48.85348" lon="2.36692">
        <ele>50.20000076294</ele>
        <time>2015-06-01T20:54:37Z</time>
      </trkpt>
      <trkpt lat="48.85349" lon="2.36686">
        <ele>50</ele>
        <time>2015-06-01T20:54:38Z</time>
      </trkpt>
      <trkpt lat="48.85352" lon="2.36652">
        <ele>49.79999923706</ele>
        <time>2015-06-01T20:54:44Z</time>
      </trkpt>
      <trkpt lat="48.85363" lon="2.36608">
        <ele>49.599998474121</ele>
        <time>2015-06-01T20:54:53Z</time>
      </trkpt>
      <trkpt lat="48.85369" lon="2.36585">
        <ele>49.400001525879</ele>
        <time>2015-06-01T20:54:57Z</time>
      </trkpt>
      <trkpt lat="48.85373" lon="2.36567">
        <ele>49.400001525879</ele>
        <time>2015-06-01T20:55:00Z</time>
      </trkpt>
      <trkpt lat="48.85383" lon="2.3653">
        <ele>49.400001525879</ele>
        <time>2015-06-01T20:55:06Z</time>
      </trkpt>
      <trkpt lat="48.8539" lon="2.36504">
        <ele>49.400001525879</ele>
        <time>2015-06-01T20:55:10Z</time>
      </trkpt>
      <trkpt lat="48.85398" lon="2.36477">
        <ele>49.400001525879</ele>
        <time>2015-06-01T20:55:14Z</time>
      </trkpt>
      <trkpt lat="48.85404" lon="2.36449">
        <ele>49.400001525879</ele>
        <time>2015-06-01T20:55:18Z</time>
      </trkpt>
      <trkpt lat="48.85413" lon="2.3642">
        <ele>49.400001525879</ele>
        <time>2015-06-01T20:55:22Z</time>
      </trkpt>
      <trkpt lat="48.85418" lon="2.36399">
        <ele>49.400001525879</ele>
        <time>2015-06-01T20:55:25Z</time>
      </trkpt>
      <trkpt lat="48.8543" lon="2.36364">
        <ele>49.400001525879</ele>
        <time>2015-06-01T20:55:30Z</time>
      </trkpt>
      <trkpt lat="48.8544" lon="2.36337">
        <ele>49.400001525879</ele>
        <time>2015-06-01T20:55:34Z</time>
      </trkpt>
      <trkpt lat="48.85449" lon="2.3631">
        <ele>49.400001525879</ele>
        <time>2015-06-01T20:55:38Z</time>
      </trkpt>
      <trkpt lat="48.85452" lon="2.36304">
        <ele>49.400001525879</ele>
        <time>2015-06-01T20:55:39Z</time>
      </trkpt>
      <trkpt lat="48.85461" lon="2.36289">
        <ele>49.400001525879</ele>
        <time>2015-06-01T20:55:43Z</time>
      </trkpt>
      <trkpt lat="48.85464" lon="2.3628">
        <ele>49.400001525879</ele>
        <time>2015-06-01T20:55:47Z</time>
      </trkpt>
      <trkpt lat="48.85472" lon="2.36255">
        <ele>49.400001525879</ele>
        <time>2015-06-01T20:55:51Z</time>
      </trkpt>
      <trkpt lat="48.85481" lon="2.36229">
        <ele>49.400001525879</ele>
        <time>2015-06-01T20:55:55Z</time>
      </trkpt>
      <trkpt lat="48.85494" lon="2.36197">
        <ele>49.400001525879</ele>
        <time>2015-06-01T20:56:00Z</time>
      </trkpt>
      <trkpt lat="48.85504" lon="2.36169">
        <ele>49.400001525879</ele>
        <time>2015-06-01T20:56:04Z</time>
      </trkpt>
      <trkpt lat="48.85508" lon="2.36155">
        <ele>49.79999923706</ele>
        <time>2015-06-01T20:56:06Z</time>
      </trkpt>
      <trkpt lat="48.85511" lon="2.36134">
        <ele>50.20000076294</ele>
        <time>2015-06-01T20:56:09Z</time>
      </trkpt>
      <trkpt lat="48.85518" lon="2.36091">
        <ele>50.79999923706</ele>
        <time>2015-06-01T20:56:14Z</time>
      </trkpt>
      <trkpt lat="48.8552" lon="2.36083">
        <ele>50.79999923706</ele>
        <time>2015-06-01T20:56:15Z</time>
      </trkpt>
      <trkpt lat="48.85527" lon="2.36057">
        <ele>51</ele>
        <time>2015-06-01T20:56:18Z</time>
      </trkpt>
      <trkpt lat="48.85529" lon="2.36048">
        <ele>51</ele>
        <time>2015-06-01T20:56:19Z</time>
      </trkpt>
      <trkpt lat="48.85533" lon="2.36034">
        <ele>51.20000076294</ele>
        <time>2015-06-01T20:56:21Z</time>
      </trkpt>
      <trkpt lat="48.85537" lon="2.36016">
        <ele>51.20000076294</ele>
        <time>2015-06-01T20:56:25Z</time>
      </trkpt>
      <trkpt lat="48.85543" lon="2.35995">
        <ele>51.400001525879</ele>
        <time>2015-06-01T20:56:31Z</time>
      </trkpt>
      <trkpt lat="48.85549" lon="2.35974">
        <ele>51.400001525879</ele>
        <time>2015-06-01T20:56:35Z</time>
      </trkpt>
      <trkpt lat="48.85555" lon="2.35947">
        <ele>51.400001525879</ele>
        <time>2015-06-01T20:56:39Z</time>
      </trkpt>
      <trkpt lat="48.85556" lon="2.3594">
        <ele>51.599998474121</ele>
        <time>2015-06-01T20:56:40Z</time>
      </trkpt>
      <trkpt lat="48.8556" lon="2.35927">
        <ele>52</ele>
        <time>2015-06-01T20:56:42Z</time>
      </trkpt>
      <trkpt lat="48.85567" lon="2.35904">
        <ele>52.400001525879</ele>
        <time>2015-06-01T20:56:45Z</time>
      </trkpt>
      <trkpt lat="48.85572" lon="2.35888">
        <ele>52.599998474121</ele>
        <time>2015-06-01T20:56:47Z</time>
      </trkpt>
      <trkpt lat="48.85581" lon="2.35862">
        <ele>52.79999923706</ele>
        <time>2015-06-01T20:56:50Z</time>
      </trkpt>
      <trkpt lat="48.85593" lon="2.35826">
        <ele>53</ele>
        <time>2015-06-01T20:56:54Z</time>
      </trkpt>
      <trkpt lat="48.85601" lon="2.35802">
        <ele>53.20000076294</ele>
        <time>2015-06-01T20:56:57Z</time>
      </trkpt>
      <trkpt lat="48.85602" lon="2.35791">
        <ele>53.20000076294</ele>
        <time>2015-06-01T20:56:58Z</time>
      </trkpt>
      <trkpt lat="48.85606" lon="2.35772">
        <ele>53.20000076294</ele>
        <time>2015-06-01T20:57:00Z</time>
      </trkpt>
      <trkpt lat="48.85615" lon="2.35733">
        <ele>53.400001525879</ele>
        <time>2015-06-01T20:57:04Z</time>
      </trkpt>
      <trkpt lat="48.85619" lon="2.35714">
        <ele>53.400001525879</ele>
        <time>2015-06-01T20:57:06Z</time>
      </trkpt>
      <trkpt lat="48.85625" lon="2.35694">
        <ele>53.400001525879</ele>
        <time>2015-06-01T20:57:08Z</time>
      </trkpt>
      <trkpt lat="48.85628" lon="2.35676">
        <ele>53.400001525879</ele>
        <time>2015-06-01T20:57:10Z</time>
      </trkpt>
      <trkpt lat="48.85636" lon="2.35638">
        <ele>52.599998474121</ele>
        <time>2015-06-01T20:57:15Z</time>
      </trkpt>
      <trkpt lat="48.85638" lon="2.35624">
        <ele>52.400001525879</ele>
        <time>2015-06-01T20:57:17Z</time>
      </trkpt>
      <trkpt lat="48.85641" lon="2.35611">
        <ele>52.20000076294</ele>
        <time>2015-06-01T20:57:19Z</time>
      </trkpt>
      <trkpt lat="48.85645" lon="2.35598">
        <ele>52</ele>
        <time>2015-06-01T20:57:21Z</time>
      </trkpt>
      <trkpt lat="48.85653" lon="2.35561">
        <ele>51.79999923706</ele>
        <time>2015-06-01T20:57:27Z</time>
      </trkpt>
      <trkpt lat="48.85654" lon="2.35555">
        <ele>51.79999923706</ele>
        <time>2015-06-01T20:57:28Z</time>
      </trkpt>
      <trkpt lat="48.8566" lon="2.3553">
        <ele>51.599998474121</ele>
        <time>2015-06-01T20:57:32Z</time>
      </trkpt>
      <trkpt lat="48.85666" lon="2.35503">
        <ele>51</ele>
        <time>2015-06-01T20:57:36Z</time>
      </trkpt>
      <trkpt lat="48.85672" lon="2.35485">
        <ele>50.599998474121</ele>
        <time>2015-06-01T20:57:39Z</time>
      </trkpt>
      <trkpt lat="48.85678" lon="2.35459">
        <ele>50.20000076294</ele>
        <time>2015-06-01T20:57:43Z</time>
      </trkpt>
      <trkpt lat="48.85681" lon="2.35448">
        <ele>50</ele>
        <time>2015-06-01T20:57:45Z</time>
      </trkpt>
      <trkpt lat="48.85692" lon="2.35413">
        <ele>49.79999923706</ele>
        <time>2015-06-01T20:57:51Z</time>
      </trkpt>
      <trkpt lat="48.85698" lon="2.35385">
        <ele>49.599998474121</ele>
        <time>2015-06-01T20:57:56Z</time>
      </trkpt>
      <trkpt lat="48.85704" lon="2.35356">
        <ele>49.599998474121</ele>
        <time>2015-06-01T20:58:01Z</time>
      </trkpt>
      <trkpt lat="48.85709" lon="2.35329">
        <ele>49.599998474121</ele>
        <time>2015-06-01T20:58:05Z</time>
      </trkpt>
      <trkpt lat="48.85711" lon="2.35314">
        <ele>49.400001525879</ele>
        <time>2015-06-01T20:58:07Z</time>
      </trkpt>
      <trkpt lat="48.85719" lon="2.35278">
        <ele>49.400001525879</ele>
        <time>2015-06-01T20:58:12Z</time>
      </trkpt>
      <trkpt lat="48.85721" lon="2.35272">
        <ele>49.400001525879</ele>
        <time>2015-06-01T20:58:13Z</time>
      </trkpt>
      <trkpt lat="48.85723" lon="2.35258">
        <ele>49.400001525879</ele>
        <time>2015-06-01T20:58:15Z</time>
      </trkpt>
      <trkpt lat="48.85732" lon="2.35221">
        <ele>49.400001525879</ele>
        <time>2015-06-01T20:58:20Z</time>
      </trkpt>
      <trkpt lat="48.85737" lon="2.35191">
        <ele>49.400001525879</ele>
        <time>2015-06-01T20:58:24Z</time>
      </trkpt>
      <trkpt lat="48.85742" lon="2.35164">
        <ele>49.400001525879</ele>
        <time>2015-06-01T20:58:28Z</time>
      </trkpt>
      <trkpt lat="48.85748" lon="2.35141">
        <ele>49.400001525879</ele>
        <time>2015-06-01T20:58:32Z</time>
      </trkpt>
      <trkpt lat="48.8575" lon="2.35136">
        <ele>49.400001525879</ele>
        <time>2015-06-01T20:58:33Z</time>
      </trkpt>
      <trkpt lat="48.85756" lon="2.35122">
        <ele>49.400001525879</ele>
        <time>2015-06-01T20:58:37Z</time>
      </trkpt>
      <trkpt lat="48.85764" lon="2.35093">
        <ele>49.400001525879</ele>
        <time>2015-06-01T20:58:42Z</time>
      </trkpt>
      <trkpt lat="48.8577" lon="2.35064">
        <ele>49.400001525879</ele>
        <time>2015-06-01T20:58:46Z</time>
      </trkpt>
      <trkpt lat="48.85773" lon="2.35056">
        <ele>49.400001525879</ele>
        <time>2015-06-01T20:58:47Z</time>
      </trkpt>
      <trkpt lat="48.85782" lon="2.35033">
        <ele>49.400001525879</ele>
        <time>2015-06-01T20:58:50Z</time>
      </trkpt>
      <trkpt lat="48.85792" lon="2.35">
        <ele>49.400001525879</ele>
        <time>2015-06-01T20:58:55Z</time>
      </trkpt>
      <trkpt lat="48.85795" lon="2.34994">
        <ele>49.400001525879</ele>
        <time>2015-06-01T20:58:56Z</time>
      </trkpt>
      <trkpt lat="48.85804" lon="2.34971">
        <ele>49.400001525879</ele>
        <time>2015-06-01T20:59:00Z</time>
      </trkpt>
      <trkpt lat="48.85815" lon="2.34936">
        <ele>49.599998474121</ele>
        <time>2015-06-01T20:59:06Z</time>
      </trkpt>
      <trkpt lat="48.8582" lon="2.34918">
        <ele>50.20000076294</ele>
        <time>2015-06-01T20:59:09Z</time>
      </trkpt>
      <trkpt lat="48.85828" lon="2.34893">
        <ele>50.599998474121</ele>
        <time>2015-06-01T20:59:13Z</time>
      </trkpt>
      <trkpt lat="48.85838" lon="2.34858">
        <ele>51</ele>
        <time>2015-06-01T20:59:19Z</time>
      </trkpt>
      <trkpt lat="48.8584" lon="2.34852">
        <ele>51</ele>
        <time>2015-06-01T20:59:20Z</time>
      </trkpt>
      <trkpt lat="48.8584" lon="2.34847">
        <ele>51</ele>
        <time>2015-06-01T20:59:21Z</time>
      </trkpt>
      <trkpt lat="48.85847" lon="2.34823">
        <ele>51.20000076294</ele>
        <time>2015-06-01T20:59:27Z</time>
      </trkpt>
      <trkpt lat="48.85847" lon="2.34821">
        <ele>51.20000076294</ele>
        <time>2015-06-01T20:59:28Z</time>
      </trkpt>
      <trkpt lat="48.85848" lon="2.34819">
        <ele>51.20000076294</ele>
        <time>2015-06-01T20:59:29Z</time>
      </trkpt>
      <trkpt lat="48.85853" lon="2.34811">
        <ele>51.400001525879</ele>
        <time>2015-06-01T20:59:33Z</time>
      </trkpt>
      <trkpt lat="48.8586" lon="2.34789">
        <ele>51.400001525879</ele>
        <time>2015-06-01T20:59:39Z</time>
      </trkpt>
      <trkpt lat="48.85867" lon="2.34772">
        <ele>51.400001525879</ele>
        <time>2015-06-01T20:59:43Z</time>
      </trkpt>
      <trkpt lat="48.85874" lon="2.3475">
        <ele>51.400001525879</ele>
        <time>2015-06-01T20:59:48Z</time>
      </trkpt>
      <trkpt lat="48.85875" lon="2.34746">
        <ele>51.400001525879</ele>
        <time>2015-06-01T20:59:49Z</time>
      </trkpt>
      <trkpt lat="48.85878" lon="2.34739">
        <ele>51.79999923706</ele>
        <time>2015-06-01T20:59:51Z</time>
      </trkpt>
      <trkpt lat="48.85896" lon="2.34729">
        <ele>52.79999923706</ele>
        <time>2015-06-01T20:59:57Z</time>
      </trkpt>
      <trkpt lat="48.85912" lon="2.34714">
        <ele>54</ele>
        <time>2015-06-01T21:00:02Z</time>
      </trkpt>
      <trkpt lat="48.85926" lon="2.34702">
        <ele>55.599998474121</ele>
        <time>2015-06-01T21:00:08Z</time>
      </trkpt>
      <trkpt lat="48.85936" lon="2.34702">
        <ele>56.400001525879</ele>
        <time>2015-06-01T21:00:12Z</time>
      </trkpt>
      <trkpt lat="48.85938" lon="2.34703">
        <ele>56.79999923706</ele>
        <time>2015-06-01T21:00:13Z</time>
      </trkpt>
      <trkpt lat="48.85944" lon="2.34713">
        <ele>58.20000076294</ele>
        <time>2015-06-01T21:00:19Z</time>
      </trkpt>
      <trkpt lat="48.85944" lon="2.34715">
        <ele>58.400001525879</ele>
        <time>2015-06-01T21:00:20Z</time>
      </trkpt>
      <trkpt lat="48.85944" lon="2.34716">
        <ele>58.79999923706</ele>
        <time>2015-06-01T21:00:21Z</time>
      </trkpt>
      <trkpt lat="48.85947" lon="2.34716">
        <ele>60</ele>
        <time>2015-06-01T21:00:25Z</time>
      </trkpt>
      <trkpt lat="48.8595" lon="2.34715">
        <ele>61.599998474121</ele>
        <time>2015-06-01T21:00:30Z</time>
      </trkpt>
      <trkpt lat="48.85952" lon="2.34715">
        <ele>63</ele>
        <time>2015-06-01T21:00:34Z</time>
      </trkpt>
      <trkpt lat="48.85952" lon="2.34715">
        <ele>63.400001525879</ele>
        <time>2015-06-01T21:00:35Z</time>
      </trkpt>
      <trkpt lat="48.85956" lon="2.34718">
        <ele>66.199996948242</ele>
        <time>2015-06-01T21:00:44Z</time>
      </trkpt>
      <trkpt lat="48.85957" lon="2.34718">
        <ele>66.599998474121</ele>
        <time>2015-06-01T21:00:46Z</time>
      </trkpt>
      <trkpt lat="48.86226" lon="2.35063">
        <ele>81.599998474121</ele>
        <time>2015-06-01T21:50:42Z</time>
      </trkpt>
      <trkpt lat="48.86238" lon="2.35069">
        <ele>81.599998474121</ele>
        <time>2015-06-01T21:50:45Z</time>
      </trkpt>
      <trkpt lat="48.8626" lon="2.35078">
        <ele>81.599998474121</ele>
        <time>2015-06-01T21:50:49Z</time>
      </trkpt>
      <trkpt lat="48.86271" lon="2.35082">
        <ele>81.599998474121</ele>
        <time>2015-06-01T21:50:51Z</time>
      </trkpt>
      <trkpt lat="48.8629" lon="2.35089">
        <ele>81.599998474121</ele>
        <time>2015-06-01T21:50:55Z</time>
      </trkpt>
      <trkpt lat="48.86313" lon="2.351">
        <ele>81.599998474121</ele>
        <time>2015-06-01T21:50:59Z</time>
      </trkpt>
      <trkpt lat="48.86329" lon="2.35108">
        <ele>81.599998474121</ele>
        <time>2015-06-01T21:51:03Z</time>
      </trkpt>
      <trkpt lat="48.86333" lon="2.35108">
        <ele>81.599998474121</ele>
        <time>2015-06-01T21:51:04Z</time>
      </trkpt>
      <trkpt lat="48.86338" lon="2.35109">
        <ele>81.599998474121</ele>
        <time>2015-06-01T21:51:05Z</time>
      </trkpt>
      <trkpt lat="48.8636" lon="2.35118">
        <ele>82.199996948242</ele>
        <time>2015-06-01T21:51:10Z</time>
      </trkpt>
      <trkpt lat="48.8638" lon="2.35125">
        <ele>82.800003051758</ele>
        <time>2015-06-01T21:51:14Z</time>
      </trkpt>
      <trkpt lat="48.86385" lon="2.35128">
        <ele>82.800003051758</ele>
        <time>2015-06-01T21:51:15Z</time>
      </trkpt>
      <trkpt lat="48.8641" lon="2.35141">
        <ele>83.400001525879</ele>
        <time>2015-06-01T21:51:20Z</time>
      </trkpt>
      <trkpt lat="48.86425" lon="2.35149">
        <ele>84.199996948242</ele>
        <time>2015-06-01T21:51:23Z</time>
      </trkpt>
      <trkpt lat="48.86449" lon="2.35168">
        <ele>84.800003051758</ele>
        <time>2015-06-01T21:51:27Z</time>
      </trkpt>
      <trkpt lat="48.86462" lon="2.35197">
        <ele>85.199996948242</ele>
        <time>2015-06-01T21:51:32Z</time>
      </trkpt>
      <trkpt lat="48.86465" lon="2.35203">
        <ele>85.199996948242</ele>
        <time>2015-06-01T21:51:33Z</time>
      </trkpt>
      <trkpt lat="48.86472" lon="2.35215">
        <ele>85.400001525879</ele>
        <time>2015-06-01T21:51:35Z</time>
      </trkpt>
      <trkpt lat="48.86478" lon="2.35226">
        <ele>85.599998474121</ele>
        <time>2015-06-01T21:51:37Z</time>
      </trkpt>
      <trkpt lat="48.86486" lon="2.35243">
        <ele>85.400001525879</ele>
        <time>2015-06-01T21:51:40Z</time>
      </trkpt>
      <trkpt lat="48.8649" lon="2.35271">
        <ele>84.599998474121</ele>
        <time>2015-06-01T21:51:45Z</time>
      </trkpt>
      <trkpt lat="48.86494" lon="2.35289">
        <ele>84</ele>
        <time>2015-06-01T21:51:48Z</time>
      </trkpt>
      <trkpt lat="48.86494" lon="2.35307">
        <ele>83.400001525879</ele>
        <time>2015-06-01T21:51:51Z</time>
      </trkpt>
      <trkpt lat="48.86503" lon="2.3533">
        <ele>81.599998474121</ele>
        <time>2015-06-01T21:51:57Z</time>
      </trkpt>
      <trkpt lat="48.86518" lon="2.35347">
        <ele>79.599998474121</ele>
        <time>2015-06-01T21:52:03Z</time>
      </trkpt>
      <trkpt lat="48.86535" lon="2.3536">
        <ele>78.599998474121</ele>
        <time>2015-06-01T21:52:09Z</time>
      </trkpt>
      <trkpt lat="48.86545" lon="2.35358">
        <ele>77.400001525879</ele>
        <time>2015-06-01T21:52:14Z</time>
      </trkpt>
      <trkpt lat="48.86557" lon="2.35356">
        <ele>76.400001525879</ele>
        <time>2015-06-01T21:52:20Z</time>
      </trkpt>
      <trkpt lat="48.8656" lon="2.35357">
        <ele>76</ele>
        <time>2015-06-01T21:52:22Z</time>
      </trkpt>
      <trkpt lat="48.86562" lon="2.35358">
        <ele>75.800003051758</ele>
        <time>2015-06-01T21:52:25Z</time>
      </trkpt>
    </trkseg>
  </trk>
</gpx>